<?xml version="1.0" encoding="UTF-8"?>
<gpx version="1.1" creator="2bulu-scraper" xmlns="http://www.topografix.com/GPX/1/1">
  <metadata><name>峨眉山北线拿捏</name><desc>source: 2bulu.com trackId=88104831; exported 2026-09-01T15:54:08.909Z</desc>
    <bounds minlat="29.5227044" minlon="103.3268411" maxlat="29.5830812" maxlon="103.4414656"/>
    <link href="https://www.2bulu.com/track/t-H65IfREJIwXp%252FR2KBg5Tzw%253D%253D.htm"><text>2bulu 源页面</text></link>
  </metadata>
  <wpt lat="29.5707167" lon="103.4413832"><ele>500</ele><name>
        </name></wpt>
  <wpt lat="29.5682736" lon="103.4396398"><ele>497</ele><name>
        </name></wpt>
  <wpt lat="29.5656855" lon="103.4362497"><ele>519</ele><name>
        </name></wpt>
  <wpt lat="29.5656588" lon="103.4342917"><ele>546</ele><name>
        </name></wpt>
  <wpt lat="29.5649254" lon="103.4266743"><ele>618</ele><name>
        </name></wpt>
  <wpt lat="29.5650594" lon="103.4262235"><ele>634</ele><name>
        </name></wpt>
  <wpt lat="29.5645208" lon="103.4230383"><ele>710</ele><name>
        </name></wpt>
  <wpt lat="29.5653969" lon="103.4211615"><ele>795</ele><name>
        </name></wpt>
  <wpt lat="29.5668427" lon="103.4198728"><ele>812</ele><name>
        </name></wpt>
  <wpt lat="29.5683289" lon="103.4114678"><ele>843</ele><name>
        </name></wpt>
  <wpt lat="29.5683331" lon="103.4046936"><ele>760</ele><name>
        </name></wpt>
  <wpt lat="29.5719448" lon="103.4008849"><ele>737</ele><name>
        </name></wpt>
  <wpt lat="29.5790859" lon="103.3869532"><ele>798</ele><name>
        </name></wpt>
  <wpt lat="29.5804674" lon="103.384648"><ele>875</ele><name>
        </name></wpt>
  <wpt lat="29.5828879" lon="103.3803766"><ele>957</ele><name>
        </name></wpt>
  <wpt lat="29.5813944" lon="103.3762425"><ele>1149</ele><name>这一段很陡很长
        </name></wpt>
  <wpt lat="29.5810841" lon="103.3765303"><ele>1177</ele><name>
        </name></wpt>
  <wpt lat="29.5807226" lon="103.3753157"><ele>1252</ele><name>猴哥
        </name></wpt>
  <wpt lat="29.5775" lon="103.3709043"><ele>1434</ele><name>
        </name></wpt>
  <wpt lat="29.5752596" lon="103.3653767"><ele>1448</ele><name>
        </name></wpt>
  <wpt lat="29.5748425" lon="103.3646648"><ele>1484</ele><name>
        </name></wpt>
  <wpt lat="29.5664121" lon="103.3589058"><ele>1739</ele><name>
        </name></wpt>
  <wpt lat="29.5662405" lon="103.3581592"><ele>1766</ele><name>辣条
        </name></wpt>
  <wpt lat="29.5642273" lon="103.3564735"><ele>1875</ele><name>
        </name></wpt>
  <wpt lat="29.5629804" lon="103.3528063"><ele>1835</ele><name>
        </name></wpt>
  <wpt lat="29.561469" lon="103.3453852"><ele>1777</ele><name>上天梯
        </name></wpt>
  <wpt lat="29.5585031" lon="103.3441416"><ele>2030</ele><name>
        </name></wpt>
  <wpt lat="29.555586" lon="103.344979"><ele>2144</ele><name>
        </name></wpt>
  <wpt lat="29.547229" lon="103.3405443"><ele>2308</ele><name>开始绝望坡
        </name></wpt>
  <wpt lat="29.5423424" lon="103.3321227"><ele>2394</ele><name>
        </name></wpt>
  <wpt lat="29.5396573" lon="103.3324416"><ele>2400</ele><name>
        </name></wpt>
  <wpt lat="29.5361109" lon="103.3342877"><ele>2457</ele><name>
        </name></wpt>
  <wpt lat="29.5337718" lon="103.3331067"><ele>2532</ele><name>
        </name></wpt>
  <wpt lat="29.5317843" lon="103.3301622"><ele>2681</ele><name>
        </name></wpt>
  <wpt lat="29.529184" lon="103.3281781"><ele>2823</ele><name>
        </name></wpt>
  <wpt lat="29.5262687" lon="103.3337246"><ele>2950</ele><name>
        </name></wpt>
  <wpt lat="29.5227238" lon="103.3350797"><ele>3007</ele><name>
        </name></wpt>
  <wpt lat="29.5229423" lon="103.3359079"><ele>3023</ele><name>
        </name></wpt>
  <wpt lat="29.5231" lon="103.337106"><ele>3037</ele><name>
        </name></wpt>
  <wpt lat="29.5231687" lon="103.3370646"><ele>3037</ele><name>
        </name></wpt>
  <wpt lat="29.5231428" lon="103.3370774"><ele>3036</ele><name>
        </name></wpt>
  <trk><name>峨眉山北线拿捏</name>
      <trkseg>
        <trkpt lat="29.5710328" lon="103.4414091"><ele>502.96</ele><time>2026-08-07T15:53:23.000Z</time></trkpt>
        <trkpt lat="29.570948" lon="103.4414246"><ele>502.96</ele><time>2026-08-07T15:53:43.000Z</time></trkpt>
        <trkpt lat="29.5708469" lon="103.4414339"><ele>500.85</ele><time>2026-08-07T15:53:59.000Z</time></trkpt>
        <trkpt lat="29.5707528" lon="103.4413971"><ele>499.95</ele><time>2026-08-07T15:54:10.000Z</time></trkpt>
        <trkpt lat="29.5707167" lon="103.4413832"><ele>499.98</ele><time>2026-08-07T15:54:12.000Z</time></trkpt>
        <trkpt lat="29.5706543" lon="103.4414486"><ele>500.06</ele><time>2026-08-07T15:56:04.000Z</time></trkpt>
        <trkpt lat="29.5705597" lon="103.4414656"><ele>499.91</ele><time>2026-08-07T15:56:12.000Z</time></trkpt>
        <trkpt lat="29.5704601" lon="103.4414233"><ele>499.81</ele><time>2026-08-07T15:56:22.000Z</time></trkpt>
        <trkpt lat="29.5703601" lon="103.4413693"><ele>499.3</ele><time>2026-08-07T15:56:32.000Z</time></trkpt>
        <trkpt lat="29.570272" lon="103.4413005"><ele>498.43</ele><time>2026-08-07T15:56:42.000Z</time></trkpt>
        <trkpt lat="29.5701804" lon="103.4412388"><ele>498.19</ele><time>2026-08-07T15:56:54.000Z</time></trkpt>
        <trkpt lat="29.5700927" lon="103.4411852"><ele>499.37</ele><time>2026-08-07T15:57:04.000Z</time></trkpt>
        <trkpt lat="29.5700057" lon="103.4411209"><ele>500.4</ele><time>2026-08-07T15:57:12.000Z</time></trkpt>
        <trkpt lat="29.5699219" lon="103.4410618"><ele>501.46</ele><time>2026-08-07T15:57:20.000Z</time></trkpt>
        <trkpt lat="29.5698301" lon="103.4410168"><ele>501.47</ele><time>2026-08-07T15:57:28.000Z</time></trkpt>
        <trkpt lat="29.5697395" lon="103.4409832"><ele>501.7</ele><time>2026-08-07T15:57:36.000Z</time></trkpt>
        <trkpt lat="29.5696418" lon="103.4409658"><ele>501.76</ele><time>2026-08-07T15:57:44.000Z</time></trkpt>
        <trkpt lat="29.5695442" lon="103.4409586"><ele>501.35</ele><time>2026-08-07T15:57:52.000Z</time></trkpt>
        <trkpt lat="29.5694487" lon="103.4409545"><ele>501.5</ele><time>2026-08-07T15:58:00.000Z</time></trkpt>
        <trkpt lat="29.5693626" lon="103.4409174"><ele>500.51</ele><time>2026-08-07T15:58:08.000Z</time></trkpt>
        <trkpt lat="29.56927" lon="103.4409032"><ele>498.34</ele><time>2026-08-07T15:58:16.000Z</time></trkpt>
        <trkpt lat="29.5692193" lon="103.4408769"><ele>496.94</ele><time>2026-08-07T15:58:22.000Z</time></trkpt>
        <trkpt lat="29.5691593" lon="103.4408086"><ele>496</ele><time>2026-08-07T15:59:08.000Z</time></trkpt>
        <trkpt lat="29.5691516" lon="103.4407019"><ele>494.76</ele><time>2026-08-07T15:59:16.000Z</time></trkpt>
        <trkpt lat="29.5690803" lon="103.4406613"><ele>494.55</ele><time>2026-08-07T15:59:24.000Z</time></trkpt>
        <trkpt lat="29.5689861" lon="103.4406659"><ele>495.94</ele><time>2026-08-07T15:59:34.000Z</time></trkpt>
        <trkpt lat="29.5689372" lon="103.4406554"><ele>496.12</ele><time>2026-08-07T15:59:46.000Z</time></trkpt>
        <trkpt lat="29.568898" lon="103.4405734"><ele>496.79</ele><time>2026-08-07T16:00:10.000Z</time></trkpt>
        <trkpt lat="29.5688135" lon="103.4405225"><ele>495.67</ele><time>2026-08-07T16:00:22.000Z</time></trkpt>
        <trkpt lat="29.5687311" lon="103.4404627"><ele>496.12</ele><time>2026-08-07T16:00:32.000Z</time></trkpt>
        <trkpt lat="29.5686494" lon="103.4403804"><ele>496.59</ele><time>2026-08-07T16:00:44.000Z</time></trkpt>
        <trkpt lat="29.5685814" lon="103.4402999"><ele>494.19</ele><time>2026-08-07T16:00:52.000Z</time></trkpt>
        <trkpt lat="29.5684927" lon="103.4402425"><ele>492.84</ele><time>2026-08-07T16:01:02.000Z</time></trkpt>
        <trkpt lat="29.5684263" lon="103.4401661"><ele>491.25</ele><time>2026-08-07T16:01:12.000Z</time></trkpt>
        <trkpt lat="29.5684036" lon="103.4400668"><ele>490.93</ele><time>2026-08-07T16:01:20.000Z</time></trkpt>
        <trkpt lat="29.5683602" lon="103.4399714"><ele>490.5</ele><time>2026-08-07T16:01:28.000Z</time></trkpt>
        <trkpt lat="29.5683396" lon="103.439859"><ele>491.77</ele><time>2026-08-07T16:01:38.000Z</time></trkpt>
        <trkpt lat="29.5683148" lon="103.4397431"><ele>491.48</ele><time>2026-08-07T16:01:48.000Z</time></trkpt>
        <trkpt lat="29.5682736" lon="103.4396398"><ele>492.78</ele><time>2026-08-07T16:01:58.000Z</time></trkpt>
        <trkpt lat="29.5682031" lon="103.4395662"><ele>494.52</ele><time>2026-08-07T16:02:12.000Z</time></trkpt>
        <trkpt lat="29.5681041" lon="103.4395215"><ele>494.06</ele><time>2026-08-07T16:02:22.000Z</time></trkpt>
        <trkpt lat="29.5680087" lon="103.4394944"><ele>494.19</ele><time>2026-08-07T16:02:32.000Z</time></trkpt>
        <trkpt lat="29.5679022" lon="103.4395222"><ele>494.45</ele><time>2026-08-07T16:02:42.000Z</time></trkpt>
        <trkpt lat="29.5678313" lon="103.4395991"><ele>494.67</ele><time>2026-08-07T16:02:50.000Z</time></trkpt>
        <trkpt lat="29.5677485" lon="103.4396237"><ele>494.64</ele><time>2026-08-07T16:03:00.000Z</time></trkpt>
        <trkpt lat="29.5676591" lon="103.4395997"><ele>494.55</ele><time>2026-08-07T16:03:10.000Z</time></trkpt>
        <trkpt lat="29.5675684" lon="103.4395678"><ele>494.24</ele><time>2026-08-07T16:03:18.000Z</time></trkpt>
        <trkpt lat="29.5674835" lon="103.4395226"><ele>493.02</ele><time>2026-08-07T16:03:26.000Z</time></trkpt>
        <trkpt lat="29.5674151" lon="103.439437"><ele>493.03</ele><time>2026-08-07T16:03:38.000Z</time></trkpt>
        <trkpt lat="29.5673334" lon="103.4393613"><ele>493.35</ele><time>2026-08-07T16:03:48.000Z</time></trkpt>
        <trkpt lat="29.5672547" lon="103.439274"><ele>493.29</ele><time>2026-08-07T16:03:58.000Z</time></trkpt>
        <trkpt lat="29.5671863" lon="103.4391715"><ele>493.64</ele><time>2026-08-07T16:04:08.000Z</time></trkpt>
        <trkpt lat="29.5671289" lon="103.4390761"><ele>493.9</ele><time>2026-08-07T16:04:18.000Z</time></trkpt>
        <trkpt lat="29.5670844" lon="103.438982"><ele>495.15</ele><time>2026-08-07T16:04:28.000Z</time></trkpt>
        <trkpt lat="29.5670077" lon="103.4389401"><ele>496</ele><time>2026-08-07T16:04:38.000Z</time></trkpt>
        <trkpt lat="29.5669212" lon="103.4388958"><ele>497.15</ele><time>2026-08-07T16:04:48.000Z</time></trkpt>
        <trkpt lat="29.5668414" lon="103.4388146"><ele>498.17</ele><time>2026-08-07T16:04:58.000Z</time></trkpt>
        <trkpt lat="29.5667818" lon="103.4387221"><ele>498.33</ele><time>2026-08-07T16:05:12.000Z</time></trkpt>
        <trkpt lat="29.5667502" lon="103.4386212"><ele>499.14</ele><time>2026-08-07T16:05:22.000Z</time></trkpt>
        <trkpt lat="29.5666912" lon="103.4385349"><ele>499.49</ele><time>2026-08-07T16:05:34.000Z</time></trkpt>
        <trkpt lat="29.5666447" lon="103.4384361"><ele>500.57</ele><time>2026-08-07T16:05:42.000Z</time></trkpt>
        <trkpt lat="29.5665942" lon="103.438335"><ele>501.86</ele><time>2026-08-07T16:05:52.000Z</time></trkpt>
        <trkpt lat="29.5665684" lon="103.4382193"><ele>502.73</ele><time>2026-08-07T16:06:04.000Z</time></trkpt>
        <trkpt lat="29.5665852" lon="103.4381126"><ele>503.58</ele><time>2026-08-07T16:06:16.000Z</time></trkpt>
        <trkpt lat="29.5666048" lon="103.4379959"><ele>505.11</ele><time>2026-08-07T16:06:30.000Z</time></trkpt>
        <trkpt lat="29.5665539" lon="103.4379182"><ele>506.08</ele><time>2026-08-07T16:06:52.000Z</time></trkpt>
        <trkpt lat="29.5664653" lon="103.4378766"><ele>507.44</ele><time>2026-08-07T16:07:14.000Z</time></trkpt>
        <trkpt lat="29.5663959" lon="103.4377984"><ele>507.87</ele><time>2026-08-07T16:07:24.000Z</time></trkpt>
        <trkpt lat="29.5663316" lon="103.4377115"><ele>508.45</ele><time>2026-08-07T16:07:36.000Z</time></trkpt>
        <trkpt lat="29.5662672" lon="103.4376243"><ele>508.33</ele><time>2026-08-07T16:07:50.000Z</time></trkpt>
        <trkpt lat="29.5661812" lon="103.4375512"><ele>508.3</ele><time>2026-08-07T16:08:02.000Z</time></trkpt>
        <trkpt lat="29.5660985" lon="103.4374863"><ele>509.97</ele><time>2026-08-07T16:08:12.000Z</time></trkpt>
        <trkpt lat="29.566028" lon="103.4373998"><ele>510.81</ele><time>2026-08-07T16:08:24.000Z</time></trkpt>
        <trkpt lat="29.5659766" lon="103.4373092"><ele>510.4</ele><time>2026-08-07T16:08:32.000Z</time></trkpt>
        <trkpt lat="29.5659245" lon="103.4372105"><ele>509.93</ele><time>2026-08-07T16:08:42.000Z</time></trkpt>
        <trkpt lat="29.5658651" lon="103.4371113"><ele>510.04</ele><time>2026-08-07T16:08:52.000Z</time></trkpt>
        <trkpt lat="29.5657915" lon="103.4370474"><ele>511.42</ele><time>2026-08-07T16:09:06.000Z</time></trkpt>
        <trkpt lat="29.5657745" lon="103.4369422"><ele>512.68</ele><time>2026-08-07T16:09:20.000Z</time></trkpt>
        <trkpt lat="29.5657746" lon="103.4368209"><ele>513.73</ele><time>2026-08-07T16:09:30.000Z</time></trkpt>
        <trkpt lat="29.5657937" lon="103.436711"><ele>514.54</ele><time>2026-08-07T16:09:40.000Z</time></trkpt>
        <trkpt lat="29.5658433" lon="103.4366108"><ele>515.32</ele><time>2026-08-07T16:09:50.000Z</time></trkpt>
        <trkpt lat="29.5658565" lon="103.4365085"><ele>516.94</ele><time>2026-08-07T16:10:00.000Z</time></trkpt>
        <trkpt lat="29.5657981" lon="103.4364228"><ele>518.37</ele><time>2026-08-07T16:10:14.000Z</time></trkpt>
        <trkpt lat="29.5657242" lon="103.4363458"><ele>519.51</ele><time>2026-08-07T16:10:26.000Z</time></trkpt>
        <trkpt lat="29.5656855" lon="103.4362497"><ele>520.33</ele><time>2026-08-07T16:10:41.000Z</time></trkpt>
        <trkpt lat="29.5656656" lon="103.436137"><ele>519.58</ele><time>2026-08-07T16:10:53.000Z</time></trkpt>
        <trkpt lat="29.5656584" lon="103.4360285"><ele>519.33</ele><time>2026-08-07T16:11:05.000Z</time></trkpt>
        <trkpt lat="29.5656238" lon="103.4359194"><ele>520.72</ele><time>2026-08-07T16:11:19.000Z</time></trkpt>
        <trkpt lat="29.5655832" lon="103.435817"><ele>522.43</ele><time>2026-08-07T16:11:31.000Z</time></trkpt>
        <trkpt lat="29.565617" lon="103.4357309"><ele>524.06</ele><time>2026-08-07T16:12:07.000Z</time></trkpt>
        <trkpt lat="29.5656887" lon="103.4356594"><ele>526.81</ele><time>2026-08-07T16:12:21.000Z</time></trkpt>
        <trkpt lat="29.5657672" lon="103.4355876"><ele>528.71</ele><time>2026-08-07T16:12:52.000Z</time></trkpt>
        <trkpt lat="29.5658535" lon="103.4355296"><ele>528.73</ele><time>2026-08-07T16:13:02.000Z</time></trkpt>
        <trkpt lat="29.5659528" lon="103.435528"><ele>527.68</ele><time>2026-08-07T16:13:12.000Z</time></trkpt>
        <trkpt lat="29.5660456" lon="103.4355858"><ele>527.81</ele><time>2026-08-07T16:13:22.000Z</time></trkpt>
        <trkpt lat="29.5660999" lon="103.435528"><ele>529</ele><time>2026-08-07T16:13:42.000Z</time></trkpt>
        <trkpt lat="29.5660912" lon="103.4354161"><ele>528.52</ele><time>2026-08-07T16:13:54.000Z</time></trkpt>
        <trkpt lat="29.5660548" lon="103.4353095"><ele>530</ele><time>2026-08-07T16:14:04.000Z</time></trkpt>
        <trkpt lat="29.5659958" lon="103.4352124"><ele>530.63</ele><time>2026-08-07T16:14:22.000Z</time></trkpt>
        <trkpt lat="29.5659238" lon="103.435114"><ele>531.49</ele><time>2026-08-07T16:14:37.000Z</time></trkpt>
        <trkpt lat="29.5658483" lon="103.4350299"><ele>533.89</ele><time>2026-08-07T16:14:49.000Z</time></trkpt>
        <trkpt lat="29.5657561" lon="103.4349598"><ele>536.28</ele><time>2026-08-07T16:15:01.000Z</time></trkpt>
        <trkpt lat="29.5656665" lon="103.434891"><ele>539.99</ele><time>2026-08-07T16:15:13.000Z</time></trkpt>
        <trkpt lat="29.565592" lon="103.4348191"><ele>542.09</ele><time>2026-08-07T16:15:23.000Z</time></trkpt>
        <trkpt lat="29.5655326" lon="103.4347317"><ele>542.33</ele><time>2026-08-07T16:15:33.000Z</time></trkpt>
        <trkpt lat="29.5655183" lon="103.4346226"><ele>542.19</ele><time>2026-08-07T16:15:41.000Z</time></trkpt>
        <trkpt lat="29.5655452" lon="103.4345066"><ele>541.99</ele><time>2026-08-07T16:15:51.000Z</time></trkpt>
        <trkpt lat="29.5656032" lon="103.4343943"><ele>541.99</ele><time>2026-08-07T16:16:01.000Z</time></trkpt>
        <trkpt lat="29.5656588" lon="103.4342917"><ele>542.31</ele><time>2026-08-07T16:16:16.000Z</time></trkpt>
        <trkpt lat="29.5657679" lon="103.434219"><ele>543.91</ele><time>2026-08-07T16:20:23.000Z</time></trkpt>
        <trkpt lat="29.5657109" lon="103.4341229"><ele>542.94</ele><time>2026-08-07T16:20:39.000Z</time></trkpt>
        <trkpt lat="29.5656989" lon="103.4340161"><ele>543.14</ele><time>2026-08-07T16:21:03.000Z</time></trkpt>
        <trkpt lat="29.5656996" lon="103.4339116"><ele>546.18</ele><time>2026-08-07T16:21:17.000Z</time></trkpt>
        <trkpt lat="29.565719" lon="103.4338066"><ele>549.95</ele><time>2026-08-07T16:21:43.000Z</time></trkpt>
        <trkpt lat="29.5657509" lon="103.4337041"><ele>549.45</ele><time>2026-08-07T16:22:03.000Z</time></trkpt>
        <trkpt lat="29.5657702" lon="103.4335987"><ele>549.47</ele><time>2026-08-07T16:22:13.000Z</time></trkpt>
        <trkpt lat="29.5657743" lon="103.4334733"><ele>549.69</ele><time>2026-08-07T16:22:23.000Z</time></trkpt>
        <trkpt lat="29.5657633" lon="103.4333623"><ele>549.84</ele><time>2026-08-07T16:22:31.000Z</time></trkpt>
        <trkpt lat="29.5657278" lon="103.4332483"><ele>551.15</ele><time>2026-08-07T16:22:39.000Z</time></trkpt>
        <trkpt lat="29.5656942" lon="103.4331382"><ele>551.09</ele><time>2026-08-07T16:22:45.000Z</time></trkpt>
        <trkpt lat="29.5656895" lon="103.4330301"><ele>551.14</ele><time>2026-08-07T16:22:55.000Z</time></trkpt>
        <trkpt lat="29.5656803" lon="103.4329089"><ele>553.61</ele><time>2026-08-07T16:23:07.000Z</time></trkpt>
        <trkpt lat="29.565633" lon="103.4328192"><ele>556.54</ele><time>2026-08-07T16:23:17.000Z</time></trkpt>
        <trkpt lat="29.5655756" lon="103.4327354"><ele>557.04</ele><time>2026-08-07T16:23:25.000Z</time></trkpt>
        <trkpt lat="29.5655157" lon="103.4326397"><ele>556.45</ele><time>2026-08-07T16:23:35.000Z</time></trkpt>
        <trkpt lat="29.5654829" lon="103.4325284"><ele>555.54</ele><time>2026-08-07T16:23:45.000Z</time></trkpt>
        <trkpt lat="29.5654681" lon="103.432407"><ele>555.96</ele><time>2026-08-07T16:23:55.000Z</time></trkpt>
        <trkpt lat="29.5654347" lon="103.4322906"><ele>556.05</ele><time>2026-08-07T16:24:05.000Z</time></trkpt>
        <trkpt lat="29.5653846" lon="103.4321877"><ele>557.15</ele><time>2026-08-07T16:24:15.000Z</time></trkpt>
        <trkpt lat="29.5653513" lon="103.4320762"><ele>558.54</ele><time>2026-08-07T16:24:27.000Z</time></trkpt>
        <trkpt lat="29.5653035" lon="103.4319824"><ele>559.8</ele><time>2026-08-07T16:24:39.000Z</time></trkpt>
        <trkpt lat="29.5653032" lon="103.4318755"><ele>561.46</ele><time>2026-08-07T16:24:51.000Z</time></trkpt>
        <trkpt lat="29.5653378" lon="103.4317784"><ele>563.91</ele><time>2026-08-07T16:25:01.000Z</time></trkpt>
        <trkpt lat="29.5653859" lon="103.4316859"><ele>566.45</ele><time>2026-08-07T16:25:11.000Z</time></trkpt>
        <trkpt lat="29.5654155" lon="103.431574"><ele>566.77</ele><time>2026-08-07T16:25:23.000Z</time></trkpt>
        <trkpt lat="29.5654091" lon="103.4314634"><ele>567.98</ele><time>2026-08-07T16:25:35.000Z</time></trkpt>
        <trkpt lat="29.5654504" lon="103.4313678"><ele>570.79</ele><time>2026-08-07T16:25:45.000Z</time></trkpt>
        <trkpt lat="29.5654524" lon="103.4313374"><ele>572.22</ele><time>2026-08-07T16:25:49.000Z</time></trkpt>
        <trkpt lat="29.5654706" lon="103.4312546"><ele>575.32</ele><time>2026-08-07T16:26:09.000Z</time></trkpt>
        <trkpt lat="29.5654873" lon="103.431152"><ele>575.36</ele><time>2026-08-07T16:26:19.000Z</time></trkpt>
        <trkpt lat="29.5654989" lon="103.4310331"><ele>577.06</ele><time>2026-08-07T16:26:31.000Z</time></trkpt>
        <trkpt lat="29.5654517" lon="103.4309438"><ele>578.18</ele><time>2026-08-07T16:26:41.000Z</time></trkpt>
        <trkpt lat="29.5653702" lon="103.4308802"><ele>579.33</ele><time>2026-08-07T16:26:53.000Z</time></trkpt>
        <trkpt lat="29.5653284" lon="103.4307825"><ele>581.03</ele><time>2026-08-07T16:27:17.000Z</time></trkpt>
        <trkpt lat="29.5653194" lon="103.4306758"><ele>582.52</ele><time>2026-08-07T16:27:29.000Z</time></trkpt>
        <trkpt lat="29.5652985" lon="103.4305716"><ele>583.98</ele><time>2026-08-07T16:27:41.000Z</time></trkpt>
        <trkpt lat="29.5652688" lon="103.4304581"><ele>585.56</ele><time>2026-08-07T16:27:53.000Z</time></trkpt>
        <trkpt lat="29.5652556" lon="103.4303502"><ele>586.74</ele><time>2026-08-07T16:28:03.000Z</time></trkpt>
        <trkpt lat="29.5652538" lon="103.430244"><ele>588.49</ele><time>2026-08-07T16:28:13.000Z</time></trkpt>
        <trkpt lat="29.565241" lon="103.4301278"><ele>590.14</ele><time>2026-08-07T16:28:25.000Z</time></trkpt>
        <trkpt lat="29.5652305" lon="103.4300181"><ele>591.63</ele><time>2026-08-07T16:28:35.000Z</time></trkpt>
        <trkpt lat="29.5651996" lon="103.4299104"><ele>591.77</ele><time>2026-08-07T16:28:47.000Z</time></trkpt>
        <trkpt lat="29.5651566" lon="103.4298056"><ele>592.23</ele><time>2026-08-07T16:28:59.000Z</time></trkpt>
        <trkpt lat="29.5651267" lon="103.4296998"><ele>592.73</ele><time>2026-08-07T16:29:13.000Z</time></trkpt>
        <trkpt lat="29.5650801" lon="103.4296061"><ele>592.11</ele><time>2026-08-07T16:29:25.000Z</time></trkpt>
        <trkpt lat="29.565024" lon="103.4295131"><ele>593.44</ele><time>2026-08-07T16:29:37.000Z</time></trkpt>
        <trkpt lat="29.5649696" lon="103.4294261"><ele>594.53</ele><time>2026-08-07T16:29:49.000Z</time></trkpt>
        <trkpt lat="29.5649219" lon="103.4293293"><ele>595.14</ele><time>2026-08-07T16:30:01.000Z</time></trkpt>
        <trkpt lat="29.5649071" lon="103.4292215"><ele>595.37</ele><time>2026-08-07T16:30:13.000Z</time></trkpt>
        <trkpt lat="29.5649032" lon="103.42911"><ele>594.1</ele><time>2026-08-07T16:30:21.000Z</time></trkpt>
        <trkpt lat="29.5648776" lon="103.4290072"><ele>593.76</ele><time>2026-08-07T16:30:29.000Z</time></trkpt>
        <trkpt lat="29.5648131" lon="103.4289215"><ele>593.33</ele><time>2026-08-07T16:30:39.000Z</time></trkpt>
        <trkpt lat="29.5648088" lon="103.4288264"><ele>593.36</ele><time>2026-08-07T16:30:45.000Z</time></trkpt>
        <trkpt lat="29.5648209" lon="103.4287105"><ele>593.94</ele><time>2026-08-07T16:30:55.000Z</time></trkpt>
        <trkpt lat="29.5648236" lon="103.4285897"><ele>592.8</ele><time>2026-08-07T16:31:05.000Z</time></trkpt>
        <trkpt lat="29.5648242" lon="103.4284698"><ele>592.02</ele><time>2026-08-07T16:31:15.000Z</time></trkpt>
        <trkpt lat="29.5648896" lon="103.4283901"><ele>590.85</ele><time>2026-08-07T16:31:27.000Z</time></trkpt>
        <trkpt lat="29.564983" lon="103.4283383"><ele>591.34</ele><time>2026-08-07T16:31:39.000Z</time></trkpt>
        <trkpt lat="29.5650745" lon="103.4282972"><ele>592.14</ele><time>2026-08-07T16:31:49.000Z</time></trkpt>
        <trkpt lat="29.5651546" lon="103.4282409"><ele>592.68</ele><time>2026-08-07T16:31:59.000Z</time></trkpt>
        <trkpt lat="29.5652244" lon="103.4281728"><ele>592.69</ele><time>2026-08-07T16:32:09.000Z</time></trkpt>
        <trkpt lat="29.5653116" lon="103.4281074"><ele>592.75</ele><time>2026-08-07T16:32:19.000Z</time></trkpt>
        <trkpt lat="29.565382" lon="103.4280189"><ele>594.92</ele><time>2026-08-07T16:32:27.000Z</time></trkpt>
        <trkpt lat="29.5654317" lon="103.4279052"><ele>597.11</ele><time>2026-08-07T16:32:37.000Z</time></trkpt>
        <trkpt lat="29.5654022" lon="103.4277853"><ele>600.6</ele><time>2026-08-07T16:32:45.000Z</time></trkpt>
        <trkpt lat="29.5654075" lon="103.4276628"><ele>601.26</ele><time>2026-08-07T16:32:55.000Z</time></trkpt>
        <trkpt lat="29.5653678" lon="103.427558"><ele>601.57</ele><time>2026-08-07T16:33:03.000Z</time></trkpt>
        <trkpt lat="29.5653547" lon="103.4274459"><ele>602.08</ele><time>2026-08-07T16:33:11.000Z</time></trkpt>
        <trkpt lat="29.5652866" lon="103.4273613"><ele>604.68</ele><time>2026-08-07T16:33:19.000Z</time></trkpt>
        <trkpt lat="29.5652067" lon="103.427281"><ele>606.76</ele><time>2026-08-07T16:33:29.000Z</time></trkpt>
        <trkpt lat="29.5651817" lon="103.4271855"><ele>607.8</ele><time>2026-08-07T16:33:39.000Z</time></trkpt>
        <trkpt lat="29.5651277" lon="103.4270932"><ele>611.01</ele><time>2026-08-07T16:33:50.000Z</time></trkpt>
        <trkpt lat="29.5650479" lon="103.4270146"><ele>615.22</ele><time>2026-08-07T16:34:00.000Z</time></trkpt>
        <trkpt lat="29.5649692" lon="103.4269429"><ele>618.07</ele><time>2026-08-07T16:34:10.000Z</time></trkpt>
        <trkpt lat="29.5648978" lon="103.4268731"><ele>619.56</ele><time>2026-08-07T16:34:20.000Z</time></trkpt>
        <trkpt lat="29.5649018" lon="103.4267778"><ele>620.49</ele><time>2026-08-07T16:34:29.000Z</time></trkpt>
        <trkpt lat="29.5649254" lon="103.4266743"><ele>619.83</ele><time>2026-08-07T16:34:48.000Z</time></trkpt>
        <trkpt lat="29.5649548" lon="103.4265693"><ele>618.93</ele><time>2026-08-07T16:35:09.000Z</time></trkpt>
        <trkpt lat="29.5649988" lon="103.4264695"><ele>620.06</ele><time>2026-08-07T16:35:25.000Z</time></trkpt>
        <trkpt lat="29.5650326" lon="103.4263699"><ele>621.99</ele><time>2026-08-07T16:35:42.000Z</time></trkpt>
        <trkpt lat="29.5650548" lon="103.4262566"><ele>624.32</ele><time>2026-08-07T16:35:58.000Z</time></trkpt>
        <trkpt lat="29.5650594" lon="103.4262235"><ele>628.12</ele><time>2026-08-07T16:36:00.000Z</time></trkpt>
        <trkpt lat="29.5650789" lon="103.4261452"><ele>630.65</ele><time>2026-08-07T16:36:20.000Z</time></trkpt>
        <trkpt lat="29.5651004" lon="103.4260475"><ele>633.4</ele><time>2026-08-07T16:36:40.000Z</time></trkpt>
        <trkpt lat="29.5651135" lon="103.4259411"><ele>638.7</ele><time>2026-08-07T16:37:02.000Z</time></trkpt>
        <trkpt lat="29.5651422" lon="103.425832"><ele>642.56</ele><time>2026-08-07T16:37:22.000Z</time></trkpt>
        <trkpt lat="29.5651504" lon="103.4257179"><ele>647.25</ele><time>2026-08-07T16:37:58.000Z</time></trkpt>
        <trkpt lat="29.5651188" lon="103.4256136"><ele>650.08</ele><time>2026-08-07T16:38:08.000Z</time></trkpt>
        <trkpt lat="29.5650651" lon="103.4255186"><ele>652.85</ele><time>2026-08-07T16:38:16.000Z</time></trkpt>
        <trkpt lat="29.5650018" lon="103.4254305"><ele>654.99</ele><time>2026-08-07T16:38:28.000Z</time></trkpt>
        <trkpt lat="29.5649392" lon="103.4253355"><ele>656.95</ele><time>2026-08-07T16:38:38.000Z</time></trkpt>
        <trkpt lat="29.564855" lon="103.4252767"><ele>656.59</ele><time>2026-08-07T16:38:48.000Z</time></trkpt>
        <trkpt lat="29.5647756" lon="103.4251981"><ele>655.41</ele><time>2026-08-07T16:38:58.000Z</time></trkpt>
        <trkpt lat="29.5647518" lon="103.4250976"><ele>655.33</ele><time>2026-08-07T16:39:08.000Z</time></trkpt>
        <trkpt lat="29.5647478" lon="103.4249871"><ele>658.56</ele><time>2026-08-07T16:39:26.000Z</time></trkpt>
        <trkpt lat="29.5647153" lon="103.4248819"><ele>660.27</ele><time>2026-08-07T16:39:42.000Z</time></trkpt>
        <trkpt lat="29.5646816" lon="103.4247789"><ele>661.45</ele><time>2026-08-07T16:39:58.000Z</time></trkpt>
        <trkpt lat="29.5646799" lon="103.4246735"><ele>661.38</ele><time>2026-08-07T16:40:10.000Z</time></trkpt>
        <trkpt lat="29.5647233" lon="103.424582"><ele>662.78</ele><time>2026-08-07T16:40:22.000Z</time></trkpt>
        <trkpt lat="29.5647161" lon="103.4244738"><ele>663.53</ele><time>2026-08-07T16:40:32.000Z</time></trkpt>
        <trkpt lat="29.5646555" lon="103.424403"><ele>663.33</ele><time>2026-08-07T16:40:40.000Z</time></trkpt>
        <trkpt lat="29.5646058" lon="103.4243077"><ele>664.2</ele><time>2026-08-07T16:40:54.000Z</time></trkpt>
        <trkpt lat="29.5645688" lon="103.4242017"><ele>666.97</ele><time>2026-08-07T16:41:10.000Z</time></trkpt>
        <trkpt lat="29.5644995" lon="103.4241194"><ele>668.76</ele><time>2026-08-07T16:41:36.000Z</time></trkpt>
        <trkpt lat="29.5644349" lon="103.4240386"><ele>675.3</ele><time>2026-08-07T16:41:48.000Z</time></trkpt>
        <trkpt lat="29.5643758" lon="103.4239534"><ele>679.8</ele><time>2026-08-07T16:42:02.000Z</time></trkpt>
        <trkpt lat="29.5643446" lon="103.4238568"><ele>683.12</ele><time>2026-08-07T16:42:12.000Z</time></trkpt>
        <trkpt lat="29.5643364" lon="103.4237456"><ele>685.65</ele><time>2026-08-07T16:42:30.000Z</time></trkpt>
        <trkpt lat="29.5643426" lon="103.4236312"><ele>689.55</ele><time>2026-08-07T16:42:44.000Z</time></trkpt>
        <trkpt lat="29.5643836" lon="103.4235343"><ele>693.49</ele><time>2026-08-07T16:42:54.000Z</time></trkpt>
        <trkpt lat="29.5644158" lon="103.4234248"><ele>694.51</ele><time>2026-08-07T16:43:04.000Z</time></trkpt>
        <trkpt lat="29.5644544" lon="103.4233184"><ele>697.74</ele><time>2026-08-07T16:43:18.000Z</time></trkpt>
        <trkpt lat="29.5644667" lon="103.4232096"><ele>701.12</ele><time>2026-08-07T16:43:36.000Z</time></trkpt>
        <trkpt lat="29.5644698" lon="103.423103"><ele>705.17</ele><time>2026-08-07T16:43:54.000Z</time></trkpt>
        <trkpt lat="29.5645335" lon="103.423021"><ele>709.15</ele><time>2026-08-07T16:46:27.000Z</time></trkpt>
        <trkpt lat="29.5645289" lon="103.4229043"><ele>712.04</ele><time>2026-08-07T16:47:09.000Z</time></trkpt>
        <trkpt lat="29.5645296" lon="103.4227946"><ele>709.97</ele><time>2026-08-07T16:47:21.000Z</time></trkpt>
        <trkpt lat="29.5644785" lon="103.4227135"><ele>710.49</ele><time>2026-08-07T16:47:37.000Z</time></trkpt>
        <trkpt lat="29.5644297" lon="103.4226248"><ele>711.16</ele><time>2026-08-07T16:47:51.000Z</time></trkpt>
        <trkpt lat="29.5644354" lon="103.4225203"><ele>712.2</ele><time>2026-08-07T16:48:03.000Z</time></trkpt>
        <trkpt lat="29.5644129" lon="103.4224159"><ele>713.35</ele><time>2026-08-07T16:48:15.000Z</time></trkpt>
        <trkpt lat="29.564392" lon="103.4223082"><ele>714.2</ele><time>2026-08-07T16:48:31.000Z</time></trkpt>
        <trkpt lat="29.5643913" lon="103.4222014"><ele>717.06</ele><time>2026-08-07T16:48:47.000Z</time></trkpt>
        <trkpt lat="29.5643919" lon="103.4220918"><ele>719.1</ele><time>2026-08-07T16:48:59.000Z</time></trkpt>
        <trkpt lat="29.5643635" lon="103.4219882"><ele>723.2</ele><time>2026-08-07T16:49:15.000Z</time></trkpt>
        <trkpt lat="29.5643055" lon="103.421902"><ele>728.02</ele><time>2026-08-07T16:50:26.000Z</time></trkpt>
        <trkpt lat="29.5643907" lon="103.4218574"><ele>730.81</ele><time>2026-08-07T16:50:40.000Z</time></trkpt>
        <trkpt lat="29.5644398" lon="103.4217629"><ele>734.62</ele><time>2026-08-07T16:50:56.000Z</time></trkpt>
        <trkpt lat="29.5644193" lon="103.4216632"><ele>738.02</ele><time>2026-08-07T16:51:08.000Z</time></trkpt>
        <trkpt lat="29.5643745" lon="103.4215621"><ele>742.96</ele><time>2026-08-07T16:51:26.000Z</time></trkpt>
        <trkpt lat="29.5643296" lon="103.4214594"><ele>746.54</ele><time>2026-08-07T16:51:42.000Z</time></trkpt>
        <trkpt lat="29.5642981" lon="103.4213525"><ele>751.08</ele><time>2026-08-07T16:51:56.000Z</time></trkpt>
        <trkpt lat="29.5643581" lon="103.4213075"><ele>754.77</ele><time>2026-08-07T16:52:06.000Z</time></trkpt>
        <trkpt lat="29.5644536" lon="103.4212674"><ele>756.5</ele><time>2026-08-07T16:52:16.000Z</time></trkpt>
        <trkpt lat="29.5645381" lon="103.4212108"><ele>756.99</ele><time>2026-08-07T16:52:28.000Z</time></trkpt>
        <trkpt lat="29.5646189" lon="103.4211354"><ele>760.05</ele><time>2026-08-07T16:52:38.000Z</time></trkpt>
        <trkpt lat="29.5646792" lon="103.4210416"><ele>761.76</ele><time>2026-08-07T16:52:49.000Z</time></trkpt>
        <trkpt lat="29.5647326" lon="103.4210954"><ele>764.11</ele><time>2026-08-07T16:52:59.000Z</time></trkpt>
        <trkpt lat="29.5647847" lon="103.4211914"><ele>764.94</ele><time>2026-08-07T16:53:09.000Z</time></trkpt>
        <trkpt lat="29.5648579" lon="103.4212874"><ele>768.02</ele><time>2026-08-07T16:53:21.000Z</time></trkpt>
        <trkpt lat="29.5649056" lon="103.4213947"><ele>769.15</ele><time>2026-08-07T16:53:35.000Z</time></trkpt>
        <trkpt lat="29.5649713" lon="103.4213742"><ele>772.16</ele><time>2026-08-07T16:53:49.000Z</time></trkpt>
        <trkpt lat="29.5650569" lon="103.4213732"><ele>773.86</ele><time>2026-08-07T16:54:13.000Z</time></trkpt>
        <trkpt lat="29.5651501" lon="103.421354"><ele>779.34</ele><time>2026-08-07T16:54:23.000Z</time></trkpt>
        <trkpt lat="29.5652384" lon="103.4213069"><ele>783.44</ele><time>2026-08-07T16:54:37.000Z</time></trkpt>
        <trkpt lat="29.5653184" lon="103.4212416"><ele>784.32</ele><time>2026-08-07T16:54:55.000Z</time></trkpt>
        <trkpt lat="29.5653969" lon="103.4211615"><ele>786.63</ele><time>2026-08-07T16:56:08.000Z</time></trkpt>
        <trkpt lat="29.5654898" lon="103.4211304"><ele>790.08</ele><time>2026-08-07T16:56:22.000Z</time></trkpt>
        <trkpt lat="29.5655941" lon="103.4210944"><ele>792.47</ele><time>2026-08-07T16:56:32.000Z</time></trkpt>
        <trkpt lat="29.5656847" lon="103.4210604"><ele>793.94</ele><time>2026-08-07T16:56:40.000Z</time></trkpt>
        <trkpt lat="29.5657769" lon="103.4210706"><ele>795.21</ele><time>2026-08-07T16:56:50.000Z</time></trkpt>
        <trkpt lat="29.5658745" lon="103.4210826"><ele>796.88</ele><time>2026-08-07T16:57:00.000Z</time></trkpt>
        <trkpt lat="29.5659741" lon="103.4211005"><ele>797.71</ele><time>2026-08-07T16:57:12.000Z</time></trkpt>
        <trkpt lat="29.5660676" lon="103.4211197"><ele>799.34</ele><time>2026-08-07T16:57:26.000Z</time></trkpt>
        <trkpt lat="29.5661623" lon="103.4211185"><ele>801.66</ele><time>2026-08-07T16:57:42.000Z</time></trkpt>
        <trkpt lat="29.5662432" lon="103.4210733"><ele>803.47</ele><time>2026-08-07T16:57:52.000Z</time></trkpt>
        <trkpt lat="29.5662142" lon="103.4209526"><ele>805.12</ele><time>2026-08-07T17:02:28.000Z</time></trkpt>
        <trkpt lat="29.5662652" lon="103.4208477"><ele>806.28</ele><time>2026-08-07T17:02:36.000Z</time></trkpt>
        <trkpt lat="29.5663118" lon="103.4207355"><ele>806.67</ele><time>2026-08-07T17:02:44.000Z</time></trkpt>
        <trkpt lat="29.5662981" lon="103.4206245"><ele>807.17</ele><time>2026-08-07T17:02:52.000Z</time></trkpt>
        <trkpt lat="29.5663233" lon="103.4205179"><ele>808.51</ele><time>2026-08-07T17:03:02.000Z</time></trkpt>
        <trkpt lat="29.5663518" lon="103.4204797"><ele>808.86</ele><time>2026-08-07T17:03:10.000Z</time></trkpt>
        <trkpt lat="29.5664046" lon="103.4204119"><ele>807.85</ele><time>2026-08-07T17:03:24.000Z</time></trkpt>
        <trkpt lat="29.5664557" lon="103.4203225"><ele>806.03</ele><time>2026-08-07T17:03:34.000Z</time></trkpt>
        <trkpt lat="29.5665319" lon="103.4202375"><ele>804.44</ele><time>2026-08-07T17:03:44.000Z</time></trkpt>
        <trkpt lat="29.5665971" lon="103.420149"><ele>803.49</ele><time>2026-08-07T17:03:52.000Z</time></trkpt>
        <trkpt lat="29.5666435" lon="103.4200395"><ele>803.91</ele><time>2026-08-07T17:04:04.000Z</time></trkpt>
        <trkpt lat="29.5666863" lon="103.4199385"><ele>805.21</ele><time>2026-08-07T17:04:14.000Z</time></trkpt>
        <trkpt lat="29.566692" lon="103.4198204"><ele>807.5</ele><time>2026-08-07T17:04:22.000Z</time></trkpt>
        <trkpt lat="29.5667611" lon="103.4198186"><ele>807.66</ele><time>2026-08-07T17:04:34.000Z</time></trkpt>
        <trkpt lat="29.5668427" lon="103.4198728"><ele>808.49</ele><time>2026-08-07T17:04:50.000Z</time></trkpt>
        <trkpt lat="29.5669211" lon="103.4199545"><ele>810.02</ele><time>2026-08-07T17:05:16.000Z</time></trkpt>
        <trkpt lat="29.5669317" lon="103.4199994"><ele>811.57</ele><time>2026-08-07T17:05:22.000Z</time></trkpt>
        <trkpt lat="29.5669857" lon="103.4200531"><ele>813.35</ele><time>2026-08-07T17:06:10.000Z</time></trkpt>
        <trkpt lat="29.5670062" lon="103.4201501"><ele>814.76</ele><time>2026-08-07T17:06:26.000Z</time></trkpt>
        <trkpt lat="29.567014" lon="103.4202619"><ele>816.85</ele><time>2026-08-07T17:06:36.000Z</time></trkpt>
        <trkpt lat="29.5670616" lon="103.4203606"><ele>818.17</ele><time>2026-08-07T17:07:14.000Z</time></trkpt>
        <trkpt lat="29.5671306" lon="103.4204383"><ele>819.86</ele><time>2026-08-07T17:07:32.000Z</time></trkpt>
        <trkpt lat="29.5672271" lon="103.4204732"><ele>821.35</ele><time>2026-08-07T17:08:20.000Z</time></trkpt>
        <trkpt lat="29.5673285" lon="103.4204688"><ele>823.85</ele><time>2026-08-07T17:08:36.000Z</time></trkpt>
        <trkpt lat="29.567428" lon="103.4204474"><ele>828.53</ele><time>2026-08-07T17:08:54.000Z</time></trkpt>
        <trkpt lat="29.5675124" lon="103.4203879"><ele>832.23</ele><time>2026-08-07T17:09:12.000Z</time></trkpt>
        <trkpt lat="29.5675978" lon="103.4203385"><ele>835.73</ele><time>2026-08-07T17:09:28.000Z</time></trkpt>
        <trkpt lat="29.5676772" lon="103.4202764"><ele>839.33</ele><time>2026-08-07T17:09:46.000Z</time></trkpt>
        <trkpt lat="29.5677686" lon="103.4202322"><ele>843.12</ele><time>2026-08-07T17:10:04.000Z</time></trkpt>
        <trkpt lat="29.5678582" lon="103.4201925"><ele>846.24</ele><time>2026-08-07T17:10:20.000Z</time></trkpt>
        <trkpt lat="29.5679461" lon="103.4201451"><ele>849.26</ele><time>2026-08-07T17:10:40.000Z</time></trkpt>
        <trkpt lat="29.5680353" lon="103.4201195"><ele>852.13</ele><time>2026-08-07T17:11:00.000Z</time></trkpt>
        <trkpt lat="29.5681231" lon="103.4200888"><ele>856.25</ele><time>2026-08-07T17:11:18.000Z</time></trkpt>
        <trkpt lat="29.568213" lon="103.4200827"><ele>860.08</ele><time>2026-08-07T17:11:36.000Z</time></trkpt>
        <trkpt lat="29.5683054" lon="103.4200645"><ele>863.44</ele><time>2026-08-07T17:11:54.000Z</time></trkpt>
        <trkpt lat="29.5684106" lon="103.420055"><ele>867.91</ele><time>2026-08-07T17:12:11.000Z</time></trkpt>
        <trkpt lat="29.5685111" lon="103.4200427"><ele>870.5</ele><time>2026-08-07T17:12:34.000Z</time></trkpt>
        <trkpt lat="29.5686083" lon="103.4200439"><ele>875.44</ele><time>2026-08-07T17:12:52.000Z</time></trkpt>
        <trkpt lat="29.5687086" lon="103.4200344"><ele>879.54</ele><time>2026-08-07T17:13:06.000Z</time></trkpt>
        <trkpt lat="29.5687981" lon="103.4200027"><ele>883.63</ele><time>2026-08-07T17:13:16.000Z</time></trkpt>
        <trkpt lat="29.5688803" lon="103.4199475"><ele>887.11</ele><time>2026-08-07T17:13:24.000Z</time></trkpt>
        <trkpt lat="29.5689789" lon="103.4199148"><ele>888.52</ele><time>2026-08-07T17:13:42.000Z</time></trkpt>
        <trkpt lat="29.5690543" lon="103.4198378"><ele>890.19</ele><time>2026-08-07T17:13:50.000Z</time></trkpt>
        <trkpt lat="29.5691569" lon="103.41979"><ele>891.78</ele><time>2026-08-07T17:14:01.000Z</time></trkpt>
        <trkpt lat="29.5692593" lon="103.4197607"><ele>892.68</ele><time>2026-08-07T17:14:11.000Z</time></trkpt>
        <trkpt lat="29.5693568" lon="103.4197183"><ele>894.37</ele><time>2026-08-07T17:14:27.000Z</time></trkpt>
        <trkpt lat="29.569463" lon="103.4197003"><ele>893.24</ele><time>2026-08-07T17:14:43.000Z</time></trkpt>
        <trkpt lat="29.5695298" lon="103.419634"><ele>894.14</ele><time>2026-08-07T17:14:49.000Z</time></trkpt>
        <trkpt lat="29.5696" lon="103.4195579"><ele>891.93</ele><time>2026-08-07T17:14:59.000Z</time></trkpt>
        <trkpt lat="29.5696526" lon="103.4194702"><ele>893.16</ele><time>2026-08-07T17:15:09.000Z</time></trkpt>
        <trkpt lat="29.5697179" lon="103.4193814"><ele>891.42</ele><time>2026-08-07T17:15:19.000Z</time></trkpt>
        <trkpt lat="29.5697211" lon="103.4193472"><ele>888.76</ele><time>2026-08-07T17:15:21.000Z</time></trkpt>
        <trkpt lat="29.5697358" lon="103.4192523"><ele>887.49</ele><time>2026-08-07T17:15:57.000Z</time></trkpt>
        <trkpt lat="29.5697531" lon="103.4191368"><ele>888.11</ele><time>2026-08-07T17:16:07.000Z</time></trkpt>
        <trkpt lat="29.5697471" lon="103.4190249"><ele>887.56</ele><time>2026-08-07T17:16:15.000Z</time></trkpt>
        <trkpt lat="29.5697566" lon="103.4188976"><ele>887.31</ele><time>2026-08-07T17:16:25.000Z</time></trkpt>
        <trkpt lat="29.569758" lon="103.4187776"><ele>887.16</ele><time>2026-08-07T17:16:35.000Z</time></trkpt>
        <trkpt lat="29.569768" lon="103.4186704"><ele>887.69</ele><time>2026-08-07T17:16:43.000Z</time></trkpt>
        <trkpt lat="29.5697956" lon="103.418554"><ele>887.51</ele><time>2026-08-07T17:16:53.000Z</time></trkpt>
        <trkpt lat="29.5698462" lon="103.4184338"><ele>886.11</ele><time>2026-08-07T17:17:07.000Z</time></trkpt>
        <trkpt lat="29.5698306" lon="103.4183268"><ele>887.16</ele><time>2026-08-07T17:17:15.000Z</time></trkpt>
        <trkpt lat="29.5698554" lon="103.4182151"><ele>887.64</ele><time>2026-08-07T17:17:23.000Z</time></trkpt>
        <trkpt lat="29.5698932" lon="103.418109"><ele>886.23</ele><time>2026-08-07T17:17:31.000Z</time></trkpt>
        <trkpt lat="29.5699455" lon="103.4180038"><ele>887.53</ele><time>2026-08-07T17:17:41.000Z</time></trkpt>
        <trkpt lat="29.5699772" lon="103.417892"><ele>886.07</ele><time>2026-08-07T17:17:53.000Z</time></trkpt>
        <trkpt lat="29.5700226" lon="103.4177983"><ele>883.73</ele><time>2026-08-07T17:18:01.000Z</time></trkpt>
        <trkpt lat="29.5700337" lon="103.4176809"><ele>883.11</ele><time>2026-08-07T17:18:09.000Z</time></trkpt>
        <trkpt lat="29.5700278" lon="103.4175672"><ele>881.9</ele><time>2026-08-07T17:18:17.000Z</time></trkpt>
        <trkpt lat="29.5700235" lon="103.4174457"><ele>881.6</ele><time>2026-08-07T17:18:27.000Z</time></trkpt>
        <trkpt lat="29.5700452" lon="103.4173225"><ele>881.51</ele><time>2026-08-07T17:18:37.000Z</time></trkpt>
        <trkpt lat="29.5700807" lon="103.4171989"><ele>881.31</ele><time>2026-08-07T17:18:47.000Z</time></trkpt>
        <trkpt lat="29.5701359" lon="103.4170908"><ele>880.45</ele><time>2026-08-07T17:18:57.000Z</time></trkpt>
        <trkpt lat="29.5702344" lon="103.4170672"><ele>881.75</ele><time>2026-08-07T17:19:07.000Z</time></trkpt>
        <trkpt lat="29.5703372" lon="103.417067"><ele>882.97</ele><time>2026-08-07T17:19:17.000Z</time></trkpt>
        <trkpt lat="29.570402" lon="103.4169952"><ele>881.62</ele><time>2026-08-07T17:19:27.000Z</time></trkpt>
        <trkpt lat="29.5703993" lon="103.4168783"><ele>881.52</ele><time>2026-08-07T17:19:37.000Z</time></trkpt>
        <trkpt lat="29.5703722" lon="103.4167616"><ele>880.69</ele><time>2026-08-07T17:19:45.000Z</time></trkpt>
        <trkpt lat="29.5703699" lon="103.4166417"><ele>881.01</ele><time>2026-08-07T17:19:51.000Z</time></trkpt>
        <trkpt lat="29.570367" lon="103.4165305"><ele>880.9</ele><time>2026-08-07T17:20:03.000Z</time></trkpt>
        <trkpt lat="29.5703909" lon="103.4164051"><ele>879.78</ele><time>2026-08-07T17:20:11.000Z</time></trkpt>
        <trkpt lat="29.5703982" lon="103.4162885"><ele>878.46</ele><time>2026-08-07T17:20:19.000Z</time></trkpt>
        <trkpt lat="29.5704316" lon="103.4161911"><ele>876.95</ele><time>2026-08-07T17:20:27.000Z</time></trkpt>
        <trkpt lat="29.5705126" lon="103.4161548"><ele>875.52</ele><time>2026-08-07T17:20:37.000Z</time></trkpt>
        <trkpt lat="29.5706005" lon="103.416117"><ele>875.49</ele><time>2026-08-07T17:20:47.000Z</time></trkpt>
        <trkpt lat="29.5706925" lon="103.4160875"><ele>876.15</ele><time>2026-08-07T17:21:01.000Z</time></trkpt>
        <trkpt lat="29.5707658" lon="103.41602"><ele>881.15</ele><time>2026-08-07T17:21:21.000Z</time></trkpt>
        <trkpt lat="29.5707341" lon="103.4159357"><ele>882.88</ele><time>2026-08-07T17:21:35.000Z</time></trkpt>
        <trkpt lat="29.5706531" lon="103.4158527"><ele>883.48</ele><time>2026-08-07T17:21:43.000Z</time></trkpt>
        <trkpt lat="29.5705601" lon="103.4157922"><ele>882.93</ele><time>2026-08-07T17:21:53.000Z</time></trkpt>
        <trkpt lat="29.5704579" lon="103.415733"><ele>884.02</ele><time>2026-08-07T17:22:03.000Z</time></trkpt>
        <trkpt lat="29.570391" lon="103.4156441"><ele>883.71</ele><time>2026-08-07T17:22:11.000Z</time></trkpt>
        <trkpt lat="29.5703108" lon="103.4155696"><ele>884.34</ele><time>2026-08-07T17:22:21.000Z</time></trkpt>
        <trkpt lat="29.5702218" lon="103.4155293"><ele>882.99</ele><time>2026-08-07T17:22:31.000Z</time></trkpt>
        <trkpt lat="29.5701233" lon="103.4155202"><ele>883.38</ele><time>2026-08-07T17:22:43.000Z</time></trkpt>
        <trkpt lat="29.5700329" lon="103.4154884"><ele>885.01</ele><time>2026-08-07T17:22:57.000Z</time></trkpt>
        <trkpt lat="29.5699578" lon="103.4154201"><ele>886.93</ele><time>2026-08-07T17:23:09.000Z</time></trkpt>
        <trkpt lat="29.5699008" lon="103.4153308"><ele>889.08</ele><time>2026-08-07T17:23:19.000Z</time></trkpt>
        <trkpt lat="29.5698714" lon="103.4152222"><ele>890.89</ele><time>2026-08-07T17:23:29.000Z</time></trkpt>
        <trkpt lat="29.5698714" lon="103.4151044"><ele>891.67</ele><time>2026-08-07T17:23:39.000Z</time></trkpt>
        <trkpt lat="29.5698753" lon="103.4149874"><ele>890.42</ele><time>2026-08-07T17:23:49.000Z</time></trkpt>
        <trkpt lat="29.5698337" lon="103.4148747"><ele>890.32</ele><time>2026-08-07T17:23:59.000Z</time></trkpt>
        <trkpt lat="29.5697612" lon="103.4147768"><ele>890.08</ele><time>2026-08-07T17:24:09.000Z</time></trkpt>
        <trkpt lat="29.5696761" lon="103.4147013"><ele>889.97</ele><time>2026-08-07T17:24:19.000Z</time></trkpt>
        <trkpt lat="29.5695668" lon="103.4146806"><ele>889.23</ele><time>2026-08-07T17:24:29.000Z</time></trkpt>
        <trkpt lat="29.5694692" lon="103.4147171"><ele>889.22</ele><time>2026-08-07T17:24:37.000Z</time></trkpt>
        <trkpt lat="29.5693709" lon="103.4147728"><ele>889.24</ele><time>2026-08-07T17:24:47.000Z</time></trkpt>
        <trkpt lat="29.5692756" lon="103.4148331"><ele>889.82</ele><time>2026-08-07T17:24:59.000Z</time></trkpt>
        <trkpt lat="29.5692064" lon="103.4147923"><ele>888.5</ele><time>2026-08-07T17:25:09.000Z</time></trkpt>
        <trkpt lat="29.5691526" lon="103.4147086"><ele>886.92</ele><time>2026-08-07T17:25:17.000Z</time></trkpt>
        <trkpt lat="29.5691076" lon="103.4145972"><ele>885.29</ele><time>2026-08-07T17:25:25.000Z</time></trkpt>
        <trkpt lat="29.5690734" lon="103.4144874"><ele>884.14</ele><time>2026-08-07T17:25:33.000Z</time></trkpt>
        <trkpt lat="29.5690883" lon="103.414374"><ele>883.25</ele><time>2026-08-07T17:25:41.000Z</time></trkpt>
        <trkpt lat="29.5691048" lon="103.4142629"><ele>882.81</ele><time>2026-08-07T17:25:49.000Z</time></trkpt>
        <trkpt lat="29.5691147" lon="103.4141529"><ele>883.56</ele><time>2026-08-07T17:25:57.000Z</time></trkpt>
        <trkpt lat="29.5691054" lon="103.4140348"><ele>883.48</ele><time>2026-08-07T17:26:07.000Z</time></trkpt>
        <trkpt lat="29.5691389" lon="103.4139232"><ele>883</ele><time>2026-08-07T17:26:17.000Z</time></trkpt>
        <trkpt lat="29.5691514" lon="103.4138798"><ele>882.99</ele><time>2026-08-07T17:26:27.000Z</time></trkpt>
        <trkpt lat="29.5691449" lon="103.4137918"><ele>883.87</ele><time>2026-08-07T17:30:01.000Z</time></trkpt>
        <trkpt lat="29.5690733" lon="103.4137124"><ele>885.09</ele><time>2026-08-07T17:30:11.000Z</time></trkpt>
        <trkpt lat="29.5690392" lon="103.4135946"><ele>883.45</ele><time>2026-08-07T17:30:19.000Z</time></trkpt>
        <trkpt lat="29.5689913" lon="103.4134984"><ele>884.15</ele><time>2026-08-07T17:30:29.000Z</time></trkpt>
        <trkpt lat="29.568961" lon="103.4133966"><ele>883.81</ele><time>2026-08-07T17:30:43.000Z</time></trkpt>
        <trkpt lat="29.5689532" lon="103.4132902"><ele>882.01</ele><time>2026-08-07T17:30:53.000Z</time></trkpt>
        <trkpt lat="29.5689349" lon="103.4131876"><ele>879.92</ele><time>2026-08-07T17:31:01.000Z</time></trkpt>
        <trkpt lat="29.5689725" lon="103.4130839"><ele>876.44</ele><time>2026-08-07T17:31:11.000Z</time></trkpt>
        <trkpt lat="29.5690409" lon="103.412992"><ele>875.23</ele><time>2026-08-07T17:31:21.000Z</time></trkpt>
        <trkpt lat="29.5691254" lon="103.4129122"><ele>876.2</ele><time>2026-08-07T17:31:31.000Z</time></trkpt>
        <trkpt lat="29.5691928" lon="103.4128293"><ele>876</ele><time>2026-08-07T17:31:41.000Z</time></trkpt>
        <trkpt lat="29.5692726" lon="103.412754"><ele>875.72</ele><time>2026-08-07T17:31:51.000Z</time></trkpt>
        <trkpt lat="29.5693615" lon="103.4127016"><ele>874.98</ele><time>2026-08-07T17:31:59.000Z</time></trkpt>
        <trkpt lat="29.5693919" lon="103.4126032"><ele>875.84</ele><time>2026-08-07T17:32:11.000Z</time></trkpt>
        <trkpt lat="29.5693674" lon="103.4124946"><ele>876.35</ele><time>2026-08-07T17:32:21.000Z</time></trkpt>
        <trkpt lat="29.5693501" lon="103.4123755"><ele>876.6</ele><time>2026-08-07T17:32:33.000Z</time></trkpt>
        <trkpt lat="29.5693202" lon="103.4122607"><ele>877.17</ele><time>2026-08-07T17:32:51.000Z</time></trkpt>
        <trkpt lat="29.5692652" lon="103.4121718"><ele>874.91</ele><time>2026-08-07T17:33:15.000Z</time></trkpt>
        <trkpt lat="29.569178" lon="103.4121362"><ele>870.56</ele><time>2026-08-07T17:33:27.000Z</time></trkpt>
        <trkpt lat="29.5690746" lon="103.4121205"><ele>869.25</ele><time>2026-08-07T17:33:41.000Z</time></trkpt>
        <trkpt lat="29.5689926" lon="103.4120687"><ele>867.37</ele><time>2026-08-07T17:33:57.000Z</time></trkpt>
        <trkpt lat="29.5689207" lon="103.4119983"><ele>865.03</ele><time>2026-08-07T17:34:07.000Z</time></trkpt>
        <trkpt lat="29.5688688" lon="103.41191"><ele>864.49</ele><time>2026-08-07T17:34:19.000Z</time></trkpt>
        <trkpt lat="29.5688016" lon="103.4118232"><ele>861.53</ele><time>2026-08-07T17:34:29.000Z</time></trkpt>
        <trkpt lat="29.5687028" lon="103.411801"><ele>858.96</ele><time>2026-08-07T17:34:39.000Z</time></trkpt>
        <trkpt lat="29.5686059" lon="103.4118015"><ele>855.86</ele><time>2026-08-07T17:34:49.000Z</time></trkpt>
        <trkpt lat="29.5685264" lon="103.4117545"><ele>853.61</ele><time>2026-08-07T17:35:03.000Z</time></trkpt>
        <trkpt lat="29.5684514" lon="103.4116884"><ele>852.67</ele><time>2026-08-07T17:35:21.000Z</time></trkpt>
        <trkpt lat="29.5684046" lon="103.4115893"><ele>849.03</ele><time>2026-08-07T17:35:31.000Z</time></trkpt>
        <trkpt lat="29.568346" lon="103.4114856"><ele>846.59</ele><time>2026-08-07T17:35:43.000Z</time></trkpt>
        <trkpt lat="29.5683289" lon="103.4114678"><ele>844.77</ele><time>2026-08-07T17:35:47.000Z</time></trkpt>
        <trkpt lat="29.5683647" lon="103.4113813"><ele>844.07</ele><time>2026-08-07T17:36:07.000Z</time></trkpt>
        <trkpt lat="29.56842" lon="103.4112759"><ele>843.29</ele><time>2026-08-07T17:36:18.000Z</time></trkpt>
        <trkpt lat="29.5684734" lon="103.4111633"><ele>843.03</ele><time>2026-08-07T17:36:28.000Z</time></trkpt>
        <trkpt lat="29.5684988" lon="103.4110419"><ele>842.08</ele><time>2026-08-07T17:36:38.000Z</time></trkpt>
        <trkpt lat="29.5685313" lon="103.4109328"><ele>842.19</ele><time>2026-08-07T17:36:48.000Z</time></trkpt>
        <trkpt lat="29.5685714" lon="103.4108245"><ele>840.93</ele><time>2026-08-07T17:36:58.000Z</time></trkpt>
        <trkpt lat="29.5686176" lon="103.4107295"><ele>840.19</ele><time>2026-08-07T17:37:08.000Z</time></trkpt>
        <trkpt lat="29.5686238" lon="103.4106283"><ele>839.96</ele><time>2026-08-07T17:37:16.000Z</time></trkpt>
        <trkpt lat="29.5686272" lon="103.4105178"><ele>838.32</ele><time>2026-08-07T17:37:26.000Z</time></trkpt>
        <trkpt lat="29.5686371" lon="103.410394"><ele>836.54</ele><time>2026-08-07T17:37:36.000Z</time></trkpt>
        <trkpt lat="29.5686286" lon="103.4102725"><ele>834.79</ele><time>2026-08-07T17:37:44.000Z</time></trkpt>
        <trkpt lat="29.5686236" lon="103.4101627"><ele>834.18</ele><time>2026-08-07T17:37:52.000Z</time></trkpt>
        <trkpt lat="29.5686076" lon="103.4100477"><ele>833.51</ele><time>2026-08-07T17:38:02.000Z</time></trkpt>
        <trkpt lat="29.5685465" lon="103.4099496"><ele>832.71</ele><time>2026-08-07T17:38:12.000Z</time></trkpt>
        <trkpt lat="29.5684584" lon="103.4099125"><ele>831.45</ele><time>2026-08-07T17:38:24.000Z</time></trkpt>
        <trkpt lat="29.568366" lon="103.4098665"><ele>829.96</ele><time>2026-08-07T17:38:36.000Z</time></trkpt>
        <trkpt lat="29.5683194" lon="103.4097789"><ele>829.22</ele><time>2026-08-07T17:38:46.000Z</time></trkpt>
        <trkpt lat="29.5682727" lon="103.4096873"><ele>827.39</ele><time>2026-08-07T17:39:00.000Z</time></trkpt>
        <trkpt lat="29.568252" lon="103.4095837"><ele>825.9</ele><time>2026-08-07T17:39:12.000Z</time></trkpt>
        <trkpt lat="29.5681999" lon="103.4094957"><ele>825.51</ele><time>2026-08-07T17:39:28.000Z</time></trkpt>
        <trkpt lat="29.5681548" lon="103.409398"><ele>822.86</ele><time>2026-08-07T17:39:42.000Z</time></trkpt>
        <trkpt lat="29.5681105" lon="103.4093043"><ele>819.44</ele><time>2026-08-07T17:39:56.000Z</time></trkpt>
        <trkpt lat="29.5680898" lon="103.4091787"><ele>815.71</ele><time>2026-08-07T17:40:10.000Z</time></trkpt>
        <trkpt lat="29.5680445" lon="103.4090754"><ele>812.03</ele><time>2026-08-07T17:40:28.000Z</time></trkpt>
        <trkpt lat="29.5679858" lon="103.4089878"><ele>810.14</ele><time>2026-08-07T17:40:42.000Z</time></trkpt>
        <trkpt lat="29.5679205" lon="103.4089044"><ele>807.41</ele><time>2026-08-07T17:40:52.000Z</time></trkpt>
        <trkpt lat="29.5678825" lon="103.408791"><ele>804.44</ele><time>2026-08-07T17:41:20.000Z</time></trkpt>
        <trkpt lat="29.567858" lon="103.4086739"><ele>801.37</ele><time>2026-08-07T17:41:30.000Z</time></trkpt>
        <trkpt lat="29.5678017" lon="103.4085801"><ele>798.08</ele><time>2026-08-07T17:41:38.000Z</time></trkpt>
        <trkpt lat="29.5677525" lon="103.4084906"><ele>795.41</ele><time>2026-08-07T17:41:54.000Z</time></trkpt>
        <trkpt lat="29.5676805" lon="103.4084214"><ele>792.79</ele><time>2026-08-07T17:42:08.000Z</time></trkpt>
        <trkpt lat="29.5676002" lon="103.4084542"><ele>789.49</ele><time>2026-08-07T17:42:28.000Z</time></trkpt>
        <trkpt lat="29.5675492" lon="103.4085581"><ele>786.74</ele><time>2026-08-07T17:42:42.000Z</time></trkpt>
        <trkpt lat="29.5674659" lon="103.4086235"><ele>783.52</ele><time>2026-08-07T17:42:52.000Z</time></trkpt>
        <trkpt lat="29.5673724" lon="103.4086152"><ele>781.76</ele><time>2026-08-07T17:43:00.000Z</time></trkpt>
        <trkpt lat="29.5672838" lon="103.4085724"><ele>780.14</ele><time>2026-08-07T17:43:08.000Z</time></trkpt>
        <trkpt lat="29.5671951" lon="103.4085099"><ele>778.72</ele><time>2026-08-07T17:43:18.000Z</time></trkpt>
        <trkpt lat="29.5671019" lon="103.4084767"><ele>777.45</ele><time>2026-08-07T17:43:30.000Z</time></trkpt>
        <trkpt lat="29.5669979" lon="103.4084625"><ele>776.79</ele><time>2026-08-07T17:43:40.000Z</time></trkpt>
        <trkpt lat="29.5668897" lon="103.408455"><ele>776.19</ele><time>2026-08-07T17:43:50.000Z</time></trkpt>
        <trkpt lat="29.5667893" lon="103.4084448"><ele>775.76</ele><time>2026-08-07T17:43:58.000Z</time></trkpt>
        <trkpt lat="29.5666953" lon="103.4083897"><ele>775.45</ele><time>2026-08-07T17:44:08.000Z</time></trkpt>
        <trkpt lat="29.5666572" lon="103.4082905"><ele>773.76</ele><time>2026-08-07T17:44:16.000Z</time></trkpt>
        <trkpt lat="29.5666659" lon="103.4081658"><ele>773.92</ele><time>2026-08-07T17:44:26.000Z</time></trkpt>
        <trkpt lat="29.5666833" lon="103.4080408"><ele>774.79</ele><time>2026-08-07T17:44:36.000Z</time></trkpt>
        <trkpt lat="29.5666804" lon="103.4079272"><ele>775.09</ele><time>2026-08-07T17:44:46.000Z</time></trkpt>
        <trkpt lat="29.566657" lon="103.4078216"><ele>775.35</ele><time>2026-08-07T17:44:54.000Z</time></trkpt>
        <trkpt lat="29.5666481" lon="103.4077126"><ele>774.78</ele><time>2026-08-07T17:45:04.000Z</time></trkpt>
        <trkpt lat="29.5666906" lon="103.4076179"><ele>774.8</ele><time>2026-08-07T17:45:14.000Z</time></trkpt>
        <trkpt lat="29.5667284" lon="103.4075843"><ele>775.72</ele><time>2026-08-07T17:45:16.000Z</time></trkpt>
        <trkpt lat="29.5667523" lon="103.4074735"><ele>776.37</ele><time>2026-08-07T17:45:58.000Z</time></trkpt>
        <trkpt lat="29.5666122" lon="103.4075616"><ele>776.08</ele><time>2026-08-07T17:46:06.000Z</time></trkpt>
        <trkpt lat="29.5665792" lon="103.4076086"><ele>779.47</ele><time>2026-08-07T17:46:12.000Z</time></trkpt>
        <trkpt lat="29.5665393" lon="103.4075582"><ele>781.68</ele><time>2026-08-07T17:46:36.000Z</time></trkpt>
        <trkpt lat="29.5664939" lon="103.4074595"><ele>780.52</ele><time>2026-08-07T17:46:46.000Z</time></trkpt>
        <trkpt lat="29.5664605" lon="103.407349"><ele>779.3</ele><time>2026-08-07T17:46:54.000Z</time></trkpt>
        <trkpt lat="29.5664417" lon="103.4072307"><ele>778.92</ele><time>2026-08-07T17:47:04.000Z</time></trkpt>
        <trkpt lat="29.5664193" lon="103.4071074"><ele>778.05</ele><time>2026-08-07T17:47:16.000Z</time></trkpt>
        <trkpt lat="29.5664154" lon="103.406991"><ele>777.21</ele><time>2026-08-07T17:47:26.000Z</time></trkpt>
        <trkpt lat="29.566428" lon="103.406884"><ele>777</ele><time>2026-08-07T17:47:34.000Z</time></trkpt>
        <trkpt lat="29.5664723" lon="103.4067872"><ele>776.61</ele><time>2026-08-07T17:47:42.000Z</time></trkpt>
        <trkpt lat="29.5665536" lon="103.4067581"><ele>776.14</ele><time>2026-08-07T17:47:52.000Z</time></trkpt>
        <trkpt lat="29.5666337" lon="103.4066896"><ele>775.47</ele><time>2026-08-07T17:48:33.000Z</time></trkpt>
        <trkpt lat="29.5667042" lon="103.4066134"><ele>774.97</ele><time>2026-08-07T17:48:41.000Z</time></trkpt>
        <trkpt lat="29.5667852" lon="103.4065321"><ele>774.23</ele><time>2026-08-07T17:48:51.000Z</time></trkpt>
        <trkpt lat="29.5668672" lon="103.4064493"><ele>773</ele><time>2026-08-07T17:49:03.000Z</time></trkpt>
        <trkpt lat="29.566923" lon="103.4063844"><ele>772.53</ele><time>2026-08-07T17:49:13.000Z</time></trkpt>
        <trkpt lat="29.5669578" lon="103.406287"><ele>771.55</ele><time>2026-08-07T17:49:47.000Z</time></trkpt>
        <trkpt lat="29.5669984" lon="103.40619"><ele>770.76</ele><time>2026-08-07T17:49:55.000Z</time></trkpt>
        <trkpt lat="29.5670244" lon="103.4060767"><ele>770.26</ele><time>2026-08-07T17:50:03.000Z</time></trkpt>
        <trkpt lat="29.5670713" lon="103.4059839"><ele>770.86</ele><time>2026-08-07T17:50:11.000Z</time></trkpt>
        <trkpt lat="29.5671305" lon="103.405889"><ele>771.17</ele><time>2026-08-07T17:50:21.000Z</time></trkpt>
        <trkpt lat="29.5671409" lon="103.4057817"><ele>770.65</ele><time>2026-08-07T17:50:31.000Z</time></trkpt>
        <trkpt lat="29.5670736" lon="103.405693"><ele>769.43</ele><time>2026-08-07T17:50:41.000Z</time></trkpt>
        <trkpt lat="29.5669863" lon="103.4056127"><ele>767.35</ele><time>2026-08-07T17:50:50.000Z</time></trkpt>
        <trkpt lat="29.5669093" lon="103.4055385"><ele>765.38</ele><time>2026-08-07T17:50:58.000Z</time></trkpt>
        <trkpt lat="29.5668345" lon="103.405466"><ele>764.17</ele><time>2026-08-07T17:51:06.000Z</time></trkpt>
        <trkpt lat="29.5667645" lon="103.4053949"><ele>763.3</ele><time>2026-08-07T17:51:14.000Z</time></trkpt>
        <trkpt lat="29.56672" lon="103.4053022"><ele>762.83</ele><time>2026-08-07T17:51:22.000Z</time></trkpt>
        <trkpt lat="29.5667165" lon="103.4051881"><ele>763.2</ele><time>2026-08-07T17:51:30.000Z</time></trkpt>
        <trkpt lat="29.5667701" lon="103.4050865"><ele>762.76</ele><time>2026-08-07T17:51:40.000Z</time></trkpt>
        <trkpt lat="29.5668621" lon="103.4050678"><ele>762.95</ele><time>2026-08-07T17:51:48.000Z</time></trkpt>
        <trkpt lat="29.5669732" lon="103.405088"><ele>763.23</ele><time>2026-08-07T17:51:56.000Z</time></trkpt>
        <trkpt lat="29.5670757" lon="103.4050858"><ele>762.93</ele><time>2026-08-07T17:52:04.000Z</time></trkpt>
        <trkpt lat="29.5671744" lon="103.4050703"><ele>762.94</ele><time>2026-08-07T17:52:14.000Z</time></trkpt>
        <trkpt lat="29.5672735" lon="103.4050481"><ele>763.34</ele><time>2026-08-07T17:52:24.000Z</time></trkpt>
        <trkpt lat="29.5673658" lon="103.4050312"><ele>762.92</ele><time>2026-08-07T17:52:32.000Z</time></trkpt>
        <trkpt lat="29.5674666" lon="103.405003"><ele>762.58</ele><time>2026-08-07T17:52:40.000Z</time></trkpt>
        <trkpt lat="29.5675754" lon="103.405018"><ele>762.75</ele><time>2026-08-07T17:52:50.000Z</time></trkpt>
        <trkpt lat="29.5676746" lon="103.4050466"><ele>762.21</ele><time>2026-08-07T17:52:58.000Z</time></trkpt>
        <trkpt lat="29.5677674" lon="103.4050677"><ele>761.77</ele><time>2026-08-07T17:53:06.000Z</time></trkpt>
        <trkpt lat="29.5678634" lon="103.4050622"><ele>761.39</ele><time>2026-08-07T17:53:16.000Z</time></trkpt>
        <trkpt lat="29.56795" lon="103.4050148"><ele>760.9</ele><time>2026-08-07T17:53:24.000Z</time></trkpt>
        <trkpt lat="29.568026" lon="103.4049355"><ele>760.16</ele><time>2026-08-07T17:53:32.000Z</time></trkpt>
        <trkpt lat="29.5681013" lon="103.4048648"><ele>759.71</ele><time>2026-08-07T17:53:40.000Z</time></trkpt>
        <trkpt lat="29.5681846" lon="103.4048225"><ele>759.14</ele><time>2026-08-07T17:53:48.000Z</time></trkpt>
        <trkpt lat="29.5682638" lon="103.4047739"><ele>759.01</ele><time>2026-08-07T17:53:56.000Z</time></trkpt>
        <trkpt lat="29.5683331" lon="103.4046936"><ele>759.12</ele><time>2026-08-07T17:54:06.000Z</time></trkpt>
        <trkpt lat="29.5683903" lon="103.4046029"><ele>759.44</ele><time>2026-08-07T17:54:18.000Z</time></trkpt>
        <trkpt lat="29.5684657" lon="103.4045148"><ele>758.41</ele><time>2026-08-07T17:54:28.000Z</time></trkpt>
        <trkpt lat="29.5685336" lon="103.4044265"><ele>757.14</ele><time>2026-08-07T17:54:36.000Z</time></trkpt>
        <trkpt lat="29.5685946" lon="103.4043331"><ele>757.67</ele><time>2026-08-07T17:54:44.000Z</time></trkpt>
        <trkpt lat="29.5686476" lon="103.4042221"><ele>759.91</ele><time>2026-08-07T17:54:54.000Z</time></trkpt>
        <trkpt lat="29.5687107" lon="103.4041237"><ele>759.52</ele><time>2026-08-07T17:55:04.000Z</time></trkpt>
        <trkpt lat="29.5687737" lon="103.4040418"><ele>757.05</ele><time>2026-08-07T17:55:12.000Z</time></trkpt>
        <trkpt lat="29.5688328" lon="103.4039475"><ele>755.29</ele><time>2026-08-07T17:55:22.000Z</time></trkpt>
        <trkpt lat="29.5689113" lon="103.4038931"><ele>754</ele><time>2026-08-07T17:55:32.000Z</time></trkpt>
        <trkpt lat="29.5690078" lon="103.4039119"><ele>752.21</ele><time>2026-08-07T17:55:42.000Z</time></trkpt>
        <trkpt lat="29.5691163" lon="103.4039439"><ele>750.84</ele><time>2026-08-07T17:55:52.000Z</time></trkpt>
        <trkpt lat="29.5692118" lon="103.4039372"><ele>749.45</ele><time>2026-08-07T17:56:00.000Z</time></trkpt>
        <trkpt lat="29.5693117" lon="103.4038942"><ele>748.07</ele><time>2026-08-07T17:56:10.000Z</time></trkpt>
        <trkpt lat="29.5694034" lon="103.4038397"><ele>746.87</ele><time>2026-08-07T17:56:18.000Z</time></trkpt>
        <trkpt lat="29.5694961" lon="103.4037756"><ele>746.59</ele><time>2026-08-07T17:56:28.000Z</time></trkpt>
        <trkpt lat="29.5695755" lon="103.4037118"><ele>746.88</ele><time>2026-08-07T17:56:36.000Z</time></trkpt>
        <trkpt lat="29.5696474" lon="103.403644"><ele>746.58</ele><time>2026-08-07T17:56:44.000Z</time></trkpt>
        <trkpt lat="29.569717" lon="103.4035644"><ele>745.58</ele><time>2026-08-07T17:56:54.000Z</time></trkpt>
        <trkpt lat="29.5697788" lon="103.4034819"><ele>743.7</ele><time>2026-08-07T17:57:02.000Z</time></trkpt>
        <trkpt lat="29.5698377" lon="103.4033995"><ele>741.82</ele><time>2026-08-07T17:57:10.000Z</time></trkpt>
        <trkpt lat="29.5698882" lon="103.4033106"><ele>740.28</ele><time>2026-08-07T17:57:18.000Z</time></trkpt>
        <trkpt lat="29.5699504" lon="103.4032263"><ele>738.5</ele><time>2026-08-07T17:57:26.000Z</time></trkpt>
        <trkpt lat="29.5699946" lon="103.4031216"><ele>736.87</ele><time>2026-08-07T17:57:34.000Z</time></trkpt>
        <trkpt lat="29.5700316" lon="103.4030208"><ele>736.88</ele><time>2026-08-07T17:57:42.000Z</time></trkpt>
        <trkpt lat="29.570049" lon="103.4029078"><ele>736.6</ele><time>2026-08-07T17:57:52.000Z</time></trkpt>
        <trkpt lat="29.5701156" lon="103.4028405"><ele>736.3</ele><time>2026-08-07T17:58:00.000Z</time></trkpt>
        <trkpt lat="29.5701998" lon="103.402787"><ele>734.7</ele><time>2026-08-07T17:58:08.000Z</time></trkpt>
        <trkpt lat="29.5703015" lon="103.4027624"><ele>735.17</ele><time>2026-08-07T17:58:19.000Z</time></trkpt>
        <trkpt lat="29.5704012" lon="103.4027656"><ele>734.65</ele><time>2026-08-07T17:58:24.000Z</time></trkpt>
        <trkpt lat="29.5704946" lon="103.4027468"><ele>734.82</ele><time>2026-08-07T17:58:30.000Z</time></trkpt>
        <trkpt lat="29.5705997" lon="103.4027404"><ele>735.26</ele><time>2026-08-07T17:58:40.000Z</time></trkpt>
        <trkpt lat="29.570705" lon="103.4027367"><ele>734.29</ele><time>2026-08-07T17:58:48.000Z</time></trkpt>
        <trkpt lat="29.5708135" lon="103.4027211"><ele>734.06</ele><time>2026-08-07T17:58:58.000Z</time></trkpt>
        <trkpt lat="29.5709182" lon="103.4027037"><ele>734.01</ele><time>2026-08-07T17:59:08.000Z</time></trkpt>
        <trkpt lat="29.5709895" lon="103.4026328"><ele>733.24</ele><time>2026-08-07T17:59:20.000Z</time></trkpt>
        <trkpt lat="29.5710517" lon="103.4025507"><ele>730.97</ele><time>2026-08-07T17:59:28.000Z</time></trkpt>
        <trkpt lat="29.5711244" lon="103.4024892"><ele>730.44</ele><time>2026-08-07T17:59:36.000Z</time></trkpt>
        <trkpt lat="29.5711941" lon="103.4024173"><ele>729.5</ele><time>2026-08-07T17:59:46.000Z</time></trkpt>
        <trkpt lat="29.5712563" lon="103.4023252"><ele>728.84</ele><time>2026-08-07T17:59:56.000Z</time></trkpt>
        <trkpt lat="29.5713078" lon="103.4022336"><ele>728.86</ele><time>2026-08-07T18:00:04.000Z</time></trkpt>
        <trkpt lat="29.5713595" lon="103.4021318"><ele>728.21</ele><time>2026-08-07T18:00:12.000Z</time></trkpt>
        <trkpt lat="29.5714249" lon="103.4020353"><ele>727.55</ele><time>2026-08-07T18:00:22.000Z</time></trkpt>
        <trkpt lat="29.5714862" lon="103.4019382"><ele>727.76</ele><time>2026-08-07T18:00:31.000Z</time></trkpt>
        <trkpt lat="29.5715567" lon="103.4018611"><ele>727.42</ele><time>2026-08-07T18:00:39.000Z</time></trkpt>
        <trkpt lat="29.5716491" lon="103.4018348"><ele>729.02</ele><time>2026-08-07T18:00:47.000Z</time></trkpt>
        <trkpt lat="29.5717694" lon="103.4018396"><ele>727.95</ele><time>2026-08-07T18:00:57.000Z</time></trkpt>
        <trkpt lat="29.5717956" lon="103.4017504"><ele>727.05</ele><time>2026-08-07T18:01:09.000Z</time></trkpt>
        <trkpt lat="29.5718439" lon="103.4016554"><ele>728.58</ele><time>2026-08-07T18:01:28.000Z</time></trkpt>
        <trkpt lat="29.5719061" lon="103.4015773"><ele>729.01</ele><time>2026-08-07T18:01:38.000Z</time></trkpt>
        <trkpt lat="29.5719969" lon="103.4015143"><ele>728.54</ele><time>2026-08-07T18:01:48.000Z</time></trkpt>
        <trkpt lat="29.5720342" lon="103.4014221"><ele>729.28</ele><time>2026-08-07T18:01:58.000Z</time></trkpt>
        <trkpt lat="29.5720238" lon="103.40132"><ele>730.61</ele><time>2026-08-07T18:02:12.000Z</time></trkpt>
        <trkpt lat="29.5719917" lon="103.4012166"><ele>731.5</ele><time>2026-08-07T18:02:28.000Z</time></trkpt>
        <trkpt lat="29.5719724" lon="103.4011115"><ele>733.35</ele><time>2026-08-07T18:02:44.000Z</time></trkpt>
        <trkpt lat="29.5719035" lon="103.4010238"><ele>732.39</ele><time>2026-08-07T18:02:56.000Z</time></trkpt>
        <trkpt lat="29.5718825" lon="103.4010029"><ele>730.56</ele><time>2026-08-07T18:02:58.000Z</time></trkpt>
        <trkpt lat="29.5719378" lon="103.4009668"><ele>729.54</ele><time>2026-08-07T18:03:56.000Z</time></trkpt>
        <trkpt lat="29.5719448" lon="103.4008849"><ele>730.01</ele><time>2026-08-07T18:04:38.000Z</time></trkpt>
        <trkpt lat="29.5719227" lon="103.4007822"><ele>733.15</ele><time>2026-08-07T18:04:58.000Z</time></trkpt>
        <trkpt lat="29.5718768" lon="103.4006794"><ele>736.44</ele><time>2026-08-07T18:05:16.000Z</time></trkpt>
        <trkpt lat="29.5718481" lon="103.400573"><ele>742.54</ele><time>2026-08-07T18:05:36.000Z</time></trkpt>
        <trkpt lat="29.5718491" lon="103.400459"><ele>747.82</ele><time>2026-08-07T18:05:56.000Z</time></trkpt>
        <trkpt lat="29.5718606" lon="103.4003798"><ele>752.03</ele><time>2026-08-07T18:06:15.000Z</time></trkpt>
        <trkpt lat="29.5718541" lon="103.4002792"><ele>756.46</ele><time>2026-08-07T18:06:34.000Z</time></trkpt>
        <trkpt lat="29.5718433" lon="103.400171"><ele>760.71</ele><time>2026-08-07T18:06:54.000Z</time></trkpt>
        <trkpt lat="29.571822" lon="103.4000415"><ele>765.77</ele><time>2026-08-07T18:07:10.000Z</time></trkpt>
        <trkpt lat="29.5718085" lon="103.3999251"><ele>770.04</ele><time>2026-08-07T18:07:36.000Z</time></trkpt>
        <trkpt lat="29.5718275" lon="103.3998188"><ele>774.27</ele><time>2026-08-07T18:07:50.000Z</time></trkpt>
        <trkpt lat="29.5718321" lon="103.3997092"><ele>777.94</ele><time>2026-08-07T18:08:12.000Z</time></trkpt>
        <trkpt lat="29.5718285" lon="103.399591"><ele>782.79</ele><time>2026-08-07T18:08:28.000Z</time></trkpt>
        <trkpt lat="29.5718172" lon="103.399474"><ele>785.91</ele><time>2026-08-07T18:08:46.000Z</time></trkpt>
        <trkpt lat="29.5718112" lon="103.3993625"><ele>789.87</ele><time>2026-08-07T18:08:56.000Z</time></trkpt>
        <trkpt lat="29.571781" lon="103.3992527"><ele>793.15</ele><time>2026-08-07T18:09:10.000Z</time></trkpt>
        <trkpt lat="29.571718" lon="103.3991683"><ele>795.07</ele><time>2026-08-07T18:09:28.000Z</time></trkpt>
        <trkpt lat="29.5716843" lon="103.3990633"><ele>798.76</ele><time>2026-08-07T18:09:42.000Z</time></trkpt>
        <trkpt lat="29.5716414" lon="103.398957"><ele>801.77</ele><time>2026-08-07T18:09:54.000Z</time></trkpt>
        <trkpt lat="29.5716154" lon="103.3988479"><ele>804.72</ele><time>2026-08-07T18:10:02.000Z</time></trkpt>
        <trkpt lat="29.5715921" lon="103.3987383"><ele>807.96</ele><time>2026-08-07T18:10:10.000Z</time></trkpt>
        <trkpt lat="29.5715796" lon="103.3986186"><ele>808.8</ele><time>2026-08-07T18:10:18.000Z</time></trkpt>
        <trkpt lat="29.5715626" lon="103.3985092"><ele>808.6</ele><time>2026-08-07T18:10:28.000Z</time></trkpt>
        <trkpt lat="29.5715447" lon="103.398405"><ele>808.68</ele><time>2026-08-07T18:10:38.000Z</time></trkpt>
        <trkpt lat="29.5715527" lon="103.3982917"><ele>809.43</ele><time>2026-08-07T18:10:54.000Z</time></trkpt>
        <trkpt lat="29.5715641" lon="103.3981838"><ele>808.35</ele><time>2026-08-07T18:11:08.000Z</time></trkpt>
        <trkpt lat="29.5715888" lon="103.3980826"><ele>805.25</ele><time>2026-08-07T18:11:16.000Z</time></trkpt>
        <trkpt lat="29.5715794" lon="103.397973"><ele>803.71</ele><time>2026-08-07T18:11:30.000Z</time></trkpt>
        <trkpt lat="29.5715335" lon="103.3978772"><ele>800.91</ele><time>2026-08-07T18:11:46.000Z</time></trkpt>
        <trkpt lat="29.5714894" lon="103.3977826"><ele>797.12</ele><time>2026-08-07T18:11:58.000Z</time></trkpt>
        <trkpt lat="29.5714625" lon="103.3976801"><ele>793.87</ele><time>2026-08-07T18:12:14.000Z</time></trkpt>
        <trkpt lat="29.5714314" lon="103.3975811"><ele>789.92</ele><time>2026-08-07T18:12:26.000Z</time></trkpt>
        <trkpt lat="29.571447" lon="103.397475"><ele>785.59</ele><time>2026-08-07T18:12:40.000Z</time></trkpt>
        <trkpt lat="29.5714766" lon="103.3973606"><ele>782.97</ele><time>2026-08-07T18:12:54.000Z</time></trkpt>
        <trkpt lat="29.5715191" lon="103.3972519"><ele>781.32</ele><time>2026-08-07T18:13:06.000Z</time></trkpt>
        <trkpt lat="29.5715668" lon="103.3971477"><ele>779.22</ele><time>2026-08-07T18:13:22.000Z</time></trkpt>
        <trkpt lat="29.5716204" lon="103.3970507"><ele>776.12</ele><time>2026-08-07T18:13:38.000Z</time></trkpt>
        <trkpt lat="29.5716805" lon="103.3969685"><ele>773.59</ele><time>2026-08-07T18:13:53.000Z</time></trkpt>
        <trkpt lat="29.5717327" lon="103.3968817"><ele>770.5</ele><time>2026-08-07T18:14:07.000Z</time></trkpt>
        <trkpt lat="29.5717934" lon="103.3967998"><ele>767.79</ele><time>2026-08-07T18:14:25.000Z</time></trkpt>
        <trkpt lat="29.5718885" lon="103.3967648"><ele>764.58</ele><time>2026-08-07T18:14:39.000Z</time></trkpt>
        <trkpt lat="29.5719893" lon="103.3967511"><ele>761.99</ele><time>2026-08-07T18:14:53.000Z</time></trkpt>
        <trkpt lat="29.5720914" lon="103.3967312"><ele>759.12</ele><time>2026-08-07T18:15:09.000Z</time></trkpt>
        <trkpt lat="29.5722012" lon="103.3967338"><ele>755.6</ele><time>2026-08-07T18:15:23.000Z</time></trkpt>
        <trkpt lat="29.572302" lon="103.3967003"><ele>751.43</ele><time>2026-08-07T18:15:37.000Z</time></trkpt>
        <trkpt lat="29.5723635" lon="103.3966125"><ele>749.04</ele><time>2026-08-07T18:15:53.000Z</time></trkpt>
        <trkpt lat="29.5723654" lon="103.3965002"><ele>746.26</ele><time>2026-08-07T18:16:05.000Z</time></trkpt>
        <trkpt lat="29.572361" lon="103.3963798"><ele>742.75</ele><time>2026-08-07T18:16:15.000Z</time></trkpt>
        <trkpt lat="29.5723878" lon="103.3962725"><ele>739.9</ele><time>2026-08-07T18:16:27.000Z</time></trkpt>
        <trkpt lat="29.5723915" lon="103.3961612"><ele>737.76</ele><time>2026-08-07T18:16:42.000Z</time></trkpt>
        <trkpt lat="29.572435" lon="103.3960629"><ele>734.95</ele><time>2026-08-07T18:16:56.000Z</time></trkpt>
        <trkpt lat="29.572515" lon="103.3959979"><ele>733.84</ele><time>2026-08-07T18:17:08.000Z</time></trkpt>
        <trkpt lat="29.5725924" lon="103.3959294"><ele>732.32</ele><time>2026-08-07T18:17:21.000Z</time></trkpt>
        <trkpt lat="29.5726732" lon="103.3958666"><ele>729.98</ele><time>2026-08-07T18:17:33.000Z</time></trkpt>
        <trkpt lat="29.5727574" lon="103.3958078"><ele>728.36</ele><time>2026-08-07T18:17:45.000Z</time></trkpt>
        <trkpt lat="29.5728169" lon="103.3957075"><ele>726.33</ele><time>2026-08-07T18:17:57.000Z</time></trkpt>
        <trkpt lat="29.57287" lon="103.3956122"><ele>724.33</ele><time>2026-08-07T18:18:07.000Z</time></trkpt>
        <trkpt lat="29.5729146" lon="103.39551"><ele>722.53</ele><time>2026-08-07T18:18:17.000Z</time></trkpt>
        <trkpt lat="29.572959" lon="103.3953986"><ele>722.68</ele><time>2026-08-07T18:18:27.000Z</time></trkpt>
        <trkpt lat="29.5730061" lon="103.3952974"><ele>722.05</ele><time>2026-08-07T18:18:37.000Z</time></trkpt>
        <trkpt lat="29.5730085" lon="103.3951903"><ele>721.44</ele><time>2026-08-07T18:18:49.000Z</time></trkpt>
        <trkpt lat="29.5729738" lon="103.3950873"><ele>720.64</ele><time>2026-08-07T18:19:03.000Z</time></trkpt>
        <trkpt lat="29.5729472" lon="103.3949849"><ele>718.98</ele><time>2026-08-07T18:19:15.000Z</time></trkpt>
        <trkpt lat="29.5729558" lon="103.3948703"><ele>717.19</ele><time>2026-08-07T18:19:27.000Z</time></trkpt>
        <trkpt lat="29.5729252" lon="103.3947713"><ele>715.61</ele><time>2026-08-07T18:19:37.000Z</time></trkpt>
        <trkpt lat="29.5728476" lon="103.3947187"><ele>713.92</ele><time>2026-08-07T18:19:47.000Z</time></trkpt>
        <trkpt lat="29.5727739" lon="103.3946372"><ele>710.98</ele><time>2026-08-07T18:20:01.000Z</time></trkpt>
        <trkpt lat="29.5727383" lon="103.3945823"><ele>709.11</ele><time>2026-08-07T18:20:11.000Z</time></trkpt>
        <trkpt lat="29.5727484" lon="103.3944865"><ele>707.79</ele><time>2026-08-07T18:20:35.000Z</time></trkpt>
        <trkpt lat="29.5727708" lon="103.394382"><ele>704.38</ele><time>2026-08-07T18:20:49.000Z</time></trkpt>
        <trkpt lat="29.5728324" lon="103.3942846"><ele>699.74</ele><time>2026-08-07T18:21:03.000Z</time></trkpt>
        <trkpt lat="29.5728895" lon="103.3941815"><ele>696.07</ele><time>2026-08-07T18:21:15.000Z</time></trkpt>
        <trkpt lat="29.5729289" lon="103.3940646"><ele>692.93</ele><time>2026-08-07T18:21:25.000Z</time></trkpt>
        <trkpt lat="29.5729418" lon="103.3939537"><ele>690.68</ele><time>2026-08-07T18:21:35.000Z</time></trkpt>
        <trkpt lat="29.5729873" lon="103.3938554"><ele>688.7</ele><time>2026-08-07T18:21:45.000Z</time></trkpt>
        <trkpt lat="29.5730445" lon="103.3937496"><ele>687.69</ele><time>2026-08-07T18:21:55.000Z</time></trkpt>
        <trkpt lat="29.5731316" lon="103.3937053"><ele>689.06</ele><time>2026-08-07T18:22:03.000Z</time></trkpt>
        <trkpt lat="29.5732314" lon="103.3937137"><ele>690.32</ele><time>2026-08-07T18:22:13.000Z</time></trkpt>
        <trkpt lat="29.5732684" lon="103.3937779"><ele>689.39</ele><time>2026-08-07T18:22:29.000Z</time></trkpt>
        <trkpt lat="29.5733075" lon="103.3937143"><ele>688.07</ele><time>2026-08-07T18:28:34.000Z</time></trkpt>
        <trkpt lat="29.5733735" lon="103.3936402"><ele>686.69</ele><time>2026-08-07T18:28:44.000Z</time></trkpt>
        <trkpt lat="29.5734345" lon="103.3935546"><ele>686.12</ele><time>2026-08-07T18:28:56.000Z</time></trkpt>
        <trkpt lat="29.5735281" lon="103.3935257"><ele>685.75</ele><time>2026-08-07T18:29:06.000Z</time></trkpt>
        <trkpt lat="29.5736184" lon="103.3934891"><ele>684.52</ele><time>2026-08-07T18:29:16.000Z</time></trkpt>
        <trkpt lat="29.5736444" lon="103.3934644"><ele>684.62</ele><time>2026-08-07T18:29:23.000Z</time></trkpt>
        <trkpt lat="29.57371" lon="103.3934284"><ele>685.5</ele><time>2026-08-07T18:29:38.000Z</time></trkpt>
        <trkpt lat="29.5737992" lon="103.3933934"><ele>685.7</ele><time>2026-08-07T18:29:48.000Z</time></trkpt>
        <trkpt lat="29.5738888" lon="103.3933387"><ele>684.95</ele><time>2026-08-07T18:29:58.000Z</time></trkpt>
        <trkpt lat="29.5739484" lon="103.3932537"><ele>684.38</ele><time>2026-08-07T18:30:06.000Z</time></trkpt>
        <trkpt lat="29.5739839" lon="103.3931361"><ele>684.23</ele><time>2026-08-07T18:30:18.000Z</time></trkpt>
        <trkpt lat="29.5740247" lon="103.3930324"><ele>682.06</ele><time>2026-08-07T18:30:28.000Z</time></trkpt>
        <trkpt lat="29.5740343" lon="103.3929259"><ele>681.52</ele><time>2026-08-07T18:30:44.000Z</time></trkpt>
        <trkpt lat="29.5740715" lon="103.3928317"><ele>678.06</ele><time>2026-08-07T18:31:02.000Z</time></trkpt>
        <trkpt lat="29.5741096" lon="103.3927339"><ele>675.88</ele><time>2026-08-07T18:31:22.000Z</time></trkpt>
        <trkpt lat="29.5741124" lon="103.3926246"><ele>673.79</ele><time>2026-08-07T18:31:54.000Z</time></trkpt>
        <trkpt lat="29.5740969" lon="103.3925144"><ele>670.04</ele><time>2026-08-07T18:32:06.000Z</time></trkpt>
        <trkpt lat="29.5740708" lon="103.3924093"><ele>667.12</ele><time>2026-08-07T18:32:20.000Z</time></trkpt>
        <trkpt lat="29.574125" lon="103.392412"><ele>664.41</ele><time>2026-08-07T18:32:42.000Z</time></trkpt>
        <trkpt lat="29.5741997" lon="103.3923597"><ele>662</ele><time>2026-08-07T18:32:54.000Z</time></trkpt>
        <trkpt lat="29.5742073" lon="103.3922651"><ele>658.7</ele><time>2026-08-07T18:33:08.000Z</time></trkpt>
        <trkpt lat="29.5741815" lon="103.3921478"><ele>655.54</ele><time>2026-08-07T18:34:22.000Z</time></trkpt>
        <trkpt lat="29.5740892" lon="103.3921083"><ele>653.47</ele><time>2026-08-07T18:34:40.000Z</time></trkpt>
        <trkpt lat="29.5739974" lon="103.3920617"><ele>655.11</ele><time>2026-08-07T18:34:54.000Z</time></trkpt>
        <trkpt lat="29.5739084" lon="103.3920326"><ele>656.17</ele><time>2026-08-07T18:35:16.000Z</time></trkpt>
        <trkpt lat="29.5738761" lon="103.3920473"><ele>657.21</ele><time>2026-08-07T18:35:22.000Z</time></trkpt>
        <trkpt lat="29.573806" lon="103.3920631"><ele>657.52</ele><time>2026-08-07T18:35:38.000Z</time></trkpt>
        <trkpt lat="29.5737207" lon="103.3920592"><ele>654.61</ele><time>2026-08-07T18:35:46.000Z</time></trkpt>
        <trkpt lat="29.5736357" lon="103.3920133"><ele>653.18</ele><time>2026-08-07T18:35:56.000Z</time></trkpt>
        <trkpt lat="29.5735607" lon="103.391926"><ele>651.94</ele><time>2026-08-07T18:36:08.000Z</time></trkpt>
        <trkpt lat="29.5735166" lon="103.391822"><ele>651.43</ele><time>2026-08-07T18:36:16.000Z</time></trkpt>
        <trkpt lat="29.5734473" lon="103.3917511"><ele>652.36</ele><time>2026-08-07T18:36:26.000Z</time></trkpt>
        <trkpt lat="29.5733608" lon="103.3917585"><ele>653.85</ele><time>2026-08-07T18:36:42.000Z</time></trkpt>
        <trkpt lat="29.5732926" lon="103.3917262"><ele>656.24</ele><time>2026-08-07T18:36:54.000Z</time></trkpt>
        <trkpt lat="29.5733919" lon="103.3917065"><ele>655.85</ele><time>2026-08-07T18:43:32.000Z</time></trkpt>
        <trkpt lat="29.5734777" lon="103.3917629"><ele>656.78</ele><time>2026-08-07T18:43:42.000Z</time></trkpt>
        <trkpt lat="29.5735702" lon="103.3918224"><ele>656.4</ele><time>2026-08-07T18:43:54.000Z</time></trkpt>
        <trkpt lat="29.5736491" lon="103.3918969"><ele>657.02</ele><time>2026-08-07T18:44:06.000Z</time></trkpt>
        <trkpt lat="29.5737154" lon="103.3919805"><ele>656.76</ele><time>2026-08-07T18:44:20.000Z</time></trkpt>
        <trkpt lat="29.5737864" lon="103.3920492"><ele>655.89</ele><time>2026-08-07T18:44:32.000Z</time></trkpt>
        <trkpt lat="29.5738762" lon="103.3920952"><ele>654.93</ele><time>2026-08-07T18:44:44.000Z</time></trkpt>
        <trkpt lat="29.5739672" lon="103.392086"><ele>653.01</ele><time>2026-08-07T18:45:04.000Z</time></trkpt>
        <trkpt lat="29.5740619" lon="103.3920214"><ele>655.84</ele><time>2026-08-07T18:46:06.000Z</time></trkpt>
        <trkpt lat="29.5741335" lon="103.3920998"><ele>657.44</ele><time>2026-08-07T18:46:16.000Z</time></trkpt>
        <trkpt lat="29.5742032" lon="103.3921916"><ele>658.91</ele><time>2026-08-07T18:46:26.000Z</time></trkpt>
        <trkpt lat="29.5742945" lon="103.3922421"><ele>659.74</ele><time>2026-08-07T18:46:42.000Z</time></trkpt>
        <trkpt lat="29.5743581" lon="103.3921752"><ele>658.79</ele><time>2026-08-07T18:46:59.000Z</time></trkpt>
        <trkpt lat="29.5744456" lon="103.3921221"><ele>657.91</ele><time>2026-08-07T18:47:19.000Z</time></trkpt>
        <trkpt lat="29.5745474" lon="103.392099"><ele>658.39</ele><time>2026-08-07T18:47:36.000Z</time></trkpt>
        <trkpt lat="29.5746436" lon="103.3920781"><ele>660.8</ele><time>2026-08-07T18:47:54.000Z</time></trkpt>
        <trkpt lat="29.5747398" lon="103.3920525"><ele>660.89</ele><time>2026-08-07T18:48:12.000Z</time></trkpt>
        <trkpt lat="29.5748308" lon="103.3920436"><ele>662.28</ele><time>2026-08-07T18:49:16.000Z</time></trkpt>
        <trkpt lat="29.5749232" lon="103.3920013"><ele>665.67</ele><time>2026-08-07T18:49:41.000Z</time></trkpt>
        <trkpt lat="29.5750102" lon="103.3920288"><ele>667.23</ele><time>2026-08-07T18:53:52.000Z</time></trkpt>
        <trkpt lat="29.5750941" lon="103.3919858"><ele>673.15</ele><time>2026-08-07T18:54:14.000Z</time></trkpt>
        <trkpt lat="29.5751906" lon="103.3919662"><ele>677.91</ele><time>2026-08-07T18:54:34.000Z</time></trkpt>
        <trkpt lat="29.575271" lon="103.3919097"><ele>683.54</ele><time>2026-08-07T18:54:50.000Z</time></trkpt>
        <trkpt lat="29.5753439" lon="103.3918459"><ele>687.43</ele><time>2026-08-07T18:56:03.000Z</time></trkpt>
        <trkpt lat="29.5754355" lon="103.3918269"><ele>690.07</ele><time>2026-08-07T18:56:23.000Z</time></trkpt>
        <trkpt lat="29.5755285" lon="103.39185"><ele>693.43</ele><time>2026-08-07T18:56:41.000Z</time></trkpt>
        <trkpt lat="29.575618" lon="103.3918741"><ele>696.6</ele><time>2026-08-07T18:57:01.000Z</time></trkpt>
        <trkpt lat="29.5757057" lon="103.3919083"><ele>701.97</ele><time>2026-08-07T18:57:18.000Z</time></trkpt>
        <trkpt lat="29.5758058" lon="103.3919063"><ele>705.53</ele><time>2026-08-07T18:57:42.000Z</time></trkpt>
        <trkpt lat="29.5759042" lon="103.3918786"><ele>708.74</ele><time>2026-08-07T18:57:58.000Z</time></trkpt>
        <trkpt lat="29.5759987" lon="103.3918859"><ele>712.07</ele><time>2026-08-07T18:58:14.000Z</time></trkpt>
        <trkpt lat="29.5760931" lon="103.3919203"><ele>715.07</ele><time>2026-08-07T18:58:24.000Z</time></trkpt>
        <trkpt lat="29.5761896" lon="103.3919523"><ele>716.29</ele><time>2026-08-07T18:58:42.000Z</time></trkpt>
        <trkpt lat="29.576281" lon="103.3919533"><ele>718</ele><time>2026-08-07T18:59:06.000Z</time></trkpt>
        <trkpt lat="29.5763132" lon="103.3919549"><ele>720.61</ele><time>2026-08-07T18:59:10.000Z</time></trkpt>
        <trkpt lat="29.5763868" lon="103.391965"><ele>722.08</ele><time>2026-08-07T18:59:22.000Z</time></trkpt>
        <trkpt lat="29.5764775" lon="103.3919606"><ele>723.29</ele><time>2026-08-07T18:59:38.000Z</time></trkpt>
        <trkpt lat="29.5765698" lon="103.3919341"><ele>725.5</ele><time>2026-08-07T18:59:50.000Z</time></trkpt>
        <trkpt lat="29.5766782" lon="103.3919064"><ele>727.47</ele><time>2026-08-07T19:00:00.000Z</time></trkpt>
        <trkpt lat="29.5766814" lon="103.3918786"><ele>729.48</ele><time>2026-08-07T19:00:06.000Z</time></trkpt>
        <trkpt lat="29.5767338" lon="103.3918343"><ele>729.16</ele><time>2026-08-07T19:00:22.000Z</time></trkpt>
        <trkpt lat="29.5767966" lon="103.3917562"><ele>730.09</ele><time>2026-08-07T19:00:34.000Z</time></trkpt>
        <trkpt lat="29.5768338" lon="103.3916487"><ele>732.84</ele><time>2026-08-07T19:00:46.000Z</time></trkpt>
        <trkpt lat="29.5768773" lon="103.3915383"><ele>734.2</ele><time>2026-08-07T19:00:58.000Z</time></trkpt>
        <trkpt lat="29.5769167" lon="103.3914265"><ele>737.07</ele><time>2026-08-07T19:01:10.000Z</time></trkpt>
        <trkpt lat="29.576967" lon="103.3913275"><ele>739.75</ele><time>2026-08-07T19:01:22.000Z</time></trkpt>
        <trkpt lat="29.5770209" lon="103.3912296"><ele>743.41</ele><time>2026-08-07T19:01:34.000Z</time></trkpt>
        <trkpt lat="29.5770769" lon="103.3911331"><ele>745.25</ele><time>2026-08-07T19:01:44.000Z</time></trkpt>
        <trkpt lat="29.5771153" lon="103.3910324"><ele>746.8</ele><time>2026-08-07T19:01:58.000Z</time></trkpt>
        <trkpt lat="29.5771808" lon="103.390935"><ele>746.96</ele><time>2026-08-07T19:02:13.000Z</time></trkpt>
        <trkpt lat="29.577269" lon="103.3909183"><ele>748.64</ele><time>2026-08-07T19:02:24.000Z</time></trkpt>
        <trkpt lat="29.5773686" lon="103.3909171"><ele>750.47</ele><time>2026-08-07T19:02:36.000Z</time></trkpt>
        <trkpt lat="29.5774557" lon="103.3909318"><ele>750.57</ele><time>2026-08-07T19:02:48.000Z</time></trkpt>
        <trkpt lat="29.577536" lon="103.3910052"><ele>752.5</ele><time>2026-08-07T19:03:42.000Z</time></trkpt>
        <trkpt lat="29.5776256" lon="103.3910463"><ele>754.14</ele><time>2026-08-07T19:03:52.000Z</time></trkpt>
        <trkpt lat="29.5777234" lon="103.3910611"><ele>754.67</ele><time>2026-08-07T19:04:06.000Z</time></trkpt>
        <trkpt lat="29.5778207" lon="103.3910722"><ele>756.44</ele><time>2026-08-07T19:04:24.000Z</time></trkpt>
        <trkpt lat="29.5778628" lon="103.3910858"><ele>758.06</ele><time>2026-08-07T19:04:34.000Z</time></trkpt>
        <trkpt lat="29.5779325" lon="103.3910499"><ele>761.23</ele><time>2026-08-07T19:04:56.000Z</time></trkpt>
        <trkpt lat="29.5779688" lon="103.3909433"><ele>761.47</ele><time>2026-08-07T19:05:06.000Z</time></trkpt>
        <trkpt lat="29.5780205" lon="103.3908277"><ele>762.51</ele><time>2026-08-07T19:05:16.000Z</time></trkpt>
        <trkpt lat="29.5780806" lon="103.3907182"><ele>762.79</ele><time>2026-08-07T19:05:26.000Z</time></trkpt>
        <trkpt lat="29.5781351" lon="103.3906093"><ele>763.53</ele><time>2026-08-07T19:05:39.000Z</time></trkpt>
        <trkpt lat="29.5781942" lon="103.3905073"><ele>763.63</ele><time>2026-08-07T19:05:49.000Z</time></trkpt>
        <trkpt lat="29.5782444" lon="103.3903958"><ele>764.54</ele><time>2026-08-07T19:05:59.000Z</time></trkpt>
        <trkpt lat="29.5782883" lon="103.3902978"><ele>763.93</ele><time>2026-08-07T19:06:09.000Z</time></trkpt>
        <trkpt lat="29.5783337" lon="103.3901822"><ele>762.24</ele><time>2026-08-07T19:06:22.000Z</time></trkpt>
        <trkpt lat="29.5783659" lon="103.3900721"><ele>763.12</ele><time>2026-08-07T19:06:32.000Z</time></trkpt>
        <trkpt lat="29.5783879" lon="103.3899649"><ele>765.64</ele><time>2026-08-07T19:06:42.000Z</time></trkpt>
        <trkpt lat="29.578428" lon="103.3898583"><ele>767.54</ele><time>2026-08-07T19:06:54.000Z</time></trkpt>
        <trkpt lat="29.5784658" lon="103.3897568"><ele>770.07</ele><time>2026-08-07T19:07:04.000Z</time></trkpt>
        <trkpt lat="29.5784789" lon="103.3896479"><ele>771.96</ele><time>2026-08-07T19:07:16.000Z</time></trkpt>
        <trkpt lat="29.5784877" lon="103.3895398"><ele>772.41</ele><time>2026-08-07T19:07:28.000Z</time></trkpt>
        <trkpt lat="29.5784761" lon="103.3894288"><ele>774.59</ele><time>2026-08-07T19:07:38.000Z</time></trkpt>
        <trkpt lat="29.5784362" lon="103.3893241"><ele>776.22</ele><time>2026-08-07T19:07:48.000Z</time></trkpt>
        <trkpt lat="29.5783546" lon="103.3892519"><ele>777.73</ele><time>2026-08-07T19:08:00.000Z</time></trkpt>
        <trkpt lat="29.5783043" lon="103.3891482"><ele>779.21</ele><time>2026-08-07T19:08:12.000Z</time></trkpt>
        <trkpt lat="29.5783183" lon="103.3890483"><ele>778.75</ele><time>2026-08-07T19:08:22.000Z</time></trkpt>
        <trkpt lat="29.5783762" lon="103.3890104"><ele>778.32</ele><time>2026-08-07T19:08:34.000Z</time></trkpt>
        <trkpt lat="29.5784314" lon="103.3889273"><ele>778.81</ele><time>2026-08-07T19:09:08.000Z</time></trkpt>
        <trkpt lat="29.5784692" lon="103.3888222"><ele>779.4</ele><time>2026-08-07T19:09:19.000Z</time></trkpt>
        <trkpt lat="29.5785636" lon="103.3887987"><ele>777.73</ele><time>2026-08-07T19:09:29.000Z</time></trkpt>
        <trkpt lat="29.578677" lon="103.3888025"><ele>777.31</ele><time>2026-08-07T19:09:39.000Z</time></trkpt>
        <trkpt lat="29.5787887" lon="103.3887943"><ele>777.16</ele><time>2026-08-07T19:09:49.000Z</time></trkpt>
        <trkpt lat="29.578869" lon="103.3887362"><ele>779.19</ele><time>2026-08-07T19:10:01.000Z</time></trkpt>
        <trkpt lat="29.5789378" lon="103.3886605"><ele>778.08</ele><time>2026-08-07T19:10:11.000Z</time></trkpt>
        <trkpt lat="29.5790036" lon="103.3885777"><ele>778.08</ele><time>2026-08-07T19:10:27.000Z</time></trkpt>
        <trkpt lat="29.5790159" lon="103.3884688"><ele>778.29</ele><time>2026-08-07T19:10:39.000Z</time></trkpt>
        <trkpt lat="29.5789907" lon="103.3883551"><ele>778.81</ele><time>2026-08-07T19:10:51.000Z</time></trkpt>
        <trkpt lat="29.578999" lon="103.3882493"><ele>780.89</ele><time>2026-08-07T19:11:01.000Z</time></trkpt>
        <trkpt lat="29.5789913" lon="103.3881393"><ele>781.57</ele><time>2026-08-07T19:11:21.000Z</time></trkpt>
        <trkpt lat="29.5790309" lon="103.3880349"><ele>784.7</ele><time>2026-08-07T19:11:33.000Z</time></trkpt>
        <trkpt lat="29.579" lon="103.3879397"><ele>788.52</ele><time>2026-08-07T19:11:45.000Z</time></trkpt>
        <trkpt lat="29.5789669" lon="103.3878294"><ele>791.68</ele><time>2026-08-07T19:12:01.000Z</time></trkpt>
        <trkpt lat="29.5789572" lon="103.3877118"><ele>793.08</ele><time>2026-08-07T19:12:15.000Z</time></trkpt>
        <trkpt lat="29.5789469" lon="103.3875988"><ele>794.76</ele><time>2026-08-07T19:12:25.000Z</time></trkpt>
        <trkpt lat="29.5789423" lon="103.3874845"><ele>795.09</ele><time>2026-08-07T19:12:33.000Z</time></trkpt>
        <trkpt lat="29.5789466" lon="103.3873753"><ele>795.45</ele><time>2026-08-07T19:12:41.000Z</time></trkpt>
        <trkpt lat="29.578956" lon="103.3872551"><ele>795.61</ele><time>2026-08-07T19:12:51.000Z</time></trkpt>
        <trkpt lat="29.578988" lon="103.3871381"><ele>796.73</ele><time>2026-08-07T19:13:03.000Z</time></trkpt>
        <trkpt lat="29.5790207" lon="103.3870295"><ele>796.42</ele><time>2026-08-07T19:13:19.000Z</time></trkpt>
        <trkpt lat="29.5790859" lon="103.3869532"><ele>796.12</ele><time>2026-08-07T19:13:39.000Z</time></trkpt>
        <trkpt lat="29.579134" lon="103.3868672"><ele>797.07</ele><time>2026-08-07T19:14:11.000Z</time></trkpt>
        <trkpt lat="29.5791952" lon="103.3867911"><ele>799.5</ele><time>2026-08-07T19:14:27.000Z</time></trkpt>
        <trkpt lat="29.579277" lon="103.386732"><ele>802.59</ele><time>2026-08-07T19:14:45.000Z</time></trkpt>
        <trkpt lat="29.5793315" lon="103.3866431"><ele>805.96</ele><time>2026-08-07T19:15:05.000Z</time></trkpt>
        <trkpt lat="29.5793623" lon="103.3866005"><ele>809.86</ele><time>2026-08-07T19:15:21.000Z</time></trkpt>
        <trkpt lat="29.5793727" lon="103.3865079"><ele>813.91</ele><time>2026-08-07T19:15:47.000Z</time></trkpt>
        <trkpt lat="29.5794025" lon="103.3864024"><ele>818.13</ele><time>2026-08-07T19:16:03.000Z</time></trkpt>
        <trkpt lat="29.5794122" lon="103.3862894"><ele>820.07</ele><time>2026-08-07T19:16:23.000Z</time></trkpt>
        <trkpt lat="29.5794124" lon="103.3861732"><ele>823.42</ele><time>2026-08-07T19:16:35.000Z</time></trkpt>
        <trkpt lat="29.5794244" lon="103.3860628"><ele>826.06</ele><time>2026-08-07T19:16:53.000Z</time></trkpt>
        <trkpt lat="29.5794363" lon="103.3859417"><ele>828.46</ele><time>2026-08-07T19:17:13.000Z</time></trkpt>
        <trkpt lat="29.5794668" lon="103.3858368"><ele>830.83</ele><time>2026-08-07T19:17:27.000Z</time></trkpt>
        <trkpt lat="29.5794982" lon="103.3857309"><ele>833.05</ele><time>2026-08-07T19:17:49.000Z</time></trkpt>
        <trkpt lat="29.5795614" lon="103.3856493"><ele>837.03</ele><time>2026-08-07T19:18:05.000Z</time></trkpt>
        <trkpt lat="29.5796212" lon="103.3855613"><ele>840.14</ele><time>2026-08-07T19:18:25.000Z</time></trkpt>
        <trkpt lat="29.5796902" lon="103.3854759"><ele>844.96</ele><time>2026-08-07T19:18:39.000Z</time></trkpt>
        <trkpt lat="29.5797737" lon="103.3854284"><ele>848.06</ele><time>2026-08-07T19:19:01.000Z</time></trkpt>
        <trkpt lat="29.579799" lon="103.3854012"><ele>852.65</ele><time>2026-08-07T19:19:05.000Z</time></trkpt>
        <trkpt lat="29.579855" lon="103.385347"><ele>855.26</ele><time>2026-08-07T19:19:19.000Z</time></trkpt>
        <trkpt lat="29.5799444" lon="103.3853064"><ele>858.5</ele><time>2026-08-07T19:19:35.000Z</time></trkpt>
        <trkpt lat="29.5800285" lon="103.385249"><ele>861.01</ele><time>2026-08-07T19:19:55.000Z</time></trkpt>
        <trkpt lat="29.580117" lon="103.385183"><ele>865.05</ele><time>2026-08-07T19:20:09.000Z</time></trkpt>
        <trkpt lat="29.5801847" lon="103.3850968"><ele>867.51</ele><time>2026-08-07T19:20:19.000Z</time></trkpt>
        <trkpt lat="29.5802367" lon="103.3850063"><ele>868.92</ele><time>2026-08-07T19:20:29.000Z</time></trkpt>
        <trkpt lat="29.5802817" lon="103.3849026"><ele>870.74</ele><time>2026-08-07T19:20:43.000Z</time></trkpt>
        <trkpt lat="29.5803454" lon="103.384823"><ele>872.1</ele><time>2026-08-07T19:20:57.000Z</time></trkpt>
        <trkpt lat="29.5804063" lon="103.384732"><ele>871.29</ele><time>2026-08-07T19:21:09.000Z</time></trkpt>
        <trkpt lat="29.5804674" lon="103.384648"><ele>872.68</ele><time>2026-08-07T19:21:21.000Z</time></trkpt>
        <trkpt lat="29.5805374" lon="103.3845776"><ele>873.77</ele><time>2026-08-07T19:21:58.000Z</time></trkpt>
        <trkpt lat="29.5805641" lon="103.3844823"><ele>875.97</ele><time>2026-08-07T19:22:14.000Z</time></trkpt>
        <trkpt lat="29.5806187" lon="103.384406"><ele>878.48</ele><time>2026-08-07T19:28:12.000Z</time></trkpt>
        <trkpt lat="29.580677" lon="103.3843067"><ele>880.28</ele><time>2026-08-07T19:28:32.000Z</time></trkpt>
        <trkpt lat="29.5807532" lon="103.3842386"><ele>883.17</ele><time>2026-08-07T19:28:50.000Z</time></trkpt>
        <trkpt lat="29.5808306" lon="103.3841818"><ele>886.3</ele><time>2026-08-07T19:29:04.000Z</time></trkpt>
        <trkpt lat="29.5809209" lon="103.3841503"><ele>888.16</ele><time>2026-08-07T19:29:22.000Z</time></trkpt>
        <trkpt lat="29.5810166" lon="103.384159"><ele>891.35</ele><time>2026-08-07T19:29:40.000Z</time></trkpt>
        <trkpt lat="29.5810984" lon="103.3842149"><ele>895.32</ele><time>2026-08-07T19:30:00.000Z</time></trkpt>
        <trkpt lat="29.5811707" lon="103.3842937"><ele>898.43</ele><time>2026-08-07T19:30:20.000Z</time></trkpt>
        <trkpt lat="29.5812588" lon="103.3843191"><ele>904.88</ele><time>2026-08-07T19:30:36.000Z</time></trkpt>
        <trkpt lat="29.5813397" lon="103.3843667"><ele>907.89</ele><time>2026-08-07T19:30:54.000Z</time></trkpt>
        <trkpt lat="29.5814161" lon="103.3843235"><ele>912.18</ele><time>2026-08-07T19:31:16.000Z</time></trkpt>
        <trkpt lat="29.5814982" lon="103.3843393"><ele>914.6</ele><time>2026-08-07T19:31:32.000Z</time></trkpt>
        <trkpt lat="29.5815827" lon="103.3843046"><ele>920.35</ele><time>2026-08-07T19:31:56.000Z</time></trkpt>
        <trkpt lat="29.5816043" lon="103.3842121"><ele>923.25</ele><time>2026-08-07T19:32:16.000Z</time></trkpt>
        <trkpt lat="29.5815571" lon="103.3841171"><ele>926.59</ele><time>2026-08-07T19:32:36.000Z</time></trkpt>
        <trkpt lat="29.5815034" lon="103.3840104"><ele>930.5</ele><time>2026-08-07T19:32:52.000Z</time></trkpt>
        <trkpt lat="29.5814604" lon="103.3839035"><ele>934.92</ele><time>2026-08-07T19:33:10.000Z</time></trkpt>
        <trkpt lat="29.581441" lon="103.3837898"><ele>938.58</ele><time>2026-08-07T19:33:26.000Z</time></trkpt>
        <trkpt lat="29.5814928" lon="103.3837104"><ele>940.38</ele><time>2026-08-07T19:33:40.000Z</time></trkpt>
        <trkpt lat="29.5815789" lon="103.3836476"><ele>942.23</ele><time>2026-08-07T19:33:50.000Z</time></trkpt>
        <trkpt lat="29.5816504" lon="103.3835598"><ele>943.61</ele><time>2026-08-07T19:34:00.000Z</time></trkpt>
        <trkpt lat="29.581724" lon="103.3834867"><ele>943.88</ele><time>2026-08-07T19:34:08.000Z</time></trkpt>
        <trkpt lat="29.5817912" lon="103.3834087"><ele>943.45</ele><time>2026-08-07T19:34:18.000Z</time></trkpt>
        <trkpt lat="29.581857" lon="103.383317"><ele>944.75</ele><time>2026-08-07T19:34:28.000Z</time></trkpt>
        <trkpt lat="29.5819222" lon="103.3832352"><ele>945.49</ele><time>2026-08-07T19:34:36.000Z</time></trkpt>
        <trkpt lat="29.5819221" lon="103.3831298"><ele>945.78</ele><time>2026-08-07T19:34:48.000Z</time></trkpt>
        <trkpt lat="29.5818943" lon="103.3830266"><ele>947.8</ele><time>2026-08-07T19:35:02.000Z</time></trkpt>
        <trkpt lat="29.581877" lon="103.3829176"><ele>950.07</ele><time>2026-08-07T19:35:18.000Z</time></trkpt>
        <trkpt lat="29.5818827" lon="103.382805"><ele>951.83</ele><time>2026-08-07T19:35:36.000Z</time></trkpt>
        <trkpt lat="29.5819048" lon="103.3826869"><ele>953.79</ele><time>2026-08-07T19:35:46.000Z</time></trkpt>
        <trkpt lat="29.5819416" lon="103.3825684"><ele>955.45</ele><time>2026-08-07T19:36:04.000Z</time></trkpt>
        <trkpt lat="29.58199" lon="103.3824574"><ele>954.44</ele><time>2026-08-07T19:36:14.000Z</time></trkpt>
        <trkpt lat="29.582047" lon="103.3823544"><ele>952.78</ele><time>2026-08-07T19:36:24.000Z</time></trkpt>
        <trkpt lat="29.5820909" lon="103.3822513"><ele>953.02</ele><time>2026-08-07T19:36:34.000Z</time></trkpt>
        <trkpt lat="29.5821283" lon="103.3821434"><ele>952.17</ele><time>2026-08-07T19:36:46.000Z</time></trkpt>
        <trkpt lat="29.5821532" lon="103.3820308"><ele>951.51</ele><time>2026-08-07T19:36:58.000Z</time></trkpt>
        <trkpt lat="29.5822003" lon="103.3819409"><ele>952.06</ele><time>2026-08-07T19:37:08.000Z</time></trkpt>
        <trkpt lat="29.5822776" lon="103.3818806"><ele>952.29</ele><time>2026-08-07T19:37:18.000Z</time></trkpt>
        <trkpt lat="29.5823705" lon="103.3818153"><ele>952.83</ele><time>2026-08-07T19:37:28.000Z</time></trkpt>
        <trkpt lat="29.5824338" lon="103.3817218"><ele>954.43</ele><time>2026-08-07T19:37:38.000Z</time></trkpt>
        <trkpt lat="29.5824726" lon="103.3816184"><ele>957.57</ele><time>2026-08-07T19:37:52.000Z</time></trkpt>
        <trkpt lat="29.5825205" lon="103.3815292"><ele>958.08</ele><time>2026-08-07T19:38:02.000Z</time></trkpt>
        <trkpt lat="29.5825773" lon="103.3814347"><ele>956.99</ele><time>2026-08-07T19:38:12.000Z</time></trkpt>
        <trkpt lat="29.582632" lon="103.3813366"><ele>956.52</ele><time>2026-08-07T19:38:22.000Z</time></trkpt>
        <trkpt lat="29.5826869" lon="103.3812277"><ele>955.56</ele><time>2026-08-07T19:38:32.000Z</time></trkpt>
        <trkpt lat="29.5827484" lon="103.3811202"><ele>954.94</ele><time>2026-08-07T19:38:42.000Z</time></trkpt>
        <trkpt lat="29.5827514" lon="103.3810059"><ele>953.79</ele><time>2026-08-07T19:38:52.000Z</time></trkpt>
        <trkpt lat="29.5827321" lon="103.3808817"><ele>953.62</ele><time>2026-08-07T19:39:02.000Z</time></trkpt>
        <trkpt lat="29.5827452" lon="103.3807719"><ele>953.01</ele><time>2026-08-07T19:39:10.000Z</time></trkpt>
        <trkpt lat="29.5827714" lon="103.3806659"><ele>954.18</ele><time>2026-08-07T19:39:20.000Z</time></trkpt>
        <trkpt lat="29.5828016" lon="103.3805589"><ele>955.46</ele><time>2026-08-07T19:39:30.000Z</time></trkpt>
        <trkpt lat="29.5828514" lon="103.3804627"><ele>956.42</ele><time>2026-08-07T19:39:40.000Z</time></trkpt>
        <trkpt lat="29.5828879" lon="103.3803766"><ele>956.79</ele><time>2026-08-07T19:39:58.000Z</time></trkpt>
        <trkpt lat="29.5829299" lon="103.3802702"><ele>956.93</ele><time>2026-08-07T19:40:50.000Z</time></trkpt>
        <trkpt lat="29.582978" lon="103.3801757"><ele>956.99</ele><time>2026-08-07T19:40:58.000Z</time></trkpt>
        <trkpt lat="29.5830333" lon="103.3800699"><ele>957.23</ele><time>2026-08-07T19:41:08.000Z</time></trkpt>
        <trkpt lat="29.5830812" lon="103.3799682"><ele>957.4</ele><time>2026-08-07T19:41:16.000Z</time></trkpt>
        <trkpt lat="29.5830539" lon="103.3798731"><ele>957.99</ele><time>2026-08-07T19:41:26.000Z</time></trkpt>
        <trkpt lat="29.5830338" lon="103.3797697"><ele>959.33</ele><time>2026-08-07T19:41:36.000Z</time></trkpt>
        <trkpt lat="29.5829878" lon="103.3796665"><ele>963.88</ele><time>2026-08-07T19:41:50.000Z</time></trkpt>
        <trkpt lat="29.5829673" lon="103.3795584"><ele>967.88</ele><time>2026-08-07T19:42:10.000Z</time></trkpt>
        <trkpt lat="29.5830023" lon="103.379466"><ele>970.04</ele><time>2026-08-07T19:42:28.000Z</time></trkpt>
        <trkpt lat="29.5829387" lon="103.3794665"><ele>973.76</ele><time>2026-08-07T19:42:46.000Z</time></trkpt>
        <trkpt lat="29.5828593" lon="103.3795264"><ele>976.57</ele><time>2026-08-07T19:42:54.000Z</time></trkpt>
        <trkpt lat="29.5827545" lon="103.3795892"><ele>977.68</ele><time>2026-08-07T19:43:04.000Z</time></trkpt>
        <trkpt lat="29.5826905" lon="103.3795267"><ele>978.35</ele><time>2026-08-07T19:43:14.000Z</time></trkpt>
        <trkpt lat="29.5826929" lon="103.3794105"><ele>978.92</ele><time>2026-08-07T19:43:24.000Z</time></trkpt>
        <trkpt lat="29.582744" lon="103.3792839"><ele>981.03</ele><time>2026-08-07T19:43:32.000Z</time></trkpt>
        <trkpt lat="29.5828451" lon="103.379238"><ele>981.34</ele><time>2026-08-07T19:43:42.000Z</time></trkpt>
        <trkpt lat="29.5828892" lon="103.3792317"><ele>981.39</ele><time>2026-08-07T19:43:46.000Z</time></trkpt>
        <trkpt lat="29.5829525" lon="103.3791804"><ele>981.28</ele><time>2026-08-07T19:44:04.000Z</time></trkpt>
        <trkpt lat="29.582993" lon="103.3790849"><ele>982.12</ele><time>2026-08-07T19:44:16.000Z</time></trkpt>
        <trkpt lat="29.5830179" lon="103.3789769"><ele>984.24</ele><time>2026-08-07T19:44:26.000Z</time></trkpt>
        <trkpt lat="29.5830524" lon="103.3788655"><ele>986.28</ele><time>2026-08-07T19:45:10.000Z</time></trkpt>
        <trkpt lat="29.5830286" lon="103.3787634"><ele>988.73</ele><time>2026-08-07T19:45:24.000Z</time></trkpt>
        <trkpt lat="29.5829696" lon="103.3786735"><ele>991.32</ele><time>2026-08-07T19:45:42.000Z</time></trkpt>
        <trkpt lat="29.5828887" lon="103.3786104"><ele>994.05</ele><time>2026-08-07T19:45:58.000Z</time></trkpt>
        <trkpt lat="29.5827919" lon="103.3785719"><ele>996.38</ele><time>2026-08-07T19:46:14.000Z</time></trkpt>
        <trkpt lat="29.5827298" lon="103.3784948"><ele>998.21</ele><time>2026-08-07T19:46:30.000Z</time></trkpt>
        <trkpt lat="29.582656" lon="103.3784093"><ele>1001.32</ele><time>2026-08-07T19:46:42.000Z</time></trkpt>
        <trkpt lat="29.5825835" lon="103.3783324"><ele>1005.51</ele><time>2026-08-07T19:46:52.000Z</time></trkpt>
        <trkpt lat="29.5824898" lon="103.3782976"><ele>1009.84</ele><time>2026-08-07T19:47:08.000Z</time></trkpt>
        <trkpt lat="29.5824052" lon="103.3782423"><ele>1012.94</ele><time>2026-08-07T19:47:30.000Z</time></trkpt>
        <trkpt lat="29.5823882" lon="103.3781416"><ele>1017.07</ele><time>2026-08-07T19:47:48.000Z</time></trkpt>
        <trkpt lat="29.5823892" lon="103.378031"><ele>1021.67</ele><time>2026-08-07T19:48:04.000Z</time></trkpt>
        <trkpt lat="29.58238" lon="103.377916"><ele>1026.39</ele><time>2026-08-07T19:48:20.000Z</time></trkpt>
        <trkpt lat="29.5823777" lon="103.3778045"><ele>1029.46</ele><time>2026-08-07T19:48:30.000Z</time></trkpt>
        <trkpt lat="29.5823762" lon="103.3776951"><ele>1030.38</ele><time>2026-08-07T19:48:42.000Z</time></trkpt>
        <trkpt lat="29.582383" lon="103.3775826"><ele>1032.12</ele><time>2026-08-07T19:48:58.000Z</time></trkpt>
        <trkpt lat="29.5824142" lon="103.3774771"><ele>1035.97</ele><time>2026-08-07T19:49:18.000Z</time></trkpt>
        <trkpt lat="29.5823854" lon="103.3773847"><ele>1038.78</ele><time>2026-08-07T19:49:48.000Z</time></trkpt>
        <trkpt lat="29.5823225" lon="103.3772951"><ele>1042.52</ele><time>2026-08-07T19:50:10.000Z</time></trkpt>
        <trkpt lat="29.5822428" lon="103.3772249"><ele>1046.4</ele><time>2026-08-07T19:50:26.000Z</time></trkpt>
        <trkpt lat="29.5822229" lon="103.3771267"><ele>1050.61</ele><time>2026-08-07T19:50:40.000Z</time></trkpt>
        <trkpt lat="29.5821537" lon="103.377112"><ele>1055.24</ele><time>2026-08-07T19:51:06.000Z</time></trkpt>
        <trkpt lat="29.5821064" lon="103.3770562"><ele>1057.88</ele><time>2026-08-07T19:51:34.000Z</time></trkpt>
        <trkpt lat="29.5820882" lon="103.3769573"><ele>1063.12</ele><time>2026-08-07T19:51:56.000Z</time></trkpt>
        <trkpt lat="29.58213" lon="103.3768649"><ele>1068.14</ele><time>2026-08-07T19:52:08.000Z</time></trkpt>
        <trkpt lat="29.5821264" lon="103.3767635"><ele>1071.7</ele><time>2026-08-07T19:52:32.000Z</time></trkpt>
        <trkpt lat="29.5820518" lon="103.3767337"><ele>1075.53</ele><time>2026-08-07T19:52:48.000Z</time></trkpt>
        <trkpt lat="29.5819959" lon="103.3766561"><ele>1080.32</ele><time>2026-08-07T19:53:06.000Z</time></trkpt>
        <trkpt lat="29.5819729" lon="103.3765524"><ele>1084.61</ele><time>2026-08-07T19:53:34.000Z</time></trkpt>
        <trkpt lat="29.5818998" lon="103.3764996"><ele>1091.17</ele><time>2026-08-07T19:54:00.000Z</time></trkpt>
        <trkpt lat="29.5818039" lon="103.3764735"><ele>1096.1</ele><time>2026-08-07T19:54:22.000Z</time></trkpt>
        <trkpt lat="29.5817372" lon="103.3764013"><ele>1100.41</ele><time>2026-08-07T19:54:58.000Z</time></trkpt>
        <trkpt lat="29.5817773" lon="103.3763312"><ele>1107.24</ele><time>2026-08-07T19:55:14.000Z</time></trkpt>
        <trkpt lat="29.581794" lon="103.3762348"><ele>1112.86</ele><time>2026-08-07T19:55:26.000Z</time></trkpt>
        <trkpt lat="29.5817605" lon="103.3761851"><ele>1118.51</ele><time>2026-08-07T19:55:48.000Z</time></trkpt>
        <trkpt lat="29.5816856" lon="103.376226"><ele>1120.59</ele><time>2026-08-07T19:56:24.000Z</time></trkpt>
        <trkpt lat="29.5815886" lon="103.3762803"><ele>1127.05</ele><time>2026-08-07T19:56:48.000Z</time></trkpt>
        <trkpt lat="29.5814868" lon="103.3762764"><ele>1133.92</ele><time>2026-08-07T19:57:00.000Z</time></trkpt>
        <trkpt lat="29.5813944" lon="103.3762425"><ele>1138.83</ele><time>2026-08-07T19:57:16.000Z</time></trkpt>
        <trkpt lat="29.58132" lon="103.3762844"><ele>1143.14</ele><time>2026-08-07T19:57:32.000Z</time></trkpt>
        <trkpt lat="29.5812614" lon="103.3763624"><ele>1144.7</ele><time>2026-08-07T19:57:48.000Z</time></trkpt>
        <trkpt lat="29.5812082" lon="103.3764539"><ele>1146.35</ele><time>2026-08-07T19:58:02.000Z</time></trkpt>
        <trkpt lat="29.5812174" lon="103.3764958"><ele>1153.57</ele><time>2026-08-07T19:58:12.000Z</time></trkpt>
        <trkpt lat="29.5811586" lon="103.3764502"><ele>1158.2</ele><time>2026-08-07T19:58:28.000Z</time></trkpt>
        <trkpt lat="29.5811158" lon="103.3765095"><ele>1161.29</ele><time>2026-08-07T19:58:46.000Z</time></trkpt>
        <trkpt lat="29.5810841" lon="103.3765303"><ele>1166.12</ele><time>2026-08-07T19:58:56.000Z</time></trkpt>
        <trkpt lat="29.5810182" lon="103.3764777"><ele>1170.76</ele><time>2026-08-07T19:59:22.000Z</time></trkpt>
        <trkpt lat="29.5809259" lon="103.3764488"><ele>1174.8</ele><time>2026-08-07T19:59:54.000Z</time></trkpt>
        <trkpt lat="29.5809066" lon="103.3763563"><ele>1180.21</ele><time>2026-08-07T20:00:06.000Z</time></trkpt>
        <trkpt lat="29.5809741" lon="103.376293"><ele>1182.21</ele><time>2026-08-07T20:00:18.000Z</time></trkpt>
        <trkpt lat="29.5809953" lon="103.3761976"><ele>1185.76</ele><time>2026-08-07T20:00:38.000Z</time></trkpt>
        <trkpt lat="29.5809457" lon="103.3762191"><ele>1190.38</ele><time>2026-08-07T20:01:00.000Z</time></trkpt>
        <trkpt lat="29.5808461" lon="103.376214"><ele>1194.52</ele><time>2026-08-07T20:01:12.000Z</time></trkpt>
        <trkpt lat="29.5807586" lon="103.3762647"><ele>1197.23</ele><time>2026-08-07T20:01:30.000Z</time></trkpt>
        <trkpt lat="29.5806611" lon="103.3763344"><ele>1199.11</ele><time>2026-08-07T20:01:40.000Z</time></trkpt>
        <trkpt lat="29.5805537" lon="103.3763521"><ele>1203.9</ele><time>2026-08-07T20:01:50.000Z</time></trkpt>
        <trkpt lat="29.580457" lon="103.3763785"><ele>1206.3</ele><time>2026-08-07T20:01:58.000Z</time></trkpt>
        <trkpt lat="29.5804148" lon="103.3763873"><ele>1207.09</ele><time>2026-08-07T20:02:04.000Z</time></trkpt>
        <trkpt lat="29.5803458" lon="103.3763479"><ele>1207.59</ele><time>2026-08-07T20:30:23.000Z</time></trkpt>
        <trkpt lat="29.5802911" lon="103.3763261"><ele>1207.74</ele><time>2026-08-07T20:30:33.000Z</time></trkpt>
        <trkpt lat="29.5801921" lon="103.3763029"><ele>1207.51</ele><time>2026-08-07T20:31:01.000Z</time></trkpt>
        <trkpt lat="29.5800864" lon="103.3762789"><ele>1207.89</ele><time>2026-08-07T20:31:11.000Z</time></trkpt>
        <trkpt lat="29.5800254" lon="103.3761881"><ele>1208.54</ele><time>2026-08-07T20:31:21.000Z</time></trkpt>
        <trkpt lat="29.5799601" lon="103.376098"><ele>1207.86</ele><time>2026-08-07T20:31:31.000Z</time></trkpt>
        <trkpt lat="29.5799129" lon="103.3759874"><ele>1207.65</ele><time>2026-08-07T20:31:51.000Z</time></trkpt>
        <trkpt lat="29.5798708" lon="103.375876"><ele>1207.74</ele><time>2026-08-07T20:32:01.000Z</time></trkpt>
        <trkpt lat="29.5798365" lon="103.3757655"><ele>1207.93</ele><time>2026-08-07T20:32:11.000Z</time></trkpt>
        <trkpt lat="29.5798368" lon="103.3756557"><ele>1207.83</ele><time>2026-08-07T20:32:29.000Z</time></trkpt>
        <trkpt lat="29.5799084" lon="103.3755895"><ele>1207.54</ele><time>2026-08-07T20:32:43.000Z</time></trkpt>
        <trkpt lat="29.5799995" lon="103.3755381"><ele>1208.05</ele><time>2026-08-07T20:33:09.000Z</time></trkpt>
        <trkpt lat="29.5800876" lon="103.3754822"><ele>1209.3</ele><time>2026-08-07T20:33:29.000Z</time></trkpt>
        <trkpt lat="29.5801789" lon="103.3755046"><ele>1210.45</ele><time>2026-08-07T20:33:51.000Z</time></trkpt>
        <trkpt lat="29.5802716" lon="103.3755158"><ele>1215.22</ele><time>2026-08-07T20:34:37.000Z</time></trkpt>
        <trkpt lat="29.5803704" lon="103.3755182"><ele>1221.84</ele><time>2026-08-07T20:35:05.000Z</time></trkpt>
        <trkpt lat="29.5804605" lon="103.3754886"><ele>1225.7</ele><time>2026-08-07T20:35:39.000Z</time></trkpt>
        <trkpt lat="29.5805312" lon="103.3754191"><ele>1230.06</ele><time>2026-08-07T20:36:03.000Z</time></trkpt>
        <trkpt lat="29.5806175" lon="103.3754133"><ele>1234.25</ele><time>2026-08-07T20:36:29.000Z</time></trkpt>
        <trkpt lat="29.5807084" lon="103.3754004"><ele>1238.55</ele><time>2026-08-07T20:36:43.000Z</time></trkpt>
        <trkpt lat="29.5807226" lon="103.3753157"><ele>1242.61</ele><time>2026-08-07T20:37:06.000Z</time></trkpt>
        <trkpt lat="29.5807242" lon="103.3751928"><ele>1246.48</ele><time>2026-08-07T20:39:36.000Z</time></trkpt>
        <trkpt lat="29.5806842" lon="103.3750932"><ele>1251.06</ele><time>2026-08-07T20:40:02.000Z</time></trkpt>
        <trkpt lat="29.5807088" lon="103.3749951"><ele>1255.44</ele><time>2026-08-07T20:40:40.000Z</time></trkpt>
        <trkpt lat="29.5807068" lon="103.3748932"><ele>1261.88</ele><time>2026-08-07T20:41:31.000Z</time></trkpt>
        <trkpt lat="29.5806754" lon="103.3747969"><ele>1267.86</ele><time>2026-08-07T20:42:03.000Z</time></trkpt>
        <trkpt lat="29.580664" lon="103.3746918"><ele>1274.36</ele><time>2026-08-07T20:42:27.000Z</time></trkpt>
        <trkpt lat="29.5806704" lon="103.374585"><ele>1278.89</ele><time>2026-08-07T20:42:49.000Z</time></trkpt>
        <trkpt lat="29.5806596" lon="103.3744727"><ele>1284.37</ele><time>2026-08-07T20:43:09.000Z</time></trkpt>
        <trkpt lat="29.5806599" lon="103.3743561"><ele>1289.74</ele><time>2026-08-07T20:43:29.000Z</time></trkpt>
        <trkpt lat="29.5806856" lon="103.3742471"><ele>1293.81</ele><time>2026-08-07T20:43:49.000Z</time></trkpt>
        <trkpt lat="29.5806879" lon="103.3741428"><ele>1297.18</ele><time>2026-08-07T20:44:09.000Z</time></trkpt>
        <trkpt lat="29.5806985" lon="103.374041"><ele>1301.31</ele><time>2026-08-07T20:44:35.000Z</time></trkpt>
        <trkpt lat="29.5806955" lon="103.3739808"><ele>1304.76</ele><time>2026-08-07T20:44:41.000Z</time></trkpt>
        <trkpt lat="29.580623" lon="103.373929"><ele>1305.77</ele><time>2026-08-07T20:47:17.000Z</time></trkpt>
        <trkpt lat="29.5805646" lon="103.3738481"><ele>1307.33</ele><time>2026-08-07T20:47:31.000Z</time></trkpt>
        <trkpt lat="29.5804827" lon="103.3737983"><ele>1309.14</ele><time>2026-08-07T20:47:47.000Z</time></trkpt>
        <trkpt lat="29.5804101" lon="103.3737358"><ele>1312.74</ele><time>2026-08-07T20:48:03.000Z</time></trkpt>
        <trkpt lat="29.580327" lon="103.3736638"><ele>1314.1</ele><time>2026-08-07T20:48:18.000Z</time></trkpt>
        <trkpt lat="29.5802499" lon="103.3735831"><ele>1314.5</ele><time>2026-08-07T20:48:31.000Z</time></trkpt>
        <trkpt lat="29.5801854" lon="103.3734908"><ele>1314.85</ele><time>2026-08-07T20:48:51.000Z</time></trkpt>
        <trkpt lat="29.580128" lon="103.3734016"><ele>1316.41</ele><time>2026-08-07T20:49:01.000Z</time></trkpt>
        <trkpt lat="29.580074" lon="103.3733151"><ele>1317.87</ele><time>2026-08-07T20:49:15.000Z</time></trkpt>
        <trkpt lat="29.5800093" lon="103.3732258"><ele>1321.37</ele><time>2026-08-07T20:49:33.000Z</time></trkpt>
        <trkpt lat="29.579931" lon="103.3731688"><ele>1324.04</ele><time>2026-08-07T20:49:47.000Z</time></trkpt>
        <trkpt lat="29.5798478" lon="103.3731145"><ele>1325.48</ele><time>2026-08-07T20:50:15.000Z</time></trkpt>
        <trkpt lat="29.5797823" lon="103.3730363"><ele>1328.04</ele><time>2026-08-07T20:50:39.000Z</time></trkpt>
        <trkpt lat="29.579723" lon="103.3729501"><ele>1333.05</ele><time>2026-08-07T20:51:07.000Z</time></trkpt>
        <trkpt lat="29.579653" lon="103.3728797"><ele>1337.23</ele><time>2026-08-07T20:51:33.000Z</time></trkpt>
        <trkpt lat="29.5795919" lon="103.3727975"><ele>1341.94</ele><time>2026-08-07T20:51:59.000Z</time></trkpt>
        <trkpt lat="29.5795027" lon="103.3727768"><ele>1347.04</ele><time>2026-08-07T20:52:15.000Z</time></trkpt>
        <trkpt lat="29.5794166" lon="103.3727224"><ele>1351.61</ele><time>2026-08-07T20:52:33.000Z</time></trkpt>
        <trkpt lat="29.5793637" lon="103.3726314"><ele>1355.29</ele><time>2026-08-07T20:52:45.000Z</time></trkpt>
        <trkpt lat="29.5792946" lon="103.3725526"><ele>1358.47</ele><time>2026-08-07T20:53:01.000Z</time></trkpt>
        <trkpt lat="29.5792139" lon="103.3724946"><ele>1361.61</ele><time>2026-08-07T20:53:15.000Z</time></trkpt>
        <trkpt lat="29.5791245" lon="103.3724576"><ele>1364.79</ele><time>2026-08-07T20:53:27.000Z</time></trkpt>
        <trkpt lat="29.5790307" lon="103.3724522"><ele>1366.83</ele><time>2026-08-07T20:53:39.000Z</time></trkpt>
        <trkpt lat="29.5789543" lon="103.3723911"><ele>1370.09</ele><time>2026-08-07T20:53:55.000Z</time></trkpt>
        <trkpt lat="29.578884" lon="103.3723106"><ele>1371.53</ele><time>2026-08-07T20:54:19.000Z</time></trkpt>
        <trkpt lat="29.5787964" lon="103.372256"><ele>1373.17</ele><time>2026-08-07T20:54:37.000Z</time></trkpt>
        <trkpt lat="29.5787124" lon="103.3721989"><ele>1374.86</ele><time>2026-08-07T20:54:47.000Z</time></trkpt>
        <trkpt lat="29.5786474" lon="103.3721096"><ele>1376.15</ele><time>2026-08-07T20:54:57.000Z</time></trkpt>
        <trkpt lat="29.5785871" lon="103.3720213"><ele>1376.08</ele><time>2026-08-07T20:55:19.000Z</time></trkpt>
        <trkpt lat="29.5785065" lon="103.3719619"><ele>1377.84</ele><time>2026-08-07T20:55:33.000Z</time></trkpt>
        <trkpt lat="29.5784311" lon="103.3718998"><ele>1379.28</ele><time>2026-08-07T20:55:51.000Z</time></trkpt>
        <trkpt lat="29.57838" lon="103.3718169"><ele>1383.19</ele><time>2026-08-07T20:56:11.000Z</time></trkpt>
        <trkpt lat="29.5783635" lon="103.3717152"><ele>1384.04</ele><time>2026-08-07T20:56:21.000Z</time></trkpt>
        <trkpt lat="29.5783137" lon="103.3716184"><ele>1385.38</ele><time>2026-08-07T20:56:31.000Z</time></trkpt>
        <trkpt lat="29.5782262" lon="103.3715563"><ele>1388.34</ele><time>2026-08-07T20:56:44.000Z</time></trkpt>
        <trkpt lat="29.5781368" lon="103.3715052"><ele>1389.72</ele><time>2026-08-07T20:57:16.000Z</time></trkpt>
        <trkpt lat="29.5780581" lon="103.3714428"><ele>1394.93</ele><time>2026-08-07T20:57:39.000Z</time></trkpt>
        <trkpt lat="29.5779749" lon="103.3713864"><ele>1399.55</ele><time>2026-08-07T20:57:57.000Z</time></trkpt>
        <trkpt lat="29.5778904" lon="103.3713281"><ele>1403.35</ele><time>2026-08-07T20:58:19.000Z</time></trkpt>
        <trkpt lat="29.5778184" lon="103.3712613"><ele>1409.16</ele><time>2026-08-07T20:58:37.000Z</time></trkpt>
        <trkpt lat="29.5777446" lon="103.3711815"><ele>1412.77</ele><time>2026-08-07T20:59:01.000Z</time></trkpt>
        <trkpt lat="29.5776627" lon="103.3711237"><ele>1416.87</ele><time>2026-08-07T20:59:21.000Z</time></trkpt>
        <trkpt lat="29.577595" lon="103.3710458"><ele>1420.2</ele><time>2026-08-07T21:00:04.000Z</time></trkpt>
        <trkpt lat="29.5775845" lon="103.3709827"><ele>1424.11</ele><time>2026-08-07T21:00:12.000Z</time></trkpt>
        <trkpt lat="29.5775222" lon="103.3710263"><ele>1426.74</ele><time>2026-08-07T21:04:13.000Z</time></trkpt>
        <trkpt lat="29.5775" lon="103.3709043"><ele>1428.53</ele><time>2026-08-07T21:04:25.000Z</time></trkpt>
        <trkpt lat="29.5774682" lon="103.370799"><ele>1430.73</ele><time>2026-08-07T21:04:35.000Z</time></trkpt>
        <trkpt lat="29.5774384" lon="103.3706972"><ele>1431.22</ele><time>2026-08-07T21:04:46.000Z</time></trkpt>
        <trkpt lat="29.5773597" lon="103.3706189"><ele>1431.43</ele><time>2026-08-07T21:05:02.000Z</time></trkpt>
        <trkpt lat="29.5772981" lon="103.370536"><ele>1432.72</ele><time>2026-08-07T21:05:10.000Z</time></trkpt>
        <trkpt lat="29.5772291" lon="103.3704465"><ele>1433.75</ele><time>2026-08-07T21:05:22.000Z</time></trkpt>
        <trkpt lat="29.5771695" lon="103.3703425"><ele>1433.4</ele><time>2026-08-07T21:05:36.000Z</time></trkpt>
        <trkpt lat="29.5771007" lon="103.3702528"><ele>1433.56</ele><time>2026-08-07T21:06:06.000Z</time></trkpt>
        <trkpt lat="29.5770258" lon="103.3701889"><ele>1433.76</ele><time>2026-08-07T21:06:22.000Z</time></trkpt>
        <trkpt lat="29.5769785" lon="103.3701008"><ele>1431.98</ele><time>2026-08-07T21:06:34.000Z</time></trkpt>
        <trkpt lat="29.576971" lon="103.3699861"><ele>1431.78</ele><time>2026-08-07T21:06:44.000Z</time></trkpt>
        <trkpt lat="29.5769717" lon="103.3699697"><ele>1433.68</ele><time>2026-08-07T21:06:46.000Z</time></trkpt>
        <trkpt lat="29.5769792" lon="103.3698884"><ele>1432.77</ele><time>2026-08-07T21:07:02.000Z</time></trkpt>
        <trkpt lat="29.5769771" lon="103.3697758"><ele>1433.71</ele><time>2026-08-07T21:07:12.000Z</time></trkpt>
        <trkpt lat="29.5769556" lon="103.3696632"><ele>1435.33</ele><time>2026-08-07T21:07:22.000Z</time></trkpt>
        <trkpt lat="29.5769616" lon="103.3695555"><ele>1436.55</ele><time>2026-08-07T21:07:34.000Z</time></trkpt>
        <trkpt lat="29.5769542" lon="103.3694461"><ele>1435.2</ele><time>2026-08-07T21:07:46.000Z</time></trkpt>
        <trkpt lat="29.5769451" lon="103.3693364"><ele>1434.5</ele><time>2026-08-07T21:07:58.000Z</time></trkpt>
        <trkpt lat="29.5769369" lon="103.3692253"><ele>1435.4</ele><time>2026-08-07T21:08:12.000Z</time></trkpt>
        <trkpt lat="29.5769436" lon="103.3691128"><ele>1436.45</ele><time>2026-08-07T21:08:24.000Z</time></trkpt>
        <trkpt lat="29.5769605" lon="103.369003"><ele>1438.6</ele><time>2026-08-07T21:08:36.000Z</time></trkpt>
        <trkpt lat="29.5769681" lon="103.3688902"><ele>1440.41</ele><time>2026-08-07T21:08:48.000Z</time></trkpt>
        <trkpt lat="29.5769722" lon="103.3687805"><ele>1441.75</ele><time>2026-08-07T21:08:58.000Z</time></trkpt>
        <trkpt lat="29.5769757" lon="103.3686651"><ele>1441.82</ele><time>2026-08-07T21:09:08.000Z</time></trkpt>
        <trkpt lat="29.5769853" lon="103.3685489"><ele>1440.98</ele><time>2026-08-07T21:09:18.000Z</time></trkpt>
        <trkpt lat="29.5770068" lon="103.3684319"><ele>1439.68</ele><time>2026-08-07T21:09:28.000Z</time></trkpt>
        <trkpt lat="29.5770397" lon="103.368324"><ele>1438.75</ele><time>2026-08-07T21:09:38.000Z</time></trkpt>
        <trkpt lat="29.577058" lon="103.3682064"><ele>1438.14</ele><time>2026-08-07T21:10:12.000Z</time></trkpt>
        <trkpt lat="29.5770643" lon="103.3680938"><ele>1439.63</ele><time>2026-08-07T21:10:30.000Z</time></trkpt>
        <trkpt lat="29.5770884" lon="103.36799"><ele>1440.55</ele><time>2026-08-07T21:10:54.000Z</time></trkpt>
        <trkpt lat="29.5771292" lon="103.3678976"><ele>1441.83</ele><time>2026-08-07T21:11:20.000Z</time></trkpt>
        <trkpt lat="29.5772053" lon="103.3678394"><ele>1443.81</ele><time>2026-08-07T21:11:44.000Z</time></trkpt>
        <trkpt lat="29.5772455" lon="103.3677497"><ele>1449.09</ele><time>2026-08-07T21:12:08.000Z</time></trkpt>
        <trkpt lat="29.5772376" lon="103.3676476"><ele>1456.02</ele><time>2026-08-07T21:12:34.000Z</time></trkpt>
        <trkpt lat="29.5771647" lon="103.3675536"><ele>1464.62</ele><time>2026-08-07T21:12:52.000Z</time></trkpt>
        <trkpt lat="29.5770958" lon="103.3674577"><ele>1468.21</ele><time>2026-08-07T21:13:00.000Z</time></trkpt>
        <trkpt lat="29.5770411" lon="103.3673648"><ele>1471.55</ele><time>2026-08-07T21:13:10.000Z</time></trkpt>
        <trkpt lat="29.5769853" lon="103.3672774"><ele>1473.56</ele><time>2026-08-07T21:13:20.000Z</time></trkpt>
        <trkpt lat="29.5769029" lon="103.3672182"><ele>1474.88</ele><time>2026-08-07T21:13:32.000Z</time></trkpt>
        <trkpt lat="29.5768057" lon="103.3671781"><ele>1474.85</ele><time>2026-08-07T21:13:44.000Z</time></trkpt>
        <trkpt lat="29.5767266" lon="103.3671137"><ele>1472.22</ele><time>2026-08-07T21:13:56.000Z</time></trkpt>
        <trkpt lat="29.5766606" lon="103.3670315"><ele>1470.15</ele><time>2026-08-07T21:14:16.000Z</time></trkpt>
        <trkpt lat="29.5766043" lon="103.366936"><ele>1467.48</ele><time>2026-08-07T21:14:26.000Z</time></trkpt>
        <trkpt lat="29.5765424" lon="103.3668466"><ele>1465.76</ele><time>2026-08-07T21:14:36.000Z</time></trkpt>
        <trkpt lat="29.5764904" lon="103.3667407"><ele>1465.57</ele><time>2026-08-07T21:14:46.000Z</time></trkpt>
        <trkpt lat="29.5764724" lon="103.3666334"><ele>1467.64</ele><time>2026-08-07T21:14:58.000Z</time></trkpt>
        <trkpt lat="29.5764292" lon="103.3665352"><ele>1469.2</ele><time>2026-08-07T21:15:06.000Z</time></trkpt>
        <trkpt lat="29.5763838" lon="103.3664419"><ele>1471.31</ele><time>2026-08-07T21:15:20.000Z</time></trkpt>
        <trkpt lat="29.5763082" lon="103.3663634"><ele>1471.27</ele><time>2026-08-07T21:15:32.000Z</time></trkpt>
        <trkpt lat="29.5762792" lon="103.3662616"><ele>1468.78</ele><time>2026-08-07T21:15:46.000Z</time></trkpt>
        <trkpt lat="29.5762715" lon="103.3661557"><ele>1466.77</ele><time>2026-08-07T21:16:00.000Z</time></trkpt>
        <trkpt lat="29.5762298" lon="103.3660965"><ele>1464.24</ele><time>2026-08-07T21:16:20.000Z</time></trkpt>
        <trkpt lat="29.5761799" lon="103.3660125"><ele>1459.91</ele><time>2026-08-07T21:16:56.000Z</time></trkpt>
        <trkpt lat="29.5761199" lon="103.3659321"><ele>1456.5</ele><time>2026-08-07T21:17:08.000Z</time></trkpt>
        <trkpt lat="29.5760442" lon="103.3658636"><ele>1453.37</ele><time>2026-08-07T21:17:26.000Z</time></trkpt>
        <trkpt lat="29.5759539" lon="103.3658047"><ele>1450.68</ele><time>2026-08-07T21:17:42.000Z</time></trkpt>
        <trkpt lat="29.5758666" lon="103.36576"><ele>1446.61</ele><time>2026-08-07T21:17:56.000Z</time></trkpt>
        <trkpt lat="29.5757821" lon="103.3657078"><ele>1443.52</ele><time>2026-08-07T21:18:10.000Z</time></trkpt>
        <trkpt lat="29.5756932" lon="103.3656724"><ele>1439.62</ele><time>2026-08-07T21:18:24.000Z</time></trkpt>
        <trkpt lat="29.5756154" lon="103.3656133"><ele>1435.97</ele><time>2026-08-07T21:18:36.000Z</time></trkpt>
        <trkpt lat="29.5755568" lon="103.3655279"><ele>1432.55</ele><time>2026-08-07T21:19:00.000Z</time></trkpt>
        <trkpt lat="29.5754761" lon="103.3655273"><ele>1431.05</ele><time>2026-08-07T21:19:24.000Z</time></trkpt>
        <trkpt lat="29.5753854" lon="103.3655098"><ele>1433.28</ele><time>2026-08-07T21:19:48.000Z</time></trkpt>
        <trkpt lat="29.5753356" lon="103.3654339"><ele>1435.96</ele><time>2026-08-07T21:20:06.000Z</time></trkpt>
        <trkpt lat="29.5752596" lon="103.3653767"><ele>1438.23</ele><time>2026-08-07T21:20:29.000Z</time></trkpt>
        <trkpt lat="29.5751868" lon="103.3653096"><ele>1442.61</ele><time>2026-08-07T21:21:03.000Z</time></trkpt>
        <trkpt lat="29.5751318" lon="103.3652212"><ele>1448.58</ele><time>2026-08-07T21:21:31.000Z</time></trkpt>
        <trkpt lat="29.5750674" lon="103.3651329"><ele>1454.19</ele><time>2026-08-07T21:21:55.000Z</time></trkpt>
        <trkpt lat="29.5750168" lon="103.3650277"><ele>1459.42</ele><time>2026-08-07T21:22:05.000Z</time></trkpt>
        <trkpt lat="29.5749996" lon="103.3649183"><ele>1462.07</ele><time>2026-08-07T21:22:19.000Z</time></trkpt>
        <trkpt lat="29.574959" lon="103.3648259"><ele>1464.86</ele><time>2026-08-07T21:22:49.000Z</time></trkpt>
        <trkpt lat="29.5749058" lon="103.3647435"><ele>1468.29</ele><time>2026-08-07T21:23:13.000Z</time></trkpt>
        <trkpt lat="29.5748425" lon="103.3646648"><ele>1470.79</ele><time>2026-08-07T21:24:01.000Z</time></trkpt>
        <trkpt lat="29.5747918" lon="103.3645717"><ele>1476.26</ele><time>2026-08-07T21:24:33.000Z</time></trkpt>
        <trkpt lat="29.5747223" lon="103.3645032"><ele>1480.97</ele><time>2026-08-07T21:25:11.000Z</time></trkpt>
        <trkpt lat="29.5746919" lon="103.3644047"><ele>1487.92</ele><time>2026-08-07T21:25:31.000Z</time></trkpt>
        <trkpt lat="29.5746833" lon="103.36428"><ele>1494.35</ele><time>2026-08-07T21:25:51.000Z</time></trkpt>
        <trkpt lat="29.5746421" lon="103.3642091"><ele>1498.93</ele><time>2026-08-07T21:26:01.000Z</time></trkpt>
        <trkpt lat="29.5745469" lon="103.3642336"><ele>1500.64</ele><time>2026-08-07T21:28:17.000Z</time></trkpt>
        <trkpt lat="29.5745372" lon="103.364195"><ele>1502.78</ele><time>2026-08-07T21:28:21.000Z</time></trkpt>
        <trkpt lat="29.5744752" lon="103.3641247"><ele>1504.25</ele><time>2026-08-07T21:28:39.000Z</time></trkpt>
        <trkpt lat="29.5744553" lon="103.3640147"><ele>1505.3</ele><time>2026-08-07T21:28:47.000Z</time></trkpt>
        <trkpt lat="29.5744528" lon="103.3638934"><ele>1506.94</ele><time>2026-08-07T21:29:17.000Z</time></trkpt>
        <trkpt lat="29.5744142" lon="103.363794"><ele>1508.78</ele><time>2026-08-07T21:29:33.000Z</time></trkpt>
        <trkpt lat="29.5744487" lon="103.3637122"><ele>1511.16</ele><time>2026-08-07T21:29:47.000Z</time></trkpt>
        <trkpt lat="29.5745295" lon="103.3636636"><ele>1512.85</ele><time>2026-08-07T21:30:09.000Z</time></trkpt>
        <trkpt lat="29.5746245" lon="103.3636843"><ele>1518.27</ele><time>2026-08-07T21:30:41.000Z</time></trkpt>
        <trkpt lat="29.574661" lon="103.3636197"><ele>1523.75</ele><time>2026-08-07T21:31:01.000Z</time></trkpt>
        <trkpt lat="29.5746681" lon="103.36352"><ele>1528.05</ele><time>2026-08-07T21:31:17.000Z</time></trkpt>
        <trkpt lat="29.5746402" lon="103.3634093"><ele>1529.8</ele><time>2026-08-07T21:31:31.000Z</time></trkpt>
        <trkpt lat="29.5746297" lon="103.3632946"><ele>1530.63</ele><time>2026-08-07T21:31:49.000Z</time></trkpt>
        <trkpt lat="29.5746412" lon="103.3631834"><ele>1533.02</ele><time>2026-08-07T21:32:17.000Z</time></trkpt>
        <trkpt lat="29.5746222" lon="103.3630793"><ele>1536.82</ele><time>2026-08-07T21:32:45.000Z</time></trkpt>
        <trkpt lat="29.5746144" lon="103.3629695"><ele>1539.47</ele><time>2026-08-07T21:32:57.000Z</time></trkpt>
        <trkpt lat="29.5746849" lon="103.3629112"><ele>1542.24</ele><time>2026-08-07T21:33:15.000Z</time></trkpt>
        <trkpt lat="29.5747775" lon="103.3628616"><ele>1546.66</ele><time>2026-08-07T21:33:31.000Z</time></trkpt>
        <trkpt lat="29.5748607" lon="103.3628042"><ele>1550.77</ele><time>2026-08-07T21:33:55.000Z</time></trkpt>
        <trkpt lat="29.5749268" lon="103.362725"><ele>1553.75</ele><time>2026-08-07T21:34:11.000Z</time></trkpt>
        <trkpt lat="29.5749634" lon="103.362629"><ele>1556.73</ele><time>2026-08-07T21:34:23.000Z</time></trkpt>
        <trkpt lat="29.5749272" lon="103.3625357"><ele>1559.2</ele><time>2026-08-07T21:34:37.000Z</time></trkpt>
        <trkpt lat="29.5748747" lon="103.362434"><ele>1561.89</ele><time>2026-08-07T21:34:59.000Z</time></trkpt>
        <trkpt lat="29.5747856" lon="103.3623804"><ele>1565.6</ele><time>2026-08-07T21:35:15.000Z</time></trkpt>
        <trkpt lat="29.5746888" lon="103.3623996"><ele>1568.89</ele><time>2026-08-07T21:35:31.000Z</time></trkpt>
        <trkpt lat="29.5745914" lon="103.3624423"><ele>1571.12</ele><time>2026-08-07T21:36:19.000Z</time></trkpt>
        <trkpt lat="29.5744939" lon="103.3624935"><ele>1572.99</ele><time>2026-08-07T21:36:33.000Z</time></trkpt>
        <trkpt lat="29.5743946" lon="103.3625182"><ele>1573.82</ele><time>2026-08-07T21:36:45.000Z</time></trkpt>
        <trkpt lat="29.5742969" lon="103.3624911"><ele>1574.97</ele><time>2026-08-07T21:36:59.000Z</time></trkpt>
        <trkpt lat="29.5742032" lon="103.3624925"><ele>1577.31</ele><time>2026-08-07T21:37:13.000Z</time></trkpt>
        <trkpt lat="29.5741111" lon="103.362486"><ele>1578.4</ele><time>2026-08-07T21:37:25.000Z</time></trkpt>
        <trkpt lat="29.5740176" lon="103.3624815"><ele>1579.13</ele><time>2026-08-07T21:37:51.000Z</time></trkpt>
        <trkpt lat="29.5739428" lon="103.3624172"><ele>1580.93</ele><time>2026-08-07T21:38:03.000Z</time></trkpt>
        <trkpt lat="29.5738582" lon="103.3623573"><ele>1583.23</ele><time>2026-08-07T21:38:49.000Z</time></trkpt>
        <trkpt lat="29.5737914" lon="103.3622798"><ele>1583.59</ele><time>2026-08-07T21:39:01.000Z</time></trkpt>
        <trkpt lat="29.5737226" lon="103.3622051"><ele>1585.78</ele><time>2026-08-07T21:39:21.000Z</time></trkpt>
        <trkpt lat="29.5736335" lon="103.3621781"><ele>1589.31</ele><time>2026-08-07T21:41:37.000Z</time></trkpt>
        <trkpt lat="29.5735834" lon="103.3620793"><ele>1588.51</ele><time>2026-08-07T21:41:53.000Z</time></trkpt>
        <trkpt lat="29.5735282" lon="103.3619949"><ele>1591.36</ele><time>2026-08-07T21:42:23.000Z</time></trkpt>
        <trkpt lat="29.5734533" lon="103.3619281"><ele>1595.08</ele><time>2026-08-07T21:42:53.000Z</time></trkpt>
        <trkpt lat="29.5733671" lon="103.3618927"><ele>1598.41</ele><time>2026-08-07T21:43:15.000Z</time></trkpt>
        <trkpt lat="29.5732761" lon="103.3618619"><ele>1602.62</ele><time>2026-08-07T21:43:41.000Z</time></trkpt>
        <trkpt lat="29.5732054" lon="103.3617926"><ele>1606.15</ele><time>2026-08-07T21:44:03.000Z</time></trkpt>
        <trkpt lat="29.5731238" lon="103.3617255"><ele>1610.06</ele><time>2026-08-07T21:44:29.000Z</time></trkpt>
        <trkpt lat="29.5730429" lon="103.3616559"><ele>1613.31</ele><time>2026-08-07T21:44:41.000Z</time></trkpt>
        <trkpt lat="29.5729563" lon="103.3616159"><ele>1616.02</ele><time>2026-08-07T21:44:51.000Z</time></trkpt>
        <trkpt lat="29.5728645" lon="103.3615962"><ele>1618.22</ele><time>2026-08-07T21:45:01.000Z</time></trkpt>
        <trkpt lat="29.5727718" lon="103.3615939"><ele>1621.36</ele><time>2026-08-07T21:45:09.000Z</time></trkpt>
        <trkpt lat="29.5726786" lon="103.3616187"><ele>1623.66</ele><time>2026-08-07T21:45:19.000Z</time></trkpt>
        <trkpt lat="29.5725799" lon="103.3616367"><ele>1622.92</ele><time>2026-08-07T21:45:33.000Z</time></trkpt>
        <trkpt lat="29.5724923" lon="103.3616736"><ele>1624.29</ele><time>2026-08-07T21:45:51.000Z</time></trkpt>
        <trkpt lat="29.5724034" lon="103.3617086"><ele>1624.29</ele><time>2026-08-07T21:46:23.000Z</time></trkpt>
        <trkpt lat="29.5723123" lon="103.3617157"><ele>1629.57</ele><time>2026-08-07T21:46:45.000Z</time></trkpt>
        <trkpt lat="29.5722308" lon="103.3617554"><ele>1633.95</ele><time>2026-08-07T21:47:05.000Z</time></trkpt>
        <trkpt lat="29.5721496" lon="103.3617998"><ele>1637.6</ele><time>2026-08-07T21:47:21.000Z</time></trkpt>
        <trkpt lat="29.5720621" lon="103.3618028"><ele>1641.06</ele><time>2026-08-07T21:47:37.000Z</time></trkpt>
        <trkpt lat="29.5719717" lon="103.3618077"><ele>1643.81</ele><time>2026-08-07T21:48:05.000Z</time></trkpt>
        <trkpt lat="29.571879" lon="103.3617962"><ele>1649.1</ele><time>2026-08-07T21:48:27.000Z</time></trkpt>
        <trkpt lat="29.571784" lon="103.3618085"><ele>1654.16</ele><time>2026-08-07T21:48:51.000Z</time></trkpt>
        <trkpt lat="29.5716952" lon="103.3618446"><ele>1657.07</ele><time>2026-08-07T21:49:05.000Z</time></trkpt>
        <trkpt lat="29.5716047" lon="103.3618686"><ele>1660.25</ele><time>2026-08-07T21:49:29.000Z</time></trkpt>
        <trkpt lat="29.5715214" lon="103.3618099"><ele>1663.29</ele><time>2026-08-07T21:49:39.000Z</time></trkpt>
        <trkpt lat="29.5714412" lon="103.3617289"><ele>1665.27</ele><time>2026-08-07T21:49:51.000Z</time></trkpt>
        <trkpt lat="29.5713507" lon="103.3616948"><ele>1665.08</ele><time>2026-08-07T21:50:03.000Z</time></trkpt>
        <trkpt lat="29.5712474" lon="103.3617008"><ele>1665.02</ele><time>2026-08-07T21:50:13.000Z</time></trkpt>
        <trkpt lat="29.5711624" lon="103.3616601"><ele>1664.21</ele><time>2026-08-07T21:50:27.000Z</time></trkpt>
        <trkpt lat="29.5710827" lon="103.3616099"><ele>1664.5</ele><time>2026-08-07T21:50:47.000Z</time></trkpt>
        <trkpt lat="29.5710055" lon="103.3615487"><ele>1663.66</ele><time>2026-08-07T21:51:09.000Z</time></trkpt>
        <trkpt lat="29.5709175" lon="103.361501"><ele>1665.03</ele><time>2026-08-07T21:51:35.000Z</time></trkpt>
        <trkpt lat="29.5708365" lon="103.3614472"><ele>1664.87</ele><time>2026-08-07T21:51:51.000Z</time></trkpt>
        <trkpt lat="29.5707419" lon="103.3614418"><ele>1666.46</ele><time>2026-08-07T21:52:41.000Z</time></trkpt>
        <trkpt lat="29.5706791" lon="103.3614001"><ele>1667.82</ele><time>2026-08-07T21:52:51.000Z</time></trkpt>
        <trkpt lat="29.5706145" lon="103.3614404"><ele>1670.04</ele><time>2026-08-07T21:53:19.000Z</time></trkpt>
        <trkpt lat="29.5706216" lon="103.361434"><ele>1670.62</ele><time>2026-08-07T21:53:25.000Z</time></trkpt>
        <trkpt lat="29.5705703" lon="103.3613712"><ele>1669.28</ele><time>2026-08-07T21:54:01.000Z</time></trkpt>
        <trkpt lat="29.5704872" lon="103.3613428"><ele>1671.54</ele><time>2026-08-07T21:54:11.000Z</time></trkpt>
        <trkpt lat="29.5704553" lon="103.361325"><ele>1672.25</ele><time>2026-08-07T21:54:17.000Z</time></trkpt>
        <trkpt lat="29.5703804" lon="103.3612907"><ele>1671.67</ele><time>2026-08-07T21:54:45.000Z</time></trkpt>
        <trkpt lat="29.5702873" lon="103.3612515"><ele>1670.15</ele><time>2026-08-07T21:54:57.000Z</time></trkpt>
        <trkpt lat="29.5701877" lon="103.3612217"><ele>1668.87</ele><time>2026-08-07T21:55:09.000Z</time></trkpt>
        <trkpt lat="29.570094" lon="103.3611869"><ele>1667.1</ele><time>2026-08-07T21:55:21.000Z</time></trkpt>
        <trkpt lat="29.5699929" lon="103.3611504"><ele>1666.94</ele><time>2026-08-07T21:55:41.000Z</time></trkpt>
        <trkpt lat="29.5699407" lon="103.3610663"><ele>1667.5</ele><time>2026-08-07T21:55:53.000Z</time></trkpt>
        <trkpt lat="29.569863" lon="103.3610283"><ele>1671.15</ele><time>2026-08-07T21:56:11.000Z</time></trkpt>
        <trkpt lat="29.5697716" lon="103.3609912"><ele>1675.38</ele><time>2026-08-07T21:56:27.000Z</time></trkpt>
        <trkpt lat="29.5696921" lon="103.3609264"><ele>1677.53</ele><time>2026-08-07T21:56:39.000Z</time></trkpt>
        <trkpt lat="29.5696142" lon="103.3608542"><ele>1678.32</ele><time>2026-08-07T21:56:59.000Z</time></trkpt>
        <trkpt lat="29.5695306" lon="103.3607825"><ele>1679.12</ele><time>2026-08-07T21:57:11.000Z</time></trkpt>
        <trkpt lat="29.5694375" lon="103.3607349"><ele>1680.2</ele><time>2026-08-07T21:57:27.000Z</time></trkpt>
        <trkpt lat="29.569365" lon="103.3606653"><ele>1680.84</ele><time>2026-08-07T21:57:45.000Z</time></trkpt>
        <trkpt lat="29.5692841" lon="103.3605989"><ele>1682.2</ele><time>2026-08-07T21:57:59.000Z</time></trkpt>
        <trkpt lat="29.5692076" lon="103.360524"><ele>1683.49</ele><time>2026-08-07T21:58:15.000Z</time></trkpt>
        <trkpt lat="29.5691502" lon="103.3604364"><ele>1685.67</ele><time>2026-08-07T21:58:29.000Z</time></trkpt>
        <trkpt lat="29.5690702" lon="103.3603621"><ele>1687.05</ele><time>2026-08-07T21:58:43.000Z</time></trkpt>
        <trkpt lat="29.5689837" lon="103.3603163"><ele>1689.01</ele><time>2026-08-07T21:58:55.000Z</time></trkpt>
        <trkpt lat="29.5688985" lon="103.3602592"><ele>1689.48</ele><time>2026-08-07T21:59:14.000Z</time></trkpt>
        <trkpt lat="29.5688281" lon="103.3601777"><ele>1689.58</ele><time>2026-08-07T21:59:32.000Z</time></trkpt>
        <trkpt lat="29.5687851" lon="103.3600717"><ele>1690.86</ele><time>2026-08-07T21:59:48.000Z</time></trkpt>
        <trkpt lat="29.5687712" lon="103.359951"><ele>1691.72</ele><time>2026-08-07T22:00:06.000Z</time></trkpt>
        <trkpt lat="29.5687848" lon="103.3598347"><ele>1693.2</ele><time>2026-08-07T22:00:20.000Z</time></trkpt>
        <trkpt lat="29.5687949" lon="103.3597205"><ele>1694.47</ele><time>2026-08-07T22:00:34.000Z</time></trkpt>
        <trkpt lat="29.5687407" lon="103.3596497"><ele>1696.62</ele><time>2026-08-07T22:00:46.000Z</time></trkpt>
        <trkpt lat="29.5686459" lon="103.3596449"><ele>1700.36</ele><time>2026-08-07T22:00:58.000Z</time></trkpt>
        <trkpt lat="29.5685375" lon="103.3596562"><ele>1702.1</ele><time>2026-08-07T22:01:10.000Z</time></trkpt>
        <trkpt lat="29.5684328" lon="103.3596812"><ele>1702.52</ele><time>2026-08-07T22:01:26.000Z</time></trkpt>
        <trkpt lat="29.5683311" lon="103.3596978"><ele>1702.2</ele><time>2026-08-07T22:01:42.000Z</time></trkpt>
        <trkpt lat="29.5682393" lon="103.3596777"><ele>1702.37</ele><time>2026-08-07T22:01:56.000Z</time></trkpt>
        <trkpt lat="29.5681897" lon="103.3595955"><ele>1701.97</ele><time>2026-08-07T22:02:12.000Z</time></trkpt>
        <trkpt lat="29.5681204" lon="103.3595276"><ele>1701.91</ele><time>2026-08-07T22:02:24.000Z</time></trkpt>
        <trkpt lat="29.5681398" lon="103.3596423"><ele>1702.83</ele><time>2026-08-07T22:09:23.000Z</time></trkpt>
        <trkpt lat="29.5681459" lon="103.3596227"><ele>1704.27</ele><time>2026-08-07T22:09:31.000Z</time></trkpt>
        <trkpt lat="29.5680718" lon="103.3595606"><ele>1704.93</ele><time>2026-08-07T22:14:39.000Z</time></trkpt>
        <trkpt lat="29.567961" lon="103.3595857"><ele>1704.84</ele><time>2026-08-07T22:14:49.000Z</time></trkpt>
        <trkpt lat="29.5678536" lon="103.3595742"><ele>1705.4</ele><time>2026-08-07T22:14:59.000Z</time></trkpt>
        <trkpt lat="29.5677737" lon="103.3595152"><ele>1705.99</ele><time>2026-08-07T22:15:09.000Z</time></trkpt>
        <trkpt lat="29.5677034" lon="103.3594447"><ele>1707.58</ele><time>2026-08-07T22:15:19.000Z</time></trkpt>
        <trkpt lat="29.5676201" lon="103.3593983"><ele>1709.62</ele><time>2026-08-07T22:15:31.000Z</time></trkpt>
        <trkpt lat="29.5675322" lon="103.3593678"><ele>1710.83</ele><time>2026-08-07T22:15:49.000Z</time></trkpt>
        <trkpt lat="29.5674514" lon="103.3594141"><ele>1711.77</ele><time>2026-08-07T22:16:09.000Z</time></trkpt>
        <trkpt lat="29.5673536" lon="103.3594516"><ele>1710.05</ele><time>2026-08-07T22:16:23.000Z</time></trkpt>
        <trkpt lat="29.5672604" lon="103.3594502"><ele>1712.13</ele><time>2026-08-07T22:16:45.000Z</time></trkpt>
        <trkpt lat="29.5671657" lon="103.3594341"><ele>1715.14</ele><time>2026-08-07T22:17:07.000Z</time></trkpt>
        <trkpt lat="29.5670712" lon="103.3594135"><ele>1717.31</ele><time>2026-08-07T22:17:27.000Z</time></trkpt>
        <trkpt lat="29.5669814" lon="103.3593729"><ele>1719.57</ele><time>2026-08-07T22:17:41.000Z</time></trkpt>
        <trkpt lat="29.5668931" lon="103.3593336"><ele>1723.37</ele><time>2026-08-07T22:17:57.000Z</time></trkpt>
        <trkpt lat="29.5668158" lon="103.3592543"><ele>1725.63</ele><time>2026-08-07T22:18:07.000Z</time></trkpt>
        <trkpt lat="29.5667393" lon="103.3591818"><ele>1728.53</ele><time>2026-08-07T22:18:17.000Z</time></trkpt>
        <trkpt lat="29.5666598" lon="103.3591082"><ele>1730.14</ele><time>2026-08-07T22:18:29.000Z</time></trkpt>
        <trkpt lat="29.5665888" lon="103.3590357"><ele>1732.52</ele><time>2026-08-07T22:18:39.000Z</time></trkpt>
        <trkpt lat="29.5664967" lon="103.3589665"><ele>1734.44</ele><time>2026-08-07T22:18:57.000Z</time></trkpt>
        <trkpt lat="29.5664121" lon="103.3589058"><ele>1737.82</ele><time>2026-08-07T22:19:17.000Z</time></trkpt>
        <trkpt lat="29.566348" lon="103.3588254"><ele>1738.22</ele><time>2026-08-07T22:19:38.000Z</time></trkpt>
        <trkpt lat="29.5663018" lon="103.35873"><ele>1741.79</ele><time>2026-08-07T22:19:54.000Z</time></trkpt>
        <trkpt lat="29.5662501" lon="103.3586387"><ele>1745.1</ele><time>2026-08-07T22:20:16.000Z</time></trkpt>
        <trkpt lat="29.5662373" lon="103.3585347"><ele>1748.25</ele><time>2026-08-07T22:20:44.000Z</time></trkpt>
        <trkpt lat="29.5662463" lon="103.3584229"><ele>1751.22</ele><time>2026-08-07T22:21:00.000Z</time></trkpt>
        <trkpt lat="29.5662611" lon="103.3583118"><ele>1753.28</ele><time>2026-08-07T22:21:16.000Z</time></trkpt>
        <trkpt lat="29.5662368" lon="103.358207"><ele>1754.54</ele><time>2026-08-07T22:21:34.000Z</time></trkpt>
        <trkpt lat="29.5662405" lon="103.3581592"><ele>1758.42</ele><time>2026-08-07T22:21:49.000Z</time></trkpt>
        <trkpt lat="29.5661748" lon="103.3581003"><ele>1761.8</ele><time>2026-08-07T22:22:55.000Z</time></trkpt>
        <trkpt lat="29.5661288" lon="103.3580039"><ele>1764.19</ele><time>2026-08-07T22:23:15.000Z</time></trkpt>
        <trkpt lat="29.5660876" lon="103.3578964"><ele>1768.97</ele><time>2026-08-07T22:23:45.000Z</time></trkpt>
        <trkpt lat="29.5660552" lon="103.3577939"><ele>1770.97</ele><time>2026-08-07T22:24:07.000Z</time></trkpt>
        <trkpt lat="29.5660377" lon="103.3576903"><ele>1773.87</ele><time>2026-08-07T22:24:21.000Z</time></trkpt>
        <trkpt lat="29.5660207" lon="103.3575871"><ele>1776.05</ele><time>2026-08-07T22:24:41.000Z</time></trkpt>
        <trkpt lat="29.5659562" lon="103.3575278"><ele>1778.95</ele><time>2026-08-07T22:25:03.000Z</time></trkpt>
        <trkpt lat="29.5658663" lon="103.3574778"><ele>1781.62</ele><time>2026-08-07T22:25:31.000Z</time></trkpt>
        <trkpt lat="29.5657935" lon="103.3574058"><ele>1786.01</ele><time>2026-08-07T22:25:45.000Z</time></trkpt>
        <trkpt lat="29.5657076" lon="103.3573528"><ele>1790.7</ele><time>2026-08-07T22:26:01.000Z</time></trkpt>
        <trkpt lat="29.5656418" lon="103.3572767"><ele>1793.95</ele><time>2026-08-07T22:26:23.000Z</time></trkpt>
        <trkpt lat="29.5656042" lon="103.3571798"><ele>1794.53</ele><time>2026-08-07T22:26:39.000Z</time></trkpt>
        <trkpt lat="29.5655494" lon="103.3570974"><ele>1795.33</ele><time>2026-08-07T22:26:57.000Z</time></trkpt>
        <trkpt lat="29.5655224" lon="103.3569972"><ele>1798.92</ele><time>2026-08-07T22:27:17.000Z</time></trkpt>
        <trkpt lat="29.5654728" lon="103.3569103"><ele>1803.18</ele><time>2026-08-07T22:27:39.000Z</time></trkpt>
        <trkpt lat="29.5654039" lon="103.3568372"><ele>1806.03</ele><time>2026-08-07T22:28:05.000Z</time></trkpt>
        <trkpt lat="29.5653215" lon="103.3567782"><ele>1810.77</ele><time>2026-08-07T22:28:25.000Z</time></trkpt>
        <trkpt lat="29.5652323" lon="103.3567283"><ele>1814.26</ele><time>2026-08-07T22:28:41.000Z</time></trkpt>
        <trkpt lat="29.5651441" lon="103.3566796"><ele>1818.52</ele><time>2026-08-07T22:29:01.000Z</time></trkpt>
        <trkpt lat="29.5650611" lon="103.35662"><ele>1821.29</ele><time>2026-08-07T22:29:17.000Z</time></trkpt>
        <trkpt lat="29.5649635" lon="103.3565973"><ele>1822.62</ele><time>2026-08-07T22:29:31.000Z</time></trkpt>
        <trkpt lat="29.5648941" lon="103.3565249"><ele>1824.7</ele><time>2026-08-07T22:29:45.000Z</time></trkpt>
        <trkpt lat="29.564818" lon="103.3564569"><ele>1827.24</ele><time>2026-08-07T22:30:01.000Z</time></trkpt>
        <trkpt lat="29.5647509" lon="103.3563763"><ele>1828.58</ele><time>2026-08-07T22:30:25.000Z</time></trkpt>
        <trkpt lat="29.5647073" lon="103.3562817"><ele>1830.47</ele><time>2026-08-07T22:30:37.000Z</time></trkpt>
        <trkpt lat="29.5646697" lon="103.3561733"><ele>1831.94</ele><time>2026-08-07T22:30:59.000Z</time></trkpt>
        <trkpt lat="29.5646591" lon="103.3560643"><ele>1834.34</ele><time>2026-08-07T22:31:11.000Z</time></trkpt>
        <trkpt lat="29.5645864" lon="103.3560248"><ele>1837.39</ele><time>2026-08-07T22:31:29.000Z</time></trkpt>
        <trkpt lat="29.5645161" lon="103.3560802"><ele>1840.17</ele><time>2026-08-07T22:32:05.000Z</time></trkpt>
        <trkpt lat="29.5644568" lon="103.3561837"><ele>1840.51</ele><time>2026-08-07T22:32:27.000Z</time></trkpt>
        <trkpt lat="29.5643897" lon="103.3561686"><ele>1843.35</ele><time>2026-08-07T22:32:51.000Z</time></trkpt>
        <trkpt lat="29.5643816" lon="103.3562405"><ele>1849.46</ele><time>2026-08-07T22:33:15.000Z</time></trkpt>
        <trkpt lat="29.5643723" lon="103.3563429"><ele>1853.47</ele><time>2026-08-07T22:33:33.000Z</time></trkpt>
        <trkpt lat="29.5643236" lon="103.356439"><ele>1857.29</ele><time>2026-08-07T22:34:03.000Z</time></trkpt>
        <trkpt lat="29.5642273" lon="103.3564735"><ele>1861.66</ele><time>2026-08-07T22:35:10.000Z</time></trkpt>
        <trkpt lat="29.5641674" lon="103.3563876"><ele>1867.46</ele><time>2026-08-07T22:39:55.000Z</time></trkpt>
        <trkpt lat="29.56418" lon="103.3562707"><ele>1869.12</ele><time>2026-08-07T22:40:11.000Z</time></trkpt>
        <trkpt lat="29.5641755" lon="103.3561641"><ele>1869.64</ele><time>2026-08-07T22:40:23.000Z</time></trkpt>
        <trkpt lat="29.5641679" lon="103.3560405"><ele>1870.14</ele><time>2026-08-07T22:40:35.000Z</time></trkpt>
        <trkpt lat="29.564127" lon="103.3559434"><ele>1869.62</ele><time>2026-08-07T22:40:49.000Z</time></trkpt>
        <trkpt lat="29.5640763" lon="103.3558472"><ele>1868.86</ele><time>2026-08-07T22:41:04.000Z</time></trkpt>
        <trkpt lat="29.5640555" lon="103.3557318"><ele>1867.64</ele><time>2026-08-07T22:41:20.000Z</time></trkpt>
        <trkpt lat="29.5640443" lon="103.3556208"><ele>1863.82</ele><time>2026-08-07T22:41:30.000Z</time></trkpt>
        <trkpt lat="29.5640229" lon="103.3555077"><ele>1861.04</ele><time>2026-08-07T22:41:44.000Z</time></trkpt>
        <trkpt lat="29.5640014" lon="103.3553891"><ele>1858.32</ele><time>2026-08-07T22:41:56.000Z</time></trkpt>
        <trkpt lat="29.5639799" lon="103.3552833"><ele>1855.72</ele><time>2026-08-07T22:42:10.000Z</time></trkpt>
        <trkpt lat="29.5639393" lon="103.3551784"><ele>1852.38</ele><time>2026-08-07T22:42:20.000Z</time></trkpt>
        <trkpt lat="29.5638773" lon="103.3550821"><ele>1849.99</ele><time>2026-08-07T22:42:32.000Z</time></trkpt>
        <trkpt lat="29.5638133" lon="103.3550004"><ele>1849.35</ele><time>2026-08-07T22:42:40.000Z</time></trkpt>
        <trkpt lat="29.5637485" lon="103.3549262"><ele>1849.46</ele><time>2026-08-07T22:42:48.000Z</time></trkpt>
        <trkpt lat="29.5636753" lon="103.3548659"><ele>1850.03</ele><time>2026-08-07T22:42:56.000Z</time></trkpt>
        <trkpt lat="29.5636012" lon="103.3547768"><ele>1849.91</ele><time>2026-08-07T22:43:06.000Z</time></trkpt>
        <trkpt lat="29.56356" lon="103.3546779"><ele>1850.68</ele><time>2026-08-07T22:43:14.000Z</time></trkpt>
        <trkpt lat="29.5635048" lon="103.3545922"><ele>1849.6</ele><time>2026-08-07T22:43:22.000Z</time></trkpt>
        <trkpt lat="29.563429" lon="103.3545412"><ele>1848.24</ele><time>2026-08-07T22:43:30.000Z</time></trkpt>
        <trkpt lat="29.5633717" lon="103.3544503"><ele>1848.7</ele><time>2026-08-07T22:43:40.000Z</time></trkpt>
        <trkpt lat="29.563343" lon="103.3543427"><ele>1848.72</ele><time>2026-08-07T22:43:48.000Z</time></trkpt>
        <trkpt lat="29.5633167" lon="103.3542385"><ele>1848.32</ele><time>2026-08-07T22:43:56.000Z</time></trkpt>
        <trkpt lat="29.5632984" lon="103.3541301"><ele>1847.22</ele><time>2026-08-07T22:44:06.000Z</time></trkpt>
        <trkpt lat="29.5632605" lon="103.3540118"><ele>1845.62</ele><time>2026-08-07T22:44:16.000Z</time></trkpt>
        <trkpt lat="29.563241" lon="103.3539455"><ele>1844.2</ele><time>2026-08-07T22:44:20.000Z</time></trkpt>
        <trkpt lat="29.563219" lon="103.3538592"><ele>1843.81</ele><time>2026-08-07T22:44:30.000Z</time></trkpt>
        <trkpt lat="29.5631896" lon="103.3537613"><ele>1843.84</ele><time>2026-08-07T22:44:38.000Z</time></trkpt>
        <trkpt lat="29.563156" lon="103.3536726"><ele>1842.98</ele><time>2026-08-07T22:44:46.000Z</time></trkpt>
        <trkpt lat="29.5631305" lon="103.3535745"><ele>1843.7</ele><time>2026-08-07T22:45:04.000Z</time></trkpt>
        <trkpt lat="29.5631526" lon="103.3534578"><ele>1844.42</ele><time>2026-08-07T22:45:14.000Z</time></trkpt>
        <trkpt lat="29.5631399" lon="103.3533406"><ele>1844.23</ele><time>2026-08-07T22:45:24.000Z</time></trkpt>
        <trkpt lat="29.563102" lon="103.3532316"><ele>1844.67</ele><time>2026-08-07T22:45:32.000Z</time></trkpt>
        <trkpt lat="29.5630781" lon="103.3531277"><ele>1845.74</ele><time>2026-08-07T22:45:40.000Z</time></trkpt>
        <trkpt lat="29.5630436" lon="103.3530244"><ele>1845.07</ele><time>2026-08-07T22:45:54.000Z</time></trkpt>
        <trkpt lat="29.5630113" lon="103.3529177"><ele>1841.17</ele><time>2026-08-07T22:46:04.000Z</time></trkpt>
        <trkpt lat="29.5629804" lon="103.3528063"><ele>1839.02</ele><time>2026-08-07T22:46:14.000Z</time></trkpt>
        <trkpt lat="29.5630034" lon="103.3526899"><ele>1837.43</ele><time>2026-08-07T22:46:38.000Z</time></trkpt>
        <trkpt lat="29.5630672" lon="103.3525989"><ele>1833.63</ele><time>2026-08-07T22:46:50.000Z</time></trkpt>
        <trkpt lat="29.5631292" lon="103.3525062"><ele>1829</ele><time>2026-08-07T22:47:00.000Z</time></trkpt>
        <trkpt lat="29.5631926" lon="103.3524059"><ele>1825.07</ele><time>2026-08-07T22:47:08.000Z</time></trkpt>
        <trkpt lat="29.5632462" lon="103.3523088"><ele>1823.26</ele><time>2026-08-07T22:47:20.000Z</time></trkpt>
        <trkpt lat="29.5632243" lon="103.3522144"><ele>1819.88</ele><time>2026-08-07T22:47:30.000Z</time></trkpt>
        <trkpt lat="29.5631872" lon="103.3521179"><ele>1820.11</ele><time>2026-08-07T22:47:38.000Z</time></trkpt>
        <trkpt lat="29.5631511" lon="103.3520072"><ele>1819.97</ele><time>2026-08-07T22:47:46.000Z</time></trkpt>
        <trkpt lat="29.5631096" lon="103.3519001"><ele>1820.77</ele><time>2026-08-07T22:47:54.000Z</time></trkpt>
        <trkpt lat="29.5630761" lon="103.3517953"><ele>1820.93</ele><time>2026-08-07T22:48:02.000Z</time></trkpt>
        <trkpt lat="29.5630648" lon="103.3516771"><ele>1820.83</ele><time>2026-08-07T22:48:12.000Z</time></trkpt>
        <trkpt lat="29.5630523" lon="103.3515594"><ele>1819.86</ele><time>2026-08-07T22:48:22.000Z</time></trkpt>
        <trkpt lat="29.5630172" lon="103.3514496"><ele>1820</ele><time>2026-08-07T22:48:34.000Z</time></trkpt>
        <trkpt lat="29.56304" lon="103.3513464"><ele>1816.7</ele><time>2026-08-07T22:48:46.000Z</time></trkpt>
        <trkpt lat="29.563072" lon="103.3512406"><ele>1811.4</ele><time>2026-08-07T22:49:02.000Z</time></trkpt>
        <trkpt lat="29.5630609" lon="103.3511372"><ele>1806.73</ele><time>2026-08-07T22:49:16.000Z</time></trkpt>
        <trkpt lat="29.5630297" lon="103.3510371"><ele>1803.3</ele><time>2026-08-07T22:49:36.000Z</time></trkpt>
        <trkpt lat="29.5629892" lon="103.3509395"><ele>1800.52</ele><time>2026-08-07T22:49:48.000Z</time></trkpt>
        <trkpt lat="29.5629564" lon="103.3508317"><ele>1798.54</ele><time>2026-08-07T22:50:00.000Z</time></trkpt>
        <trkpt lat="29.5630002" lon="103.3508574"><ele>1797.46</ele><time>2026-08-07T22:50:22.000Z</time></trkpt>
        <trkpt lat="29.5630324" lon="103.3508018"><ele>1797.04</ele><time>2026-08-07T22:50:36.000Z</time></trkpt>
        <trkpt lat="29.5630457" lon="103.3507985"><ele>1794.01</ele><time>2026-08-07T22:50:40.000Z</time></trkpt>
        <trkpt lat="29.5629802" lon="103.3507785"><ele>1790.95</ele><time>2026-08-07T22:51:30.000Z</time></trkpt>
        <trkpt lat="29.5628773" lon="103.3507734"><ele>1792.09</ele><time>2026-08-07T22:51:42.000Z</time></trkpt>
        <trkpt lat="29.5628385" lon="103.3506646"><ele>1794.12</ele><time>2026-08-07T23:07:29.000Z</time></trkpt>
        <trkpt lat="29.5628219" lon="103.3505606"><ele>1794.41</ele><time>2026-08-07T23:07:53.000Z</time></trkpt>
        <trkpt lat="29.5628493" lon="103.3504595"><ele>1794.4</ele><time>2026-08-07T23:08:17.000Z</time></trkpt>
        <trkpt lat="29.5628622" lon="103.3503539"><ele>1793.18</ele><time>2026-08-07T23:09:01.000Z</time></trkpt>
        <trkpt lat="29.5628854" lon="103.3502355"><ele>1790.09</ele><time>2026-08-07T23:09:15.000Z</time></trkpt>
        <trkpt lat="29.5629078" lon="103.3501189"><ele>1788.13</ele><time>2026-08-07T23:09:25.000Z</time></trkpt>
        <trkpt lat="29.562921" lon="103.3500106"><ele>1786.97</ele><time>2026-08-07T23:09:35.000Z</time></trkpt>
        <trkpt lat="29.5629319" lon="103.3498991"><ele>1785.57</ele><time>2026-08-07T23:09:45.000Z</time></trkpt>
        <trkpt lat="29.5629488" lon="103.3497844"><ele>1784.39</ele><time>2026-08-07T23:09:56.000Z</time></trkpt>
        <trkpt lat="29.5629888" lon="103.349675"><ele>1783.73</ele><time>2026-08-07T23:10:05.000Z</time></trkpt>
        <trkpt lat="29.5630521" lon="103.3495732"><ele>1783.07</ele><time>2026-08-07T23:10:15.000Z</time></trkpt>
        <trkpt lat="29.5631187" lon="103.3494749"><ele>1782.86</ele><time>2026-08-07T23:10:25.000Z</time></trkpt>
        <trkpt lat="29.5631557" lon="103.3493656"><ele>1782.7</ele><time>2026-08-07T23:10:35.000Z</time></trkpt>
        <trkpt lat="29.5631926" lon="103.3492661"><ele>1782.95</ele><time>2026-08-07T23:10:43.000Z</time></trkpt>
        <trkpt lat="29.5632347" lon="103.349173"><ele>1783.22</ele><time>2026-08-07T23:10:51.000Z</time></trkpt>
        <trkpt lat="29.5632468" lon="103.3490669"><ele>1783.46</ele><time>2026-08-07T23:11:01.000Z</time></trkpt>
        <trkpt lat="29.5632564" lon="103.3489589"><ele>1783.78</ele><time>2026-08-07T23:11:11.000Z</time></trkpt>
        <trkpt lat="29.5632686" lon="103.348844"><ele>1784.67</ele><time>2026-08-07T23:11:25.000Z</time></trkpt>
        <trkpt lat="29.5632575" lon="103.348735"><ele>1785.55</ele><time>2026-08-07T23:11:35.000Z</time></trkpt>
        <trkpt lat="29.5632549" lon="103.3486248"><ele>1786.04</ele><time>2026-08-07T23:11:45.000Z</time></trkpt>
        <trkpt lat="29.5632626" lon="103.3485077"><ele>1786.99</ele><time>2026-08-07T23:11:57.000Z</time></trkpt>
        <trkpt lat="29.5632901" lon="103.3483985"><ele>1787.05</ele><time>2026-08-07T23:12:07.000Z</time></trkpt>
        <trkpt lat="29.5633396" lon="103.3483054"><ele>1787.81</ele><time>2026-08-07T23:12:17.000Z</time></trkpt>
        <trkpt lat="29.5633574" lon="103.3482845"><ele>1789</ele><time>2026-08-07T23:12:19.000Z</time></trkpt>
        <trkpt lat="29.5634089" lon="103.348232"><ele>1789.62</ele><time>2026-08-07T23:12:37.000Z</time></trkpt>
        <trkpt lat="29.5634528" lon="103.3481484"><ele>1790.25</ele><time>2026-08-07T23:12:47.000Z</time></trkpt>
        <trkpt lat="29.5634907" lon="103.3480473"><ele>1790.46</ele><time>2026-08-07T23:12:57.000Z</time></trkpt>
        <trkpt lat="29.5635632" lon="103.3479588"><ele>1790.85</ele><time>2026-08-07T23:13:07.000Z</time></trkpt>
        <trkpt lat="29.5636095" lon="103.3478595"><ele>1790.99</ele><time>2026-08-07T23:13:17.000Z</time></trkpt>
        <trkpt lat="29.5636358" lon="103.3477504"><ele>1791.66</ele><time>2026-08-07T23:13:29.000Z</time></trkpt>
        <trkpt lat="29.5636298" lon="103.3476339"><ele>1792.49</ele><time>2026-08-07T23:13:45.000Z</time></trkpt>
        <trkpt lat="29.5636251" lon="103.3475181"><ele>1790.47</ele><time>2026-08-07T23:14:01.000Z</time></trkpt>
        <trkpt lat="29.5635811" lon="103.3474068"><ele>1787.89</ele><time>2026-08-07T23:14:11.000Z</time></trkpt>
        <trkpt lat="29.5635284" lon="103.3472971"><ele>1787.36</ele><time>2026-08-07T23:14:21.000Z</time></trkpt>
        <trkpt lat="29.5634601" lon="103.3472167"><ele>1788.14</ele><time>2026-08-07T23:14:31.000Z</time></trkpt>
        <trkpt lat="29.5633675" lon="103.3471547"><ele>1788.14</ele><time>2026-08-07T23:14:41.000Z</time></trkpt>
        <trkpt lat="29.5632753" lon="103.3471044"><ele>1788.75</ele><time>2026-08-07T23:14:51.000Z</time></trkpt>
        <trkpt lat="29.5632078" lon="103.3470229"><ele>1788.85</ele><time>2026-08-07T23:15:01.000Z</time></trkpt>
        <trkpt lat="29.5631463" lon="103.3469471"><ele>1788.59</ele><time>2026-08-07T23:15:11.000Z</time></trkpt>
        <trkpt lat="29.5630779" lon="103.346876"><ele>1788.39</ele><time>2026-08-07T23:15:25.000Z</time></trkpt>
        <trkpt lat="29.563033" lon="103.3467823"><ele>1788.98</ele><time>2026-08-07T23:15:39.000Z</time></trkpt>
        <trkpt lat="29.5629683" lon="103.3466986"><ele>1788.29</ele><time>2026-08-07T23:15:53.000Z</time></trkpt>
        <trkpt lat="29.5629091" lon="103.3466046"><ele>1787.14</ele><time>2026-08-07T23:16:03.000Z</time></trkpt>
        <trkpt lat="29.56284" lon="103.3465139"><ele>1785.13</ele><time>2026-08-07T23:16:13.000Z</time></trkpt>
        <trkpt lat="29.5628006" lon="103.3464965"><ele>1784.69</ele><time>2026-08-07T23:16:15.000Z</time></trkpt>
        <trkpt lat="29.5627239" lon="103.3464757"><ele>1784.75</ele><time>2026-08-07T23:16:29.000Z</time></trkpt>
        <trkpt lat="29.5626421" lon="103.3464365"><ele>1784.53</ele><time>2026-08-07T23:16:39.000Z</time></trkpt>
        <trkpt lat="29.5625566" lon="103.3463742"><ele>1783.99</ele><time>2026-08-07T23:16:49.000Z</time></trkpt>
        <trkpt lat="29.5624837" lon="103.3462909"><ele>1783.95</ele><time>2026-08-07T23:16:59.000Z</time></trkpt>
        <trkpt lat="29.5624459" lon="103.346259"><ele>1784.7</ele><time>2026-08-07T23:17:03.000Z</time></trkpt>
        <trkpt lat="29.5624038" lon="103.3461766"><ele>1786.25</ele><time>2026-08-07T23:17:21.000Z</time></trkpt>
        <trkpt lat="29.562341" lon="103.3460877"><ele>1784.81</ele><time>2026-08-07T23:17:35.000Z</time></trkpt>
        <trkpt lat="29.5622954" lon="103.3459773"><ele>1782.59</ele><time>2026-08-07T23:17:47.000Z</time></trkpt>
        <trkpt lat="29.5622561" lon="103.3458679"><ele>1780.01</ele><time>2026-08-07T23:17:57.000Z</time></trkpt>
        <trkpt lat="29.5621956" lon="103.3457658"><ele>1777.92</ele><time>2026-08-07T23:18:07.000Z</time></trkpt>
        <trkpt lat="29.5621239" lon="103.3456907"><ele>1775.94</ele><time>2026-08-07T23:18:17.000Z</time></trkpt>
        <trkpt lat="29.5620332" lon="103.3456312"><ele>1774.66</ele><time>2026-08-07T23:18:33.000Z</time></trkpt>
        <trkpt lat="29.5619381" lon="103.3456047"><ele>1774.77</ele><time>2026-08-07T23:18:45.000Z</time></trkpt>
        <trkpt lat="29.5618406" lon="103.3456146"><ele>1775.62</ele><time>2026-08-07T23:18:59.000Z</time></trkpt>
        <trkpt lat="29.5617449" lon="103.3456223"><ele>1776.28</ele><time>2026-08-07T23:19:09.000Z</time></trkpt>
        <trkpt lat="29.5616538" lon="103.3455908"><ele>1777.35</ele><time>2026-08-07T23:19:19.000Z</time></trkpt>
        <trkpt lat="29.5616044" lon="103.3455767"><ele>1778.3</ele><time>2026-08-07T23:19:28.000Z</time></trkpt>
        <trkpt lat="29.5615428" lon="103.3455111"><ele>1779.11</ele><time>2026-08-07T23:19:46.000Z</time></trkpt>
        <trkpt lat="29.5614888" lon="103.3454199"><ele>1777.88</ele><time>2026-08-07T23:19:54.000Z</time></trkpt>
        <trkpt lat="29.561469" lon="103.3453852"><ele>1777.23</ele><time>2026-08-07T23:19:58.000Z</time></trkpt>
        <trkpt lat="29.5614292" lon="103.3453111"><ele>1777.1</ele><time>2026-08-07T23:21:30.000Z</time></trkpt>
        <trkpt lat="29.5613682" lon="103.3452224"><ele>1777.6</ele><time>2026-08-07T23:22:38.000Z</time></trkpt>
        <trkpt lat="29.5612768" lon="103.3452154"><ele>1778.17</ele><time>2026-08-07T23:22:54.000Z</time></trkpt>
        <trkpt lat="29.5612147" lon="103.3451408"><ele>1779.51</ele><time>2026-08-07T23:23:20.000Z</time></trkpt>
        <trkpt lat="29.5611765" lon="103.3450368"><ele>1782.09</ele><time>2026-08-07T23:23:54.000Z</time></trkpt>
        <trkpt lat="29.5611075" lon="103.3450482"><ele>1787.16</ele><time>2026-08-07T23:24:12.000Z</time></trkpt>
        <trkpt lat="29.5610494" lon="103.3449961"><ele>1791.97</ele><time>2026-08-07T23:24:40.000Z</time></trkpt>
        <trkpt lat="29.5609739" lon="103.345021"><ele>1796.6</ele><time>2026-08-07T23:25:10.000Z</time></trkpt>
        <trkpt lat="29.5608914" lon="103.3449894"><ele>1801.75</ele><time>2026-08-07T23:25:48.000Z</time></trkpt>
        <trkpt lat="29.5608567" lon="103.3449017"><ele>1807.84</ele><time>2026-08-07T23:26:16.000Z</time></trkpt>
        <trkpt lat="29.5607822" lon="103.3448834"><ele>1814.56</ele><time>2026-08-07T23:26:44.000Z</time></trkpt>
        <trkpt lat="29.56075" lon="103.3447967"><ele>1822.97</ele><time>2026-08-07T23:27:31.000Z</time></trkpt>
        <trkpt lat="29.5607116" lon="103.3446962"><ele>1829.71</ele><time>2026-08-07T23:27:51.000Z</time></trkpt>
        <trkpt lat="29.5606377" lon="103.3446408"><ele>1835.79</ele><time>2026-08-07T23:28:11.000Z</time></trkpt>
        <trkpt lat="29.5605463" lon="103.3446202"><ele>1839.31</ele><time>2026-08-07T23:28:35.000Z</time></trkpt>
        <trkpt lat="29.5604614" lon="103.3445758"><ele>1844.43</ele><time>2026-08-07T23:28:57.000Z</time></trkpt>
        <trkpt lat="29.5603772" lon="103.3445302"><ele>1850.75</ele><time>2026-08-07T23:29:23.000Z</time></trkpt>
        <trkpt lat="29.5602986" lon="103.3444761"><ele>1856.38</ele><time>2026-08-07T23:29:53.000Z</time></trkpt>
        <trkpt lat="29.5602311" lon="103.3444039"><ele>1861.29</ele><time>2026-08-07T23:30:11.000Z</time></trkpt>
        <trkpt lat="29.5601696" lon="103.3443225"><ele>1865.61</ele><time>2026-08-07T23:30:33.000Z</time></trkpt>
        <trkpt lat="29.5601998" lon="103.3442399"><ele>1870.69</ele><time>2026-08-07T23:30:51.000Z</time></trkpt>
        <trkpt lat="29.5601508" lon="103.3441984"><ele>1875.5</ele><time>2026-08-07T23:31:11.000Z</time></trkpt>
        <trkpt lat="29.560137" lon="103.3441138"><ele>1880.43</ele><time>2026-08-07T23:31:43.000Z</time></trkpt>
        <trkpt lat="29.5601082" lon="103.3440174"><ele>1887.88</ele><time>2026-08-07T23:32:15.000Z</time></trkpt>
        <trkpt lat="29.5601497" lon="103.3439351"><ele>1893.95</ele><time>2026-08-07T23:32:47.000Z</time></trkpt>
        <trkpt lat="29.5601155" lon="103.3438571"><ele>1900.27</ele><time>2026-08-07T23:33:13.000Z</time></trkpt>
        <trkpt lat="29.5600343" lon="103.3438159"><ele>1908.22</ele><time>2026-08-07T23:33:35.000Z</time></trkpt>
        <trkpt lat="29.5599574" lon="103.3437543"><ele>1914.62</ele><time>2026-08-07T23:33:53.000Z</time></trkpt>
        <trkpt lat="29.5598705" lon="103.3437032"><ele>1920.52</ele><time>2026-08-07T23:34:23.000Z</time></trkpt>
        <trkpt lat="29.559798" lon="103.3436275"><ele>1922.95</ele><time>2026-08-07T23:34:47.000Z</time></trkpt>
        <trkpt lat="29.5597423" lon="103.3435378"><ele>1926.3</ele><time>2026-08-07T23:35:07.000Z</time></trkpt>
        <trkpt lat="29.5596722" lon="103.3435573"><ele>1930.09</ele><time>2026-08-07T23:35:35.000Z</time></trkpt>
        <trkpt lat="29.5595905" lon="103.3435428"><ele>1936.2</ele><time>2026-08-07T23:36:01.000Z</time></trkpt>
        <trkpt lat="29.5595074" lon="103.3434984"><ele>1940.57</ele><time>2026-08-07T23:36:25.000Z</time></trkpt>
        <trkpt lat="29.5594694" lon="103.3435687"><ele>1947.52</ele><time>2026-08-07T23:36:45.000Z</time></trkpt>
        <trkpt lat="29.5593942" lon="103.3436027"><ele>1954</ele><time>2026-08-07T23:37:13.000Z</time></trkpt>
        <trkpt lat="29.5593108" lon="103.3436557"><ele>1959.02</ele><time>2026-08-07T23:37:53.000Z</time></trkpt>
        <trkpt lat="29.5592563" lon="103.3437451"><ele>1963.72</ele><time>2026-08-07T23:38:27.000Z</time></trkpt>
        <trkpt lat="29.5591786" lon="103.3437187"><ele>1969.58</ele><time>2026-08-07T23:41:47.000Z</time></trkpt>
        <trkpt lat="29.5590989" lon="103.3436595"><ele>1976.01</ele><time>2026-08-07T23:42:19.000Z</time></trkpt>
        <trkpt lat="29.5590076" lon="103.3436571"><ele>1982.99</ele><time>2026-08-07T23:42:47.000Z</time></trkpt>
        <trkpt lat="29.5589359" lon="103.3437208"><ele>1989.54</ele><time>2026-08-07T23:43:07.000Z</time></trkpt>
        <trkpt lat="29.5588718" lon="103.3438099"><ele>1994</ele><time>2026-08-07T23:43:33.000Z</time></trkpt>
        <trkpt lat="29.5588999" lon="103.3439178"><ele>1998</ele><time>2026-08-07T23:43:43.000Z</time></trkpt>
        <trkpt lat="29.5589386" lon="103.3440353"><ele>2001.14</ele><time>2026-08-07T23:43:55.000Z</time></trkpt>
        <trkpt lat="29.5589538" lon="103.3441491"><ele>2002.83</ele><time>2026-08-07T23:44:09.000Z</time></trkpt>
        <trkpt lat="29.5589399" lon="103.3440968"><ele>2004.86</ele><time>2026-08-07T23:44:21.000Z</time></trkpt>
        <trkpt lat="29.5589258" lon="103.3441482"><ele>2006.55</ele><time>2026-08-07T23:44:35.000Z</time></trkpt>
        <trkpt lat="29.5589044" lon="103.34424"><ele>2007.93</ele><time>2026-08-07T23:44:55.000Z</time></trkpt>
        <trkpt lat="29.5588293" lon="103.34424"><ele>2010.82</ele><time>2026-08-07T23:45:39.000Z</time></trkpt>
        <trkpt lat="29.5587159" lon="103.3442289"><ele>2016.61</ele><time>2026-08-07T23:46:49.000Z</time></trkpt>
        <trkpt lat="29.5586287" lon="103.3441984"><ele>2019.76</ele><time>2026-08-07T23:47:01.000Z</time></trkpt>
        <trkpt lat="29.5585295" lon="103.3441753"><ele>2022.9</ele><time>2026-08-07T23:47:21.000Z</time></trkpt>
        <trkpt lat="29.5585031" lon="103.3441416"><ele>2025.19</ele><time>2026-08-07T23:47:35.000Z</time></trkpt>
        <trkpt lat="29.5584336" lon="103.3441049"><ele>2027.09</ele><time>2026-08-07T23:48:59.000Z</time></trkpt>
        <trkpt lat="29.5583462" lon="103.3440808"><ele>2030.73</ele><time>2026-08-07T23:55:41.000Z</time></trkpt>
        <trkpt lat="29.5582504" lon="103.3441199"><ele>2034.39</ele><time>2026-08-07T23:56:05.000Z</time></trkpt>
        <trkpt lat="29.5582094" lon="103.3439178"><ele>2034.47</ele><time>2026-08-07T23:56:13.000Z</time></trkpt>
        <trkpt lat="29.5581397" lon="103.3439191"><ele>2035.48</ele><time>2026-08-07T23:56:21.000Z</time></trkpt>
        <trkpt lat="29.5581271" lon="103.3440198"><ele>2038.94</ele><time>2026-08-07T23:56:41.000Z</time></trkpt>
        <trkpt lat="29.5580693" lon="103.3439888"><ele>2041.01</ele><time>2026-08-07T23:57:02.000Z</time></trkpt>
        <trkpt lat="29.5579487" lon="103.3439805"><ele>2041.91</ele><time>2026-08-07T23:57:05.000Z</time></trkpt>
        <trkpt lat="29.5578535" lon="103.3439914"><ele>2043.57</ele><time>2026-08-07T23:57:17.000Z</time></trkpt>
        <trkpt lat="29.5577559" lon="103.343994"><ele>2041.53</ele><time>2026-08-07T23:57:21.000Z</time></trkpt>
        <trkpt lat="29.5576738" lon="103.3440379"><ele>2041.97</ele><time>2026-08-07T23:57:25.000Z</time></trkpt>
        <trkpt lat="29.557627" lon="103.3439787"><ele>2043.35</ele><time>2026-08-07T23:57:45.000Z</time></trkpt>
        <trkpt lat="29.5575774" lon="103.3438914"><ele>2043.39</ele><time>2026-08-07T23:57:57.000Z</time></trkpt>
        <trkpt lat="29.5575205" lon="103.3438014"><ele>2043.58</ele><time>2026-08-07T23:58:11.000Z</time></trkpt>
        <trkpt lat="29.5574595" lon="103.3437051"><ele>2039.57</ele><time>2026-08-07T23:58:21.000Z</time></trkpt>
        <trkpt lat="29.557379" lon="103.3436513"><ele>2036.62</ele><time>2026-08-07T23:58:33.000Z</time></trkpt>
        <trkpt lat="29.5572893" lon="103.3436185"><ele>2037.5</ele><time>2026-08-07T23:58:57.000Z</time></trkpt>
        <trkpt lat="29.557198" lon="103.343602"><ele>2038.1</ele><time>2026-08-07T23:59:33.000Z</time></trkpt>
        <trkpt lat="29.5571034" lon="103.3436101"><ele>2043.65</ele><time>2026-08-07T23:59:57.000Z</time></trkpt>
        <trkpt lat="29.5570203" lon="103.3436601"><ele>2047.25</ele><time>2026-08-08T00:00:17.000Z</time></trkpt>
        <trkpt lat="29.5569293" lon="103.3437121"><ele>2052.39</ele><time>2026-08-08T00:00:35.000Z</time></trkpt>
        <trkpt lat="29.5568438" lon="103.3437605"><ele>2057.04</ele><time>2026-08-08T00:00:57.000Z</time></trkpt>
        <trkpt lat="29.5567631" lon="103.3437384"><ele>2058.64</ele><time>2026-08-08T00:01:17.000Z</time></trkpt>
        <trkpt lat="29.5566804" lon="103.343768"><ele>2063.38</ele><time>2026-08-08T00:01:37.000Z</time></trkpt>
        <trkpt lat="29.5566067" lon="103.3438271"><ele>2067.12</ele><time>2026-08-08T00:01:55.000Z</time></trkpt>
        <trkpt lat="29.5565864" lon="103.3439279"><ele>2072.59</ele><time>2026-08-08T00:02:37.000Z</time></trkpt>
        <trkpt lat="29.5565483" lon="103.3440238"><ele>2074.85</ele><time>2026-08-08T00:03:05.000Z</time></trkpt>
        <trkpt lat="29.556504" lon="103.3441232"><ele>2079.51</ele><time>2026-08-08T00:03:27.000Z</time></trkpt>
        <trkpt lat="29.5564412" lon="103.3442084"><ele>2085.25</ele><time>2026-08-08T00:03:49.000Z</time></trkpt>
        <trkpt lat="29.5563637" lon="103.3442694"><ele>2090.3</ele><time>2026-08-08T00:04:05.000Z</time></trkpt>
        <trkpt lat="29.5562834" lon="103.3443267"><ele>2093.18</ele><time>2026-08-08T00:04:25.000Z</time></trkpt>
        <trkpt lat="29.5562146" lon="103.3444086"><ele>2098.38</ele><time>2026-08-08T00:04:45.000Z</time></trkpt>
        <trkpt lat="29.5561441" lon="103.3444806"><ele>2104.56</ele><time>2026-08-08T00:05:11.000Z</time></trkpt>
        <trkpt lat="29.5560776" lon="103.3445504"><ele>2105.67</ele><time>2026-08-08T00:14:17.000Z</time></trkpt>
        <trkpt lat="29.5560143" lon="103.3446329"><ele>2109.67</ele><time>2026-08-08T00:14:37.000Z</time></trkpt>
        <trkpt lat="29.5559785" lon="103.3447343"><ele>2113.53</ele><time>2026-08-08T00:14:55.000Z</time></trkpt>
        <trkpt lat="29.5559273" lon="103.3448271"><ele>2117.7</ele><time>2026-08-08T00:15:13.000Z</time></trkpt>
        <trkpt lat="29.5558933" lon="103.3449306"><ele>2123.65</ele><time>2026-08-08T00:15:37.000Z</time></trkpt>
        <trkpt lat="29.5558488" lon="103.3450275"><ele>2128.8</ele><time>2026-08-08T00:15:47.000Z</time></trkpt>
        <trkpt lat="29.5557721" lon="103.3450195"><ele>2130.55</ele><time>2026-08-08T00:16:03.000Z</time></trkpt>
        <trkpt lat="29.5556802" lon="103.3450078"><ele>2131.38</ele><time>2026-08-08T00:16:27.000Z</time></trkpt>
        <trkpt lat="29.555586" lon="103.344979"><ele>2133.64</ele><time>2026-08-08T00:17:03.000Z</time></trkpt>
        <trkpt lat="29.5555321" lon="103.3450409"><ele>2137.9</ele><time>2026-08-08T00:17:49.000Z</time></trkpt>
        <trkpt lat="29.5554622" lon="103.3451095"><ele>2143.07</ele><time>2026-08-08T00:18:15.000Z</time></trkpt>
        <trkpt lat="29.5553854" lon="103.3450931"><ele>2148.07</ele><time>2026-08-08T00:18:48.000Z</time></trkpt>
        <trkpt lat="29.55533" lon="103.3450144"><ele>2153.85</ele><time>2026-08-08T00:19:02.000Z</time></trkpt>
        <trkpt lat="29.5552533" lon="103.3450265"><ele>2159.19</ele><time>2026-08-08T00:19:14.000Z</time></trkpt>
        <trkpt lat="29.5551705" lon="103.3450918"><ele>2162.85</ele><time>2026-08-08T00:19:30.000Z</time></trkpt>
        <trkpt lat="29.5550826" lon="103.3451408"><ele>2165.58</ele><time>2026-08-08T00:19:40.000Z</time></trkpt>
        <trkpt lat="29.5549865" lon="103.3451677"><ele>2167.34</ele><time>2026-08-08T00:19:54.000Z</time></trkpt>
        <trkpt lat="29.5548944" lon="103.3451971"><ele>2169.72</ele><time>2026-08-08T00:20:08.000Z</time></trkpt>
        <trkpt lat="29.5548137" lon="103.3452571"><ele>2171.4</ele><time>2026-08-08T00:20:24.000Z</time></trkpt>
        <trkpt lat="29.5547444" lon="103.3453187"><ele>2171.38</ele><time>2026-08-08T00:20:52.000Z</time></trkpt>
        <trkpt lat="29.5546591" lon="103.3453544"><ele>2174.41</ele><time>2026-08-08T00:21:20.000Z</time></trkpt>
        <trkpt lat="29.5545696" lon="103.3453939"><ele>2180.3</ele><time>2026-08-08T00:21:48.000Z</time></trkpt>
        <trkpt lat="29.5544768" lon="103.3454072"><ele>2184.41</ele><time>2026-08-08T00:22:10.000Z</time></trkpt>
        <trkpt lat="29.5543854" lon="103.3454208"><ele>2189.68</ele><time>2026-08-08T00:22:40.000Z</time></trkpt>
        <trkpt lat="29.5542936" lon="103.3454307"><ele>2194.24</ele><time>2026-08-08T00:23:00.000Z</time></trkpt>
        <trkpt lat="29.5542111" lon="103.3454788"><ele>2197.87</ele><time>2026-08-08T00:23:24.000Z</time></trkpt>
        <trkpt lat="29.5541221" lon="103.34551"><ele>2201.3</ele><time>2026-08-08T00:23:46.000Z</time></trkpt>
        <trkpt lat="29.5540304" lon="103.3454687"><ele>2205.92</ele><time>2026-08-08T00:24:08.000Z</time></trkpt>
        <trkpt lat="29.5539389" lon="103.3454053"><ele>2212.89</ele><time>2026-08-08T00:24:20.000Z</time></trkpt>
        <trkpt lat="29.5538502" lon="103.3453584"><ele>2217.24</ele><time>2026-08-08T00:24:34.000Z</time></trkpt>
        <trkpt lat="29.5537605" lon="103.3453294"><ele>2220.78</ele><time>2026-08-08T00:24:48.000Z</time></trkpt>
        <trkpt lat="29.5536647" lon="103.3453057"><ele>2223.22</ele><time>2026-08-08T00:25:04.000Z</time></trkpt>
        <trkpt lat="29.5535732" lon="103.3453173"><ele>2226.58</ele><time>2026-08-08T00:25:16.000Z</time></trkpt>
        <trkpt lat="29.5534712" lon="103.3453294"><ele>2229.04</ele><time>2026-08-08T00:25:30.000Z</time></trkpt>
        <trkpt lat="29.5533699" lon="103.345358"><ele>2230.91</ele><time>2026-08-08T00:25:44.000Z</time></trkpt>
        <trkpt lat="29.5532754" lon="103.3453893"><ele>2233.45</ele><time>2026-08-08T00:32:02.000Z</time></trkpt>
        <trkpt lat="29.5531748" lon="103.3454202"><ele>2236.29</ele><time>2026-08-08T00:32:20.000Z</time></trkpt>
        <trkpt lat="29.5530886" lon="103.345466"><ele>2237.72</ele><time>2026-08-08T00:32:34.000Z</time></trkpt>
        <trkpt lat="29.552996" lon="103.345506"><ele>2241.03</ele><time>2026-08-08T00:32:46.000Z</time></trkpt>
        <trkpt lat="29.5529024" lon="103.3455113"><ele>2241.78</ele><time>2026-08-08T00:32:58.000Z</time></trkpt>
        <trkpt lat="29.5528098" lon="103.3454807"><ele>2241.94</ele><time>2026-08-08T00:33:08.000Z</time></trkpt>
        <trkpt lat="29.552716" lon="103.3454522"><ele>2243.39</ele><time>2026-08-08T00:33:20.000Z</time></trkpt>
        <trkpt lat="29.5526248" lon="103.3454685"><ele>2244.1</ele><time>2026-08-08T00:33:30.000Z</time></trkpt>
        <trkpt lat="29.5525338" lon="103.345489"><ele>2244.35</ele><time>2026-08-08T00:33:40.000Z</time></trkpt>
        <trkpt lat="29.5524542" lon="103.3454458"><ele>2244.91</ele><time>2026-08-08T00:33:52.000Z</time></trkpt>
        <trkpt lat="29.5524554" lon="103.3453442"><ele>2241.42</ele><time>2026-08-08T00:34:02.000Z</time></trkpt>
        <trkpt lat="29.5524338" lon="103.3452328"><ele>2239.51</ele><time>2026-08-08T00:34:16.000Z</time></trkpt>
        <trkpt lat="29.5523737" lon="103.3451473"><ele>2240.94</ele><time>2026-08-08T00:34:32.000Z</time></trkpt>
        <trkpt lat="29.5522849" lon="103.3451036"><ele>2243.4</ele><time>2026-08-08T00:34:42.000Z</time></trkpt>
        <trkpt lat="29.5521888" lon="103.3450989"><ele>2243.87</ele><time>2026-08-08T00:34:52.000Z</time></trkpt>
        <trkpt lat="29.5520969" lon="103.3450715"><ele>2244.18</ele><time>2026-08-08T00:35:02.000Z</time></trkpt>
        <trkpt lat="29.5520429" lon="103.3449925"><ele>2244.16</ele><time>2026-08-08T00:35:12.000Z</time></trkpt>
        <trkpt lat="29.5520224" lon="103.3448882"><ele>2241.81</ele><time>2026-08-08T00:35:22.000Z</time></trkpt>
        <trkpt lat="29.5519718" lon="103.3447866"><ele>2240.47</ele><time>2026-08-08T00:35:34.000Z</time></trkpt>
        <trkpt lat="29.5519124" lon="103.3446991"><ele>2239.06</ele><time>2026-08-08T00:35:42.000Z</time></trkpt>
        <trkpt lat="29.5518468" lon="103.3446061"><ele>2238.12</ele><time>2026-08-08T00:35:52.000Z</time></trkpt>
        <trkpt lat="29.5517935" lon="103.3445131"><ele>2236.63</ele><time>2026-08-08T00:36:02.000Z</time></trkpt>
        <trkpt lat="29.5517535" lon="103.3444514"><ele>2236.67</ele><time>2026-08-08T00:36:12.000Z</time></trkpt>
        <trkpt lat="29.5517027" lon="103.3443765"><ele>2236.27</ele><time>2026-08-08T00:36:32.000Z</time></trkpt>
        <trkpt lat="29.5516301" lon="103.344309"><ele>2238.1</ele><time>2026-08-08T00:37:18.000Z</time></trkpt>
        <trkpt lat="29.5515376" lon="103.3442791"><ele>2238.15</ele><time>2026-08-08T00:37:30.000Z</time></trkpt>
        <trkpt lat="29.5514282" lon="103.3442368"><ele>2235.67</ele><time>2026-08-08T00:37:42.000Z</time></trkpt>
        <trkpt lat="29.5513212" lon="103.344212"><ele>2234.71</ele><time>2026-08-08T00:37:52.000Z</time></trkpt>
        <trkpt lat="29.5512096" lon="103.3442268"><ele>2235.27</ele><time>2026-08-08T00:38:04.000Z</time></trkpt>
        <trkpt lat="29.5511033" lon="103.3441983"><ele>2233.72</ele><time>2026-08-08T00:38:14.000Z</time></trkpt>
        <trkpt lat="29.5509962" lon="103.3441642"><ele>2232.76</ele><time>2026-08-08T00:38:24.000Z</time></trkpt>
        <trkpt lat="29.5508905" lon="103.3441426"><ele>2234.4</ele><time>2026-08-08T00:38:34.000Z</time></trkpt>
        <trkpt lat="29.5507939" lon="103.3441071"><ele>2235.63</ele><time>2026-08-08T00:38:44.000Z</time></trkpt>
        <trkpt lat="29.55076" lon="103.3440066"><ele>2235.71</ele><time>2026-08-08T00:38:54.000Z</time></trkpt>
        <trkpt lat="29.5506948" lon="103.3439361"><ele>2233.9</ele><time>2026-08-08T00:39:08.000Z</time></trkpt>
        <trkpt lat="29.5506181" lon="103.3438802"><ele>2234.15</ele><time>2026-08-08T00:39:20.000Z</time></trkpt>
        <trkpt lat="29.5505613" lon="103.3438015"><ele>2234.53</ele><time>2026-08-08T00:39:30.000Z</time></trkpt>
        <trkpt lat="29.5504969" lon="103.343724"><ele>2236.02</ele><time>2026-08-08T00:39:40.000Z</time></trkpt>
        <trkpt lat="29.5504266" lon="103.3436397"><ele>2236.2</ele><time>2026-08-08T00:39:50.000Z</time></trkpt>
        <trkpt lat="29.5503574" lon="103.3435454"><ele>2235.48</ele><time>2026-08-08T00:40:00.000Z</time></trkpt>
        <trkpt lat="29.5503079" lon="103.3434508"><ele>2235.72</ele><time>2026-08-08T00:40:08.000Z</time></trkpt>
        <trkpt lat="29.5502589" lon="103.3433478"><ele>2235.59</ele><time>2026-08-08T00:40:18.000Z</time></trkpt>
        <trkpt lat="29.5501876" lon="103.3432624"><ele>2235.96</ele><time>2026-08-08T00:40:28.000Z</time></trkpt>
        <trkpt lat="29.5501115" lon="103.3431826"><ele>2235.31</ele><time>2026-08-08T00:40:38.000Z</time></trkpt>
        <trkpt lat="29.5500438" lon="103.3430936"><ele>2235.16</ele><time>2026-08-08T00:40:48.000Z</time></trkpt>
        <trkpt lat="29.5499842" lon="103.3429958"><ele>2234.49</ele><time>2026-08-08T00:40:58.000Z</time></trkpt>
        <trkpt lat="29.5499299" lon="103.3428925"><ele>2235.9</ele><time>2026-08-08T00:41:08.000Z</time></trkpt>
        <trkpt lat="29.5498827" lon="103.3427822"><ele>2236.89</ele><time>2026-08-08T00:41:18.000Z</time></trkpt>
        <trkpt lat="29.549832" lon="103.3426778"><ele>2236.55</ele><time>2026-08-08T00:41:28.000Z</time></trkpt>
        <trkpt lat="29.5497746" lon="103.3425809"><ele>2237.09</ele><time>2026-08-08T00:41:38.000Z</time></trkpt>
        <trkpt lat="29.5497059" lon="103.3424925"><ele>2238.62</ele><time>2026-08-08T00:41:48.000Z</time></trkpt>
        <trkpt lat="29.5496325" lon="103.3424207"><ele>2239.46</ele><time>2026-08-08T00:41:56.000Z</time></trkpt>
        <trkpt lat="29.5495535" lon="103.3423438"><ele>2239.52</ele><time>2026-08-08T00:42:06.000Z</time></trkpt>
        <trkpt lat="29.5495215" lon="103.3422897"><ele>2239.58</ele><time>2026-08-08T00:42:12.000Z</time></trkpt>
        <trkpt lat="29.5494681" lon="103.3422233"><ele>2241.26</ele><time>2026-08-08T00:42:50.000Z</time></trkpt>
        <trkpt lat="29.5494208" lon="103.3421297"><ele>2241.8</ele><time>2026-08-08T00:43:00.000Z</time></trkpt>
        <trkpt lat="29.5493882" lon="103.3420151"><ele>2241.47</ele><time>2026-08-08T00:43:12.000Z</time></trkpt>
        <trkpt lat="29.5493394" lon="103.341907"><ele>2241.17</ele><time>2026-08-08T00:43:24.000Z</time></trkpt>
        <trkpt lat="29.549322" lon="103.3418747"><ele>2240.81</ele><time>2026-08-08T00:43:26.000Z</time></trkpt>
        <trkpt lat="29.5493051" lon="103.3417942"><ele>2240.55</ele><time>2026-08-08T00:43:40.000Z</time></trkpt>
        <trkpt lat="29.5492869" lon="103.3416834"><ele>2239.43</ele><time>2026-08-08T00:43:52.000Z</time></trkpt>
        <trkpt lat="29.5492563" lon="103.3415664"><ele>2241.08</ele><time>2026-08-08T00:44:04.000Z</time></trkpt>
        <trkpt lat="29.5492327" lon="103.3414568"><ele>2241.38</ele><time>2026-08-08T00:44:18.000Z</time></trkpt>
        <trkpt lat="29.549179" lon="103.3413699"><ele>2240.83</ele><time>2026-08-08T00:44:38.000Z</time></trkpt>
        <trkpt lat="29.549109" lon="103.3412953"><ele>2240.85</ele><time>2026-08-08T00:44:56.000Z</time></trkpt>
        <trkpt lat="29.5490646" lon="103.3412008"><ele>2242.9</ele><time>2026-08-08T00:45:14.000Z</time></trkpt>
        <trkpt lat="29.5489794" lon="103.3411664"><ele>2246.77</ele><time>2026-08-08T00:45:28.000Z</time></trkpt>
        <trkpt lat="29.5488797" lon="103.3411595"><ele>2250.31</ele><time>2026-08-08T00:45:42.000Z</time></trkpt>
        <trkpt lat="29.5487796" lon="103.3411664"><ele>2251.66</ele><time>2026-08-08T00:46:02.000Z</time></trkpt>
        <trkpt lat="29.5486869" lon="103.3411974"><ele>2253.24</ele><time>2026-08-08T00:46:30.000Z</time></trkpt>
        <trkpt lat="29.5485932" lon="103.34121"><ele>2255.18</ele><time>2026-08-08T00:46:50.000Z</time></trkpt>
        <trkpt lat="29.5485025" lon="103.3412379"><ele>2258.48</ele><time>2026-08-08T00:47:12.000Z</time></trkpt>
        <trkpt lat="29.5484144" lon="103.3412762"><ele>2263.23</ele><time>2026-08-08T00:47:34.000Z</time></trkpt>
        <trkpt lat="29.5483213" lon="103.3412664"><ele>2265.39</ele><time>2026-08-08T00:47:56.000Z</time></trkpt>
        <trkpt lat="29.5482325" lon="103.341237"><ele>2268.61</ele><time>2026-08-08T00:48:16.000Z</time></trkpt>
        <trkpt lat="29.5481373" lon="103.3412149"><ele>2272.05</ele><time>2026-08-08T00:48:34.000Z</time></trkpt>
        <trkpt lat="29.5480453" lon="103.3412132"><ele>2275.68</ele><time>2026-08-08T00:48:48.000Z</time></trkpt>
        <trkpt lat="29.5480195" lon="103.3412043"><ele>2278.23</ele><time>2026-08-08T00:48:50.000Z</time></trkpt>
        <trkpt lat="29.5479463" lon="103.3412112"><ele>2279.76</ele><time>2026-08-08T00:53:52.000Z</time></trkpt>
        <trkpt lat="29.5478666" lon="103.3411482"><ele>2282.74</ele><time>2026-08-08T00:54:08.000Z</time></trkpt>
        <trkpt lat="29.5477848" lon="103.341185"><ele>2287.11</ele><time>2026-08-08T00:54:24.000Z</time></trkpt>
        <trkpt lat="29.5477132" lon="103.3411282"><ele>2289.3</ele><time>2026-08-08T00:54:34.000Z</time></trkpt>
        <trkpt lat="29.5476329" lon="103.3410819"><ele>2290.05</ele><time>2026-08-08T00:54:44.000Z</time></trkpt>
        <trkpt lat="29.5475384" lon="103.3410664"><ele>2290.58</ele><time>2026-08-08T00:54:58.000Z</time></trkpt>
        <trkpt lat="29.5474433" lon="103.3410317"><ele>2292.27</ele><time>2026-08-08T00:55:20.000Z</time></trkpt>
        <trkpt lat="29.5473761" lon="103.3409598"><ele>2294.33</ele><time>2026-08-08T00:55:50.000Z</time></trkpt>
        <trkpt lat="29.5473534" lon="103.3408385"><ele>2296.88</ele><time>2026-08-08T00:57:22.000Z</time></trkpt>
        <trkpt lat="29.5473036" lon="103.3407384"><ele>2300.67</ele><time>2026-08-08T00:57:32.000Z</time></trkpt>
        <trkpt lat="29.5472696" lon="103.3406397"><ele>2302.72</ele><time>2026-08-08T00:57:44.000Z</time></trkpt>
        <trkpt lat="29.547229" lon="103.3405443"><ele>2305.09</ele><time>2026-08-08T00:58:02.000Z</time></trkpt>
        <trkpt lat="29.5471807" lon="103.3404466"><ele>2306.17</ele><time>2026-08-08T00:58:36.000Z</time></trkpt>
        <trkpt lat="29.547202" lon="103.3403475"><ele>2308.02</ele><time>2026-08-08T00:58:58.000Z</time></trkpt>
        <trkpt lat="29.54722" lon="103.3403072"><ele>2311.05</ele><time>2026-08-08T00:59:06.000Z</time></trkpt>
        <trkpt lat="29.5472115" lon="103.3402249"><ele>2315.2</ele><time>2026-08-08T01:00:00.000Z</time></trkpt>
        <trkpt lat="29.5471939" lon="103.3401241"><ele>2319.02</ele><time>2026-08-08T01:00:34.000Z</time></trkpt>
        <trkpt lat="29.5471887" lon="103.3400171"><ele>2325.08</ele><time>2026-08-08T01:00:58.000Z</time></trkpt>
        <trkpt lat="29.5471552" lon="103.3399177"><ele>2329.73</ele><time>2026-08-08T01:01:34.000Z</time></trkpt>
        <trkpt lat="29.547167" lon="103.3398101"><ele>2333.88</ele><time>2026-08-08T01:01:54.000Z</time></trkpt>
        <trkpt lat="29.5471217" lon="103.3397256"><ele>2338.29</ele><time>2026-08-08T01:02:12.000Z</time></trkpt>
        <trkpt lat="29.5470558" lon="103.3396445"><ele>2342.39</ele><time>2026-08-08T01:02:32.000Z</time></trkpt>
        <trkpt lat="29.5469758" lon="103.3395866"><ele>2343.88</ele><time>2026-08-08T01:02:58.000Z</time></trkpt>
        <trkpt lat="29.5468915" lon="103.3395391"><ele>2347.54</ele><time>2026-08-08T01:03:22.000Z</time></trkpt>
        <trkpt lat="29.5468893" lon="103.3394521"><ele>2350.81</ele><time>2026-08-08T01:03:42.000Z</time></trkpt>
        <trkpt lat="29.5468731" lon="103.3393511"><ele>2355.43</ele><time>2026-08-08T01:04:04.000Z</time></trkpt>
        <trkpt lat="29.5468062" lon="103.3392972"><ele>2359.49</ele><time>2026-08-08T01:04:32.000Z</time></trkpt>
        <trkpt lat="29.5467452" lon="103.3392243"><ele>2362.11</ele><time>2026-08-08T01:04:56.000Z</time></trkpt>
        <trkpt lat="29.5466995" lon="103.3391339"><ele>2366.82</ele><time>2026-08-08T01:05:26.000Z</time></trkpt>
        <trkpt lat="29.5466285" lon="103.3390695"><ele>2372.28</ele><time>2026-08-08T01:05:46.000Z</time></trkpt>
        <trkpt lat="29.5465992" lon="103.3389754"><ele>2376.35</ele><time>2026-08-08T01:06:04.000Z</time></trkpt>
        <trkpt lat="29.5465327" lon="103.3389123"><ele>2379.76</ele><time>2026-08-08T01:06:22.000Z</time></trkpt>
        <trkpt lat="29.5464832" lon="103.3388274"><ele>2381.92</ele><time>2026-08-08T01:06:42.000Z</time></trkpt>
        <trkpt lat="29.5464071" lon="103.3387644"><ele>2386.61</ele><time>2026-08-08T01:07:06.000Z</time></trkpt>
        <trkpt lat="29.5463257" lon="103.3387002"><ele>2389.11</ele><time>2026-08-08T01:07:38.000Z</time></trkpt>
        <trkpt lat="29.5462995" lon="103.3386037"><ele>2394.09</ele><time>2026-08-08T01:07:54.000Z</time></trkpt>
        <trkpt lat="29.5462475" lon="103.3385252"><ele>2399.2</ele><time>2026-08-08T01:08:08.000Z</time></trkpt>
        <trkpt lat="29.5462014" lon="103.3384299"><ele>2401.82</ele><time>2026-08-08T01:08:22.000Z</time></trkpt>
        <trkpt lat="29.5461744" lon="103.3383249"><ele>2404.91</ele><time>2026-08-08T01:08:36.000Z</time></trkpt>
        <trkpt lat="29.5462197" lon="103.3382237"><ele>2406.91</ele><time>2026-08-08T01:14:34.000Z</time></trkpt>
        <trkpt lat="29.5462193" lon="103.338117"><ele>2409.47</ele><time>2026-08-08T01:15:02.000Z</time></trkpt>
        <trkpt lat="29.5462535" lon="103.338004"><ele>2413.25</ele><time>2026-08-08T01:15:22.000Z</time></trkpt>
        <trkpt lat="29.5463118" lon="103.3379129"><ele>2416.17</ele><time>2026-08-08T01:15:32.000Z</time></trkpt>
        <trkpt lat="29.5463772" lon="103.3378289"><ele>2417.2</ele><time>2026-08-08T01:15:42.000Z</time></trkpt>
        <trkpt lat="29.5464356" lon="103.3377338"><ele>2418.09</ele><time>2026-08-08T01:15:54.000Z</time></trkpt>
        <trkpt lat="29.5464646" lon="103.3376305"><ele>2419.94</ele><time>2026-08-08T01:16:06.000Z</time></trkpt>
        <trkpt lat="29.5464945" lon="103.3375273"><ele>2420.4</ele><time>2026-08-08T01:16:16.000Z</time></trkpt>
        <trkpt lat="29.546555" lon="103.3374371"><ele>2419.91</ele><time>2026-08-08T01:16:26.000Z</time></trkpt>
        <trkpt lat="29.5466091" lon="103.3373657"><ele>2419.92</ele><time>2026-08-08T01:16:36.000Z</time></trkpt>
        <trkpt lat="29.5466517" lon="103.3372718"><ele>2421.02</ele><time>2026-08-08T01:17:04.000Z</time></trkpt>
        <trkpt lat="29.5466701" lon="103.3371629"><ele>2421.7</ele><time>2026-08-08T01:17:16.000Z</time></trkpt>
        <trkpt lat="29.546637" lon="103.3370554"><ele>2422.86</ele><time>2026-08-08T01:17:28.000Z</time></trkpt>
        <trkpt lat="29.5465536" lon="103.3369954"><ele>2426.32</ele><time>2026-08-08T01:17:38.000Z</time></trkpt>
        <trkpt lat="29.54649" lon="103.3369079"><ele>2428.9</ele><time>2026-08-08T01:17:54.000Z</time></trkpt>
        <trkpt lat="29.5464559" lon="103.3368036"><ele>2429.13</ele><time>2026-08-08T01:18:10.000Z</time></trkpt>
        <trkpt lat="29.5464401" lon="103.3366928"><ele>2428.36</ele><time>2026-08-08T01:18:24.000Z</time></trkpt>
        <trkpt lat="29.5464531" lon="103.3365803"><ele>2428.44</ele><time>2026-08-08T01:18:40.000Z</time></trkpt>
        <trkpt lat="29.546503" lon="103.3364897"><ele>2425.25</ele><time>2026-08-08T01:18:54.000Z</time></trkpt>
        <trkpt lat="29.5465419" lon="103.3363906"><ele>2422.4</ele><time>2026-08-08T01:19:16.000Z</time></trkpt>
        <trkpt lat="29.5465567" lon="103.3362775"><ele>2419.08</ele><time>2026-08-08T01:19:30.000Z</time></trkpt>
        <trkpt lat="29.546575" lon="103.3361702"><ele>2418.11</ele><time>2026-08-08T01:19:44.000Z</time></trkpt>
        <trkpt lat="29.5466247" lon="103.336074"><ele>2413.36</ele><time>2026-08-08T01:19:58.000Z</time></trkpt>
        <trkpt lat="29.5466688" lon="103.3359673"><ele>2409.98</ele><time>2026-08-08T01:20:10.000Z</time></trkpt>
        <trkpt lat="29.546702" lon="103.3358481"><ele>2407.53</ele><time>2026-08-08T01:20:28.000Z</time></trkpt>
        <trkpt lat="29.5467154" lon="103.3357366"><ele>2403.43</ele><time>2026-08-08T01:20:38.000Z</time></trkpt>
        <trkpt lat="29.5467353" lon="103.3356296"><ele>2401.78</ele><time>2026-08-08T01:20:48.000Z</time></trkpt>
        <trkpt lat="29.5467701" lon="103.3355256"><ele>2401.36</ele><time>2026-08-08T01:20:58.000Z</time></trkpt>
        <trkpt lat="29.5468069" lon="103.3354119"><ele>2401.36</ele><time>2026-08-08T01:21:08.000Z</time></trkpt>
        <trkpt lat="29.5468411" lon="103.3352907"><ele>2399.57</ele><time>2026-08-08T01:21:20.000Z</time></trkpt>
        <trkpt lat="29.5468758" lon="103.3351776"><ele>2400.9</ele><time>2026-08-08T01:21:32.000Z</time></trkpt>
        <trkpt lat="29.5468517" lon="103.3350693"><ele>2402.01</ele><time>2026-08-08T01:21:42.000Z</time></trkpt>
        <trkpt lat="29.5467883" lon="103.3349771"><ele>2404.77</ele><time>2026-08-08T01:21:54.000Z</time></trkpt>
        <trkpt lat="29.5466978" lon="103.3349157"><ele>2407.46</ele><time>2026-08-08T01:22:06.000Z</time></trkpt>
        <trkpt lat="29.5465979" lon="103.3348836"><ele>2410.13</ele><time>2026-08-08T01:22:20.000Z</time></trkpt>
        <trkpt lat="29.5465049" lon="103.3348486"><ele>2408.18</ele><time>2026-08-08T01:22:34.000Z</time></trkpt>
        <trkpt lat="29.5464084" lon="103.3348244"><ele>2405.25</ele><time>2026-08-08T01:22:46.000Z</time></trkpt>
        <trkpt lat="29.5463267" lon="103.334769"><ele>2403.61</ele><time>2026-08-08T01:23:04.000Z</time></trkpt>
        <trkpt lat="29.5462344" lon="103.3347396"><ele>2404.32</ele><time>2026-08-08T01:23:28.000Z</time></trkpt>
        <trkpt lat="29.5461431" lon="103.3347603"><ele>2406.91</ele><time>2026-08-08T01:23:40.000Z</time></trkpt>
        <trkpt lat="29.5460479" lon="103.3347522"><ele>2409.13</ele><time>2026-08-08T01:23:54.000Z</time></trkpt>
        <trkpt lat="29.5459528" lon="103.3347366"><ele>2410.73</ele><time>2026-08-08T01:24:20.000Z</time></trkpt>
        <trkpt lat="29.5458946" lon="103.3346596"><ele>2410.34</ele><time>2026-08-08T01:24:34.000Z</time></trkpt>
        <trkpt lat="29.5458453" lon="103.334567"><ele>2410.05</ele><time>2026-08-08T01:24:52.000Z</time></trkpt>
        <trkpt lat="29.5457602" lon="103.3345291"><ele>2404.58</ele><time>2026-08-08T01:25:06.000Z</time></trkpt>
        <trkpt lat="29.5456867" lon="103.3344677"><ele>2400.38</ele><time>2026-08-08T01:25:18.000Z</time></trkpt>
        <trkpt lat="29.5456029" lon="103.3344135"><ele>2399.56</ele><time>2026-08-08T01:25:30.000Z</time></trkpt>
        <trkpt lat="29.545517" lon="103.3343583"><ele>2399.68</ele><time>2026-08-08T01:25:42.000Z</time></trkpt>
        <trkpt lat="29.5454341" lon="103.3343065"><ele>2402.24</ele><time>2026-08-08T01:26:02.000Z</time></trkpt>
        <trkpt lat="29.5453461" lon="103.334241"><ele>2403.47</ele><time>2026-08-08T01:26:14.000Z</time></trkpt>
        <trkpt lat="29.5452866" lon="103.3341567"><ele>2402.87</ele><time>2026-08-08T01:26:28.000Z</time></trkpt>
        <trkpt lat="29.5452112" lon="103.3340912"><ele>2400.36</ele><time>2026-08-08T01:26:40.000Z</time></trkpt>
        <trkpt lat="29.5451233" lon="103.3340671"><ele>2399.73</ele><time>2026-08-08T01:26:50.000Z</time></trkpt>
        <trkpt lat="29.5450229" lon="103.3340676"><ele>2400.25</ele><time>2026-08-08T01:27:00.000Z</time></trkpt>
        <trkpt lat="29.5449186" lon="103.33408"><ele>2401.85</ele><time>2026-08-08T01:27:12.000Z</time></trkpt>
        <trkpt lat="29.5448252" lon="103.3341453"><ele>2400.6</ele><time>2026-08-08T01:27:22.000Z</time></trkpt>
        <trkpt lat="29.5447412" lon="103.3342208"><ele>2398.91</ele><time>2026-08-08T01:27:32.000Z</time></trkpt>
        <trkpt lat="29.5446492" lon="103.334265"><ele>2398.52</ele><time>2026-08-08T01:27:42.000Z</time></trkpt>
        <trkpt lat="29.5445584" lon="103.33424"><ele>2398.86</ele><time>2026-08-08T01:27:52.000Z</time></trkpt>
        <trkpt lat="29.5444694" lon="103.3342023"><ele>2399.12</ele><time>2026-08-08T01:28:00.000Z</time></trkpt>
        <trkpt lat="29.5443808" lon="103.3341693"><ele>2399.97</ele><time>2026-08-08T01:28:08.000Z</time></trkpt>
        <trkpt lat="29.5442819" lon="103.3341456"><ele>2401.98</ele><time>2026-08-08T01:28:18.000Z</time></trkpt>
        <trkpt lat="29.5441897" lon="103.3341244"><ele>2403.47</ele><time>2026-08-08T01:28:28.000Z</time></trkpt>
        <trkpt lat="29.5440995" lon="103.3341051"><ele>2405.24</ele><time>2026-08-08T01:28:38.000Z</time></trkpt>
        <trkpt lat="29.544012" lon="103.3340515"><ele>2406.12</ele><time>2026-08-08T01:28:50.000Z</time></trkpt>
        <trkpt lat="29.5439469" lon="103.3339589"><ele>2405.25</ele><time>2026-08-08T01:29:04.000Z</time></trkpt>
        <trkpt lat="29.5438552" lon="103.33392"><ele>2402.43</ele><time>2026-08-08T01:29:16.000Z</time></trkpt>
        <trkpt lat="29.5437617" lon="103.3339403"><ele>2400.76</ele><time>2026-08-08T01:29:26.000Z</time></trkpt>
        <trkpt lat="29.5436684" lon="103.3339146"><ele>2400.22</ele><time>2026-08-08T01:29:38.000Z</time></trkpt>
        <trkpt lat="29.5436182" lon="103.333853"><ele>2400.58</ele><time>2026-08-08T01:29:49.000Z</time></trkpt>
        <trkpt lat="29.5435619" lon="103.3337642"><ele>2399.52</ele><time>2026-08-08T01:30:27.000Z</time></trkpt>
        <trkpt lat="29.5434825" lon="103.3337036"><ele>2399.09</ele><time>2026-08-08T01:30:55.000Z</time></trkpt>
        <trkpt lat="29.5434251" lon="103.3336226"><ele>2398.22</ele><time>2026-08-08T01:31:05.000Z</time></trkpt>
        <trkpt lat="29.5434036" lon="103.333522"><ele>2395.87</ele><time>2026-08-08T01:31:17.000Z</time></trkpt>
        <trkpt lat="29.5433935" lon="103.3334132"><ele>2393.11</ele><time>2026-08-08T01:31:31.000Z</time></trkpt>
        <trkpt lat="29.5433589" lon="103.333275"><ele>2391.22</ele><time>2026-08-08T01:31:51.000Z</time></trkpt>
        <trkpt lat="29.5433017" lon="103.3331794"><ele>2390.77</ele><time>2026-08-08T01:32:03.000Z</time></trkpt>
        <trkpt lat="29.543269" lon="103.333082"><ele>2391.04</ele><time>2026-08-08T01:32:13.000Z</time></trkpt>
        <trkpt lat="29.5431911" lon="103.333051"><ele>2390.84</ele><time>2026-08-08T01:32:29.000Z</time></trkpt>
        <trkpt lat="29.5431187" lon="103.3329835"><ele>2391.08</ele><time>2026-08-08T01:32:39.000Z</time></trkpt>
        <trkpt lat="29.5430213" lon="103.3329534"><ele>2390.05</ele><time>2026-08-08T01:32:53.000Z</time></trkpt>
        <trkpt lat="29.5429329" lon="103.3329035"><ele>2389.37</ele><time>2026-08-08T01:33:11.000Z</time></trkpt>
        <trkpt lat="29.5428534" lon="103.332844"><ele>2389.67</ele><time>2026-08-08T01:33:29.000Z</time></trkpt>
        <trkpt lat="29.5427965" lon="103.3327598"><ele>2390.43</ele><time>2026-08-08T01:33:53.000Z</time></trkpt>
        <trkpt lat="29.5427489" lon="103.3326688"><ele>2391.17</ele><time>2026-08-08T01:34:13.000Z</time></trkpt>
        <trkpt lat="29.5426677" lon="103.3326474"><ele>2392.07</ele><time>2026-08-08T01:34:21.000Z</time></trkpt>
        <trkpt lat="29.5425872" lon="103.3325887"><ele>2392.62</ele><time>2026-08-08T01:34:31.000Z</time></trkpt>
        <trkpt lat="29.5425585" lon="103.332483"><ele>2393.63</ele><time>2026-08-08T01:34:41.000Z</time></trkpt>
        <trkpt lat="29.5425202" lon="103.3323769"><ele>2393.56</ele><time>2026-08-08T01:34:55.000Z</time></trkpt>
        <trkpt lat="29.5424718" lon="103.3322733"><ele>2393.68</ele><time>2026-08-08T01:35:07.000Z</time></trkpt>
        <trkpt lat="29.5424248" lon="103.3321784"><ele>2394.25</ele><time>2026-08-08T01:35:17.000Z</time></trkpt>
        <trkpt lat="29.5423424" lon="103.3321227"><ele>2394.47</ele><time>2026-08-08T01:35:29.000Z</time></trkpt>
        <trkpt lat="29.542265" lon="103.3320449"><ele>2394.45</ele><time>2026-08-08T01:37:14.000Z</time></trkpt>
        <trkpt lat="29.5421712" lon="103.3320449"><ele>2394.76</ele><time>2026-08-08T01:37:36.000Z</time></trkpt>
        <trkpt lat="29.5420762" lon="103.3320276"><ele>2393.39</ele><time>2026-08-08T01:38:14.000Z</time></trkpt>
        <trkpt lat="29.5420345" lon="103.3321"><ele>2391.77</ele><time>2026-08-08T01:38:58.000Z</time></trkpt>
        <trkpt lat="29.5419587" lon="103.3321107"><ele>2389.84</ele><time>2026-08-08T01:39:10.000Z</time></trkpt>
        <trkpt lat="29.5418636" lon="103.3320887"><ele>2389.12</ele><time>2026-08-08T01:39:24.000Z</time></trkpt>
        <trkpt lat="29.5417574" lon="103.3320815"><ele>2387.56</ele><time>2026-08-08T01:39:36.000Z</time></trkpt>
        <trkpt lat="29.541733" lon="103.3319982"><ele>2385.85</ele><time>2026-08-08T01:39:46.000Z</time></trkpt>
        <trkpt lat="29.5417665" lon="103.3318982"><ele>2384.34</ele><time>2026-08-08T01:39:58.000Z</time></trkpt>
        <trkpt lat="29.5418349" lon="103.3317964"><ele>2383.72</ele><time>2026-08-08T01:40:10.000Z</time></trkpt>
        <trkpt lat="29.54185" lon="103.3316863"><ele>2383.45</ele><time>2026-08-08T01:40:24.000Z</time></trkpt>
        <trkpt lat="29.5417805" lon="103.3316597"><ele>2383.33</ele><time>2026-08-08T01:41:20.000Z</time></trkpt>
        <trkpt lat="29.541675" lon="103.3316549"><ele>2384.08</ele><time>2026-08-08T01:42:06.000Z</time></trkpt>
        <trkpt lat="29.5415782" lon="103.3316965"><ele>2385.24</ele><time>2026-08-08T01:42:14.000Z</time></trkpt>
        <trkpt lat="29.5414715" lon="103.3317432"><ele>2385.76</ele><time>2026-08-08T01:42:24.000Z</time></trkpt>
        <trkpt lat="29.5413604" lon="103.3317653"><ele>2387.09</ele><time>2026-08-08T01:42:36.000Z</time></trkpt>
        <trkpt lat="29.5412789" lon="103.3317707"><ele>2388.03</ele><time>2026-08-08T01:42:50.000Z</time></trkpt>
        <trkpt lat="29.541239" lon="103.3316951"><ele>2387.95</ele><time>2026-08-08T01:43:08.000Z</time></trkpt>
        <trkpt lat="29.5412249" lon="103.3315845"><ele>2387.21</ele><time>2026-08-08T01:43:30.000Z</time></trkpt>
        <trkpt lat="29.541266" lon="103.331468"><ele>2386.4</ele><time>2026-08-08T01:43:40.000Z</time></trkpt>
        <trkpt lat="29.5412202" lon="103.3313855"><ele>2385.93</ele><time>2026-08-08T01:43:50.000Z</time></trkpt>
        <trkpt lat="29.5411473" lon="103.3313166"><ele>2387.01</ele><time>2026-08-08T01:44:00.000Z</time></trkpt>
        <trkpt lat="29.5410624" lon="103.3312409"><ele>2386.92</ele><time>2026-08-08T01:44:10.000Z</time></trkpt>
        <trkpt lat="29.5409878" lon="103.3311569"><ele>2386</ele><time>2026-08-08T01:44:18.000Z</time></trkpt>
        <trkpt lat="29.5409031" lon="103.3311123"><ele>2386.04</ele><time>2026-08-08T01:44:26.000Z</time></trkpt>
        <trkpt lat="29.5408224" lon="103.3310547"><ele>2388.97</ele><time>2026-08-08T01:44:37.000Z</time></trkpt>
        <trkpt lat="29.5407381" lon="103.3309978"><ele>2391</ele><time>2026-08-08T01:44:49.000Z</time></trkpt>
        <trkpt lat="29.5406423" lon="103.3310046"><ele>2391.46</ele><time>2026-08-08T01:45:01.000Z</time></trkpt>
        <trkpt lat="29.5405372" lon="103.3310266"><ele>2390.9</ele><time>2026-08-08T01:45:17.000Z</time></trkpt>
        <trkpt lat="29.5404438" lon="103.3310635"><ele>2390.72</ele><time>2026-08-08T01:45:35.000Z</time></trkpt>
        <trkpt lat="29.5403487" lon="103.3310619"><ele>2391.12</ele><time>2026-08-08T01:45:45.000Z</time></trkpt>
        <trkpt lat="29.540247" lon="103.3310639"><ele>2392.26</ele><time>2026-08-08T01:45:55.000Z</time></trkpt>
        <trkpt lat="29.5401423" lon="103.3310643"><ele>2393.8</ele><time>2026-08-08T01:46:05.000Z</time></trkpt>
        <trkpt lat="29.5400397" lon="103.3310769"><ele>2396.35</ele><time>2026-08-08T01:46:17.000Z</time></trkpt>
        <trkpt lat="29.539946" lon="103.3310786"><ele>2396.76</ele><time>2026-08-08T01:46:27.000Z</time></trkpt>
        <trkpt lat="29.539946" lon="103.3310786"><ele>2396.76</ele><time>2026-08-08T01:46:41.000Z</time></trkpt>
      </trkseg>
      <trkseg>
        <trkpt lat="29.53985" lon="103.331074"><ele>2398.13</ele><time>2026-08-08T12:16:10.000Z</time></trkpt>
        <trkpt lat="29.53985" lon="103.331074"><ele>2398.13</ele><time>2026-08-08T12:16:13.000Z</time></trkpt>
        <trkpt lat="29.5397637" lon="103.3311124"><ele>2399.01</ele><time>2026-08-08T12:16:25.000Z</time></trkpt>
        <trkpt lat="29.5396565" lon="103.3311432"><ele>2399.3</ele><time>2026-08-08T12:16:33.000Z</time></trkpt>
        <trkpt lat="29.5395494" lon="103.3311546"><ele>2398.22</ele><time>2026-08-08T12:16:41.000Z</time></trkpt>
        <trkpt lat="29.539441" lon="103.3311776"><ele>2396.65</ele><time>2026-08-08T12:16:57.000Z</time></trkpt>
        <trkpt lat="29.5393982" lon="103.3312746"><ele>2398.06</ele><time>2026-08-08T12:17:07.000Z</time></trkpt>
        <trkpt lat="29.5394326" lon="103.3313995"><ele>2398.31</ele><time>2026-08-08T12:17:15.000Z</time></trkpt>
        <trkpt lat="29.5394852" lon="103.3315094"><ele>2396.57</ele><time>2026-08-08T12:17:21.000Z</time></trkpt>
        <trkpt lat="29.5395552" lon="103.331621"><ele>2395.36</ele><time>2026-08-08T12:17:29.000Z</time></trkpt>
        <trkpt lat="29.5396128" lon="103.331732"><ele>2393.69</ele><time>2026-08-08T12:17:37.000Z</time></trkpt>
        <trkpt lat="29.5396702" lon="103.3318382"><ele>2392.92</ele><time>2026-08-08T12:17:45.000Z</time></trkpt>
        <trkpt lat="29.5396894" lon="103.3319427"><ele>2392.08</ele><time>2026-08-08T12:17:51.000Z</time></trkpt>
        <trkpt lat="29.53972" lon="103.3320603"><ele>2390.82</ele><time>2026-08-08T12:17:59.000Z</time></trkpt>
        <trkpt lat="29.5397848" lon="103.3321606"><ele>2391.06</ele><time>2026-08-08T12:18:07.000Z</time></trkpt>
        <trkpt lat="29.5398124" lon="103.3322626"><ele>2391.13</ele><time>2026-08-08T12:18:17.000Z</time></trkpt>
        <trkpt lat="29.5397388" lon="103.3322927"><ele>2393.92</ele><time>2026-08-08T12:18:27.000Z</time></trkpt>
        <trkpt lat="29.5397272" lon="103.3323713"><ele>2394.9</ele><time>2026-08-08T12:18:35.000Z</time></trkpt>
        <trkpt lat="29.5396573" lon="103.3324416"><ele>2396.16</ele><time>2026-08-08T12:18:54.000Z</time></trkpt>
        <trkpt lat="29.5395716" lon="103.3325032"><ele>2397.76</ele><time>2026-08-08T12:19:08.000Z</time></trkpt>
        <trkpt lat="29.539493" lon="103.3325841"><ele>2400.15</ele><time>2026-08-08T12:19:24.000Z</time></trkpt>
        <trkpt lat="29.5394115" lon="103.3326462"><ele>2401.78</ele><time>2026-08-08T12:19:36.000Z</time></trkpt>
        <trkpt lat="29.539337" lon="103.3327229"><ele>2404.36</ele><time>2026-08-08T12:19:50.000Z</time></trkpt>
        <trkpt lat="29.539268" lon="103.3327954"><ele>2407.46</ele><time>2026-08-08T12:20:02.000Z</time></trkpt>
        <trkpt lat="29.5391817" lon="103.3328377"><ele>2408.79</ele><time>2026-08-08T12:20:16.000Z</time></trkpt>
        <trkpt lat="29.5390922" lon="103.3328928"><ele>2409.8</ele><time>2026-08-08T12:20:24.000Z</time></trkpt>
        <trkpt lat="29.5390092" lon="103.3329604"><ele>2410.46</ele><time>2026-08-08T12:20:32.000Z</time></trkpt>
        <trkpt lat="29.5389294" lon="103.3330292"><ele>2411.64</ele><time>2026-08-08T12:20:42.000Z</time></trkpt>
        <trkpt lat="29.5388375" lon="103.3330787"><ele>2411.84</ele><time>2026-08-08T12:20:50.000Z</time></trkpt>
        <trkpt lat="29.538736" lon="103.3331106"><ele>2412.67</ele><time>2026-08-08T12:21:02.000Z</time></trkpt>
        <trkpt lat="29.5386492" lon="103.3331579"><ele>2413.55</ele><time>2026-08-08T12:21:10.000Z</time></trkpt>
        <trkpt lat="29.5385551" lon="103.3331907"><ele>2414.69</ele><time>2026-08-08T12:21:20.000Z</time></trkpt>
        <trkpt lat="29.5384639" lon="103.3332066"><ele>2415.92</ele><time>2026-08-08T12:21:30.000Z</time></trkpt>
        <trkpt lat="29.5383646" lon="103.3331988"><ele>2416.99</ele><time>2026-08-08T12:21:42.000Z</time></trkpt>
        <trkpt lat="29.538275" lon="103.3332247"><ele>2418.06</ele><time>2026-08-08T12:21:52.000Z</time></trkpt>
        <trkpt lat="29.5382335" lon="103.3332449"><ele>2418.49</ele><time>2026-08-08T12:21:56.000Z</time></trkpt>
        <trkpt lat="29.5381604" lon="103.3332991"><ele>2418.08</ele><time>2026-08-08T12:22:10.000Z</time></trkpt>
        <trkpt lat="29.5380856" lon="103.3333748"><ele>2418.33</ele><time>2026-08-08T12:22:18.000Z</time></trkpt>
        <trkpt lat="29.5380055" lon="103.3334389"><ele>2419.24</ele><time>2026-08-08T12:22:26.000Z</time></trkpt>
        <trkpt lat="29.537909" lon="103.3334912"><ele>2419.13</ele><time>2026-08-08T12:22:36.000Z</time></trkpt>
        <trkpt lat="29.537813" lon="103.333539"><ele>2418.49</ele><time>2026-08-08T12:22:44.000Z</time></trkpt>
        <trkpt lat="29.5377241" lon="103.3336041"><ele>2418.54</ele><time>2026-08-08T12:22:58.000Z</time></trkpt>
        <trkpt lat="29.5376574" lon="103.3336981"><ele>2419.1</ele><time>2026-08-08T12:23:10.000Z</time></trkpt>
        <trkpt lat="29.5375826" lon="103.333769"><ele>2420.18</ele><time>2026-08-08T12:23:20.000Z</time></trkpt>
        <trkpt lat="29.5374944" lon="103.333778"><ele>2421.24</ele><time>2026-08-08T12:23:34.000Z</time></trkpt>
        <trkpt lat="29.5374042" lon="103.3337886"><ele>2423.34</ele><time>2026-08-08T12:23:45.000Z</time></trkpt>
        <trkpt lat="29.5373047" lon="103.3337788"><ele>2426.35</ele><time>2026-08-08T12:23:57.000Z</time></trkpt>
        <trkpt lat="29.5372533" lon="103.3338568"><ele>2427.22</ele><time>2026-08-08T12:24:08.000Z</time></trkpt>
        <trkpt lat="29.5372234" lon="103.3339612"><ele>2429.93</ele><time>2026-08-08T12:24:20.000Z</time></trkpt>
        <trkpt lat="29.5372007" lon="103.3340799"><ele>2432.8</ele><time>2026-08-08T12:24:36.000Z</time></trkpt>
        <trkpt lat="29.5371355" lon="103.3341592"><ele>2435.51</ele><time>2026-08-08T12:24:52.000Z</time></trkpt>
        <trkpt lat="29.5370506" lon="103.3341967"><ele>2437.29</ele><time>2026-08-08T12:25:08.000Z</time></trkpt>
        <trkpt lat="29.5369635" lon="103.3342358"><ele>2438.84</ele><time>2026-08-08T12:25:20.000Z</time></trkpt>
        <trkpt lat="29.5368735" lon="103.3342769"><ele>2439.43</ele><time>2026-08-08T12:25:36.000Z</time></trkpt>
        <trkpt lat="29.5367801" lon="103.3343152"><ele>2441.58</ele><time>2026-08-08T12:25:52.000Z</time></trkpt>
        <trkpt lat="29.5367547" lon="103.3343286"><ele>2444.15</ele><time>2026-08-08T12:25:56.000Z</time></trkpt>
        <trkpt lat="29.5366837" lon="103.3343188"><ele>2445.89</ele><time>2026-08-08T12:26:08.000Z</time></trkpt>
        <trkpt lat="29.5366018" lon="103.3343463"><ele>2447.54</ele><time>2026-08-08T12:26:16.000Z</time></trkpt>
        <trkpt lat="29.5365055" lon="103.3343481"><ele>2448.55</ele><time>2026-08-08T12:26:28.000Z</time></trkpt>
        <trkpt lat="29.5364065" lon="103.3343528"><ele>2448.93</ele><time>2026-08-08T12:26:38.000Z</time></trkpt>
        <trkpt lat="29.5363031" lon="103.3343605"><ele>2449.3</ele><time>2026-08-08T12:26:50.000Z</time></trkpt>
        <trkpt lat="29.5361898" lon="103.3343475"><ele>2449.88</ele><time>2026-08-08T12:27:09.000Z</time></trkpt>
        <trkpt lat="29.5361109" lon="103.3342877"><ele>2451.58</ele><time>2026-08-08T12:27:27.000Z</time></trkpt>
        <trkpt lat="29.5360331" lon="103.3342313"><ele>2453.71</ele><time>2026-08-08T12:27:41.000Z</time></trkpt>
        <trkpt lat="29.53595" lon="103.3341662"><ele>2455.89</ele><time>2026-08-08T12:27:57.000Z</time></trkpt>
        <trkpt lat="29.5358568" lon="103.3341105"><ele>2458.62</ele><time>2026-08-08T12:28:15.000Z</time></trkpt>
        <trkpt lat="29.5357559" lon="103.3340616"><ele>2460.33</ele><time>2026-08-08T12:28:27.000Z</time></trkpt>
        <trkpt lat="29.5356549" lon="103.3340109"><ele>2462.46</ele><time>2026-08-08T12:28:37.000Z</time></trkpt>
        <trkpt lat="29.5355731" lon="103.333943"><ele>2465.03</ele><time>2026-08-08T12:28:51.000Z</time></trkpt>
        <trkpt lat="29.5355526" lon="103.3338434"><ele>2466.61</ele><time>2026-08-08T12:29:13.000Z</time></trkpt>
        <trkpt lat="29.5354961" lon="103.3337577"><ele>2467.07</ele><time>2026-08-08T12:29:33.000Z</time></trkpt>
        <trkpt lat="29.5354153" lon="103.3336958"><ele>2469.45</ele><time>2026-08-08T12:29:43.000Z</time></trkpt>
        <trkpt lat="29.5353767" lon="103.3336017"><ele>2471.13</ele><time>2026-08-08T12:29:53.000Z</time></trkpt>
        <trkpt lat="29.535346" lon="103.3335734"><ele>2471.73</ele><time>2026-08-08T12:30:03.000Z</time></trkpt>
        <trkpt lat="29.5353616" lon="103.3334876"><ele>2472.32</ele><time>2026-08-08T12:30:53.000Z</time></trkpt>
        <trkpt lat="29.5353825" lon="103.3333839"><ele>2473.54</ele><time>2026-08-08T12:31:01.000Z</time></trkpt>
        <trkpt lat="29.5353968" lon="103.3332727"><ele>2473.89</ele><time>2026-08-08T12:31:09.000Z</time></trkpt>
        <trkpt lat="29.5354076" lon="103.3331644"><ele>2473.91</ele><time>2026-08-08T12:31:17.000Z</time></trkpt>
        <trkpt lat="29.5353956" lon="103.3330509"><ele>2474.01</ele><time>2026-08-08T12:31:25.000Z</time></trkpt>
        <trkpt lat="29.5353601" lon="103.3329359"><ele>2474.62</ele><time>2026-08-08T12:31:35.000Z</time></trkpt>
        <trkpt lat="29.5352919" lon="103.3328477"><ele>2475.36</ele><time>2026-08-08T12:31:45.000Z</time></trkpt>
        <trkpt lat="29.5352007" lon="103.3327786"><ele>2476.01</ele><time>2026-08-08T12:31:55.000Z</time></trkpt>
        <trkpt lat="29.5351159" lon="103.3326946"><ele>2476.8</ele><time>2026-08-08T12:32:05.000Z</time></trkpt>
        <trkpt lat="29.5350481" lon="103.3325934"><ele>2477.37</ele><time>2026-08-08T12:32:15.000Z</time></trkpt>
        <trkpt lat="29.5350112" lon="103.3324911"><ele>2477.28</ele><time>2026-08-08T12:32:23.000Z</time></trkpt>
        <trkpt lat="29.5349937" lon="103.3323828"><ele>2477.39</ele><time>2026-08-08T12:32:31.000Z</time></trkpt>
        <trkpt lat="29.5349925" lon="103.3322764"><ele>2478.29</ele><time>2026-08-08T12:32:39.000Z</time></trkpt>
        <trkpt lat="29.5350071" lon="103.3321648"><ele>2479.68</ele><time>2026-08-08T12:32:49.000Z</time></trkpt>
        <trkpt lat="29.5350257" lon="103.3320447"><ele>2479.68</ele><time>2026-08-08T12:33:01.000Z</time></trkpt>
        <trkpt lat="29.5350345" lon="103.331926"><ele>2480.48</ele><time>2026-08-08T12:33:13.000Z</time></trkpt>
        <trkpt lat="29.5350044" lon="103.3318192"><ele>2481.27</ele><time>2026-08-08T12:33:23.000Z</time></trkpt>
        <trkpt lat="29.5349818" lon="103.3317099"><ele>2481.55</ele><time>2026-08-08T12:33:31.000Z</time></trkpt>
        <trkpt lat="29.5349633" lon="103.3315955"><ele>2481.55</ele><time>2026-08-08T12:33:41.000Z</time></trkpt>
        <trkpt lat="29.5349524" lon="103.3314889"><ele>2481.58</ele><time>2026-08-08T12:33:51.000Z</time></trkpt>
        <trkpt lat="29.534907" lon="103.3313892"><ele>2480.86</ele><time>2026-08-08T12:34:01.000Z</time></trkpt>
        <trkpt lat="29.5348157" lon="103.3313619"><ele>2480.43</ele><time>2026-08-08T12:34:11.000Z</time></trkpt>
        <trkpt lat="29.5347318" lon="103.3314257"><ele>2480.84</ele><time>2026-08-08T12:34:21.000Z</time></trkpt>
        <trkpt lat="29.5346898" lon="103.3315468"><ele>2480.96</ele><time>2026-08-08T12:34:31.000Z</time></trkpt>
        <trkpt lat="29.5347113" lon="103.3316885"><ele>2481.9</ele><time>2026-08-08T12:34:43.000Z</time></trkpt>
        <trkpt lat="29.53473" lon="103.3318301"><ele>2483.7</ele><time>2026-08-08T12:34:53.000Z</time></trkpt>
        <trkpt lat="29.5347476" lon="103.3319623"><ele>2484.64</ele><time>2026-08-08T12:35:03.000Z</time></trkpt>
        <trkpt lat="29.5347524" lon="103.3320908"><ele>2484.18</ele><time>2026-08-08T12:35:13.000Z</time></trkpt>
        <trkpt lat="29.5347337" lon="103.3322"><ele>2486.54</ele><time>2026-08-08T12:35:21.000Z</time></trkpt>
        <trkpt lat="29.5347054" lon="103.3323171"><ele>2487.56</ele><time>2026-08-08T12:35:31.000Z</time></trkpt>
        <trkpt lat="29.5346834" lon="103.3324294"><ele>2488.23</ele><time>2026-08-08T12:35:39.000Z</time></trkpt>
        <trkpt lat="29.5346873" lon="103.3325414"><ele>2489.43</ele><time>2026-08-08T12:35:47.000Z</time></trkpt>
        <trkpt lat="29.5347183" lon="103.3325672"><ele>2491.73</ele><time>2026-08-08T12:35:53.000Z</time></trkpt>
        <trkpt lat="29.5347256" lon="103.3326538"><ele>2492.92</ele><time>2026-08-08T12:36:05.000Z</time></trkpt>
        <trkpt lat="29.534721" lon="103.3326771"><ele>2492.9</ele><time>2026-08-08T12:36:07.000Z</time></trkpt>
        <trkpt lat="29.5347326" lon="103.3327582"><ele>2492.76</ele><time>2026-08-08T12:36:17.000Z</time></trkpt>
        <trkpt lat="29.5347811" lon="103.3328441"><ele>2492.94</ele><time>2026-08-08T12:36:25.000Z</time></trkpt>
        <trkpt lat="29.5348192" lon="103.3329505"><ele>2493.7</ele><time>2026-08-08T12:36:35.000Z</time></trkpt>
        <trkpt lat="29.5347649" lon="103.3330013"><ele>2493.29</ele><time>2026-08-08T12:36:45.000Z</time></trkpt>
        <trkpt lat="29.5346692" lon="103.3330314"><ele>2494.71</ele><time>2026-08-08T12:37:07.000Z</time></trkpt>
        <trkpt lat="29.5345628" lon="103.3330451"><ele>2496.94</ele><time>2026-08-08T12:37:27.000Z</time></trkpt>
        <trkpt lat="29.5344626" lon="103.3330755"><ele>2500.22</ele><time>2026-08-08T12:37:45.000Z</time></trkpt>
        <trkpt lat="29.5343711" lon="103.3331189"><ele>2501.96</ele><time>2026-08-08T12:38:01.000Z</time></trkpt>
        <trkpt lat="29.5342869" lon="103.333168"><ele>2504.65</ele><time>2026-08-08T12:38:19.000Z</time></trkpt>
        <trkpt lat="29.5342042" lon="103.3331478"><ele>2506.68</ele><time>2026-08-08T12:38:41.000Z</time></trkpt>
        <trkpt lat="29.5341196" lon="103.3331611"><ele>2509.27</ele><time>2026-08-08T12:38:53.000Z</time></trkpt>
        <trkpt lat="29.5340769" lon="103.3331964"><ele>2511.88</ele><time>2026-08-08T12:39:11.000Z</time></trkpt>
        <trkpt lat="29.5340023" lon="103.3332014"><ele>2514.74</ele><time>2026-08-08T12:39:25.000Z</time></trkpt>
        <trkpt lat="29.5339133" lon="103.3332194"><ele>2518.6</ele><time>2026-08-08T12:39:41.000Z</time></trkpt>
        <trkpt lat="29.5338496" lon="103.3331593"><ele>2520.61</ele><time>2026-08-08T12:40:05.000Z</time></trkpt>
        <trkpt lat="29.5337718" lon="103.3331067"><ele>2523.1</ele><time>2026-08-08T12:40:30.000Z</time></trkpt>
        <trkpt lat="29.5336947" lon="103.3330452"><ele>2527.07</ele><time>2026-08-08T12:40:46.000Z</time></trkpt>
        <trkpt lat="29.5336217" lon="103.3329662"><ele>2532.1</ele><time>2026-08-08T12:41:20.000Z</time></trkpt>
        <trkpt lat="29.5335471" lon="103.3328962"><ele>2536.43</ele><time>2026-08-08T12:41:36.000Z</time></trkpt>
        <trkpt lat="29.5334792" lon="103.3328223"><ele>2539.34</ele><time>2026-08-08T12:41:56.000Z</time></trkpt>
        <trkpt lat="29.5334035" lon="103.3327629"><ele>2543.58</ele><time>2026-08-08T12:42:18.000Z</time></trkpt>
        <trkpt lat="29.5333225" lon="103.3327091"><ele>2546.96</ele><time>2026-08-08T12:44:32.000Z</time></trkpt>
        <trkpt lat="29.5332429" lon="103.3326541"><ele>2549.48</ele><time>2026-08-08T12:44:54.000Z</time></trkpt>
        <trkpt lat="29.5331689" lon="103.3325869"><ele>2552.7</ele><time>2026-08-08T12:45:18.000Z</time></trkpt>
        <trkpt lat="29.5330973" lon="103.3325224"><ele>2558.1</ele><time>2026-08-08T12:45:38.000Z</time></trkpt>
        <trkpt lat="29.5330262" lon="103.3324572"><ele>2562.27</ele><time>2026-08-08T12:46:00.000Z</time></trkpt>
        <trkpt lat="29.5329552" lon="103.3323855"><ele>2565.52</ele><time>2026-08-08T12:46:38.000Z</time></trkpt>
        <trkpt lat="29.5328852" lon="103.3323056"><ele>2567.14</ele><time>2026-08-08T12:46:54.000Z</time></trkpt>
        <trkpt lat="29.5328138" lon="103.3322307"><ele>2570.09</ele><time>2026-08-08T12:47:12.000Z</time></trkpt>
        <trkpt lat="29.5327719" lon="103.3321287"><ele>2573.4</ele><time>2026-08-08T12:47:38.000Z</time></trkpt>
        <trkpt lat="29.5327226" lon="103.3320299"><ele>2576.53</ele><time>2026-08-08T12:47:58.000Z</time></trkpt>
        <trkpt lat="29.5326329" lon="103.3319789"><ele>2579.56</ele><time>2026-08-08T12:50:28.000Z</time></trkpt>
        <trkpt lat="29.5325431" lon="103.3320193"><ele>2582.9</ele><time>2026-08-08T12:51:41.000Z</time></trkpt>
        <trkpt lat="29.532576" lon="103.331921"><ele>2583.55</ele><time>2026-08-08T12:51:49.000Z</time></trkpt>
        <trkpt lat="29.5325809" lon="103.3318156"><ele>2584.91</ele><time>2026-08-08T12:52:05.000Z</time></trkpt>
        <trkpt lat="29.5325397" lon="103.3317232"><ele>2588.8</ele><time>2026-08-08T12:52:21.000Z</time></trkpt>
        <trkpt lat="29.532483" lon="103.3316336"><ele>2590.8</ele><time>2026-08-08T12:52:57.000Z</time></trkpt>
        <trkpt lat="29.5324394" lon="103.3315294"><ele>2596.33</ele><time>2026-08-08T12:53:25.000Z</time></trkpt>
        <trkpt lat="29.5324179" lon="103.3314213"><ele>2600.62</ele><time>2026-08-08T12:53:47.000Z</time></trkpt>
        <trkpt lat="29.532384" lon="103.3313237"><ele>2605.47</ele><time>2026-08-08T12:54:07.000Z</time></trkpt>
        <trkpt lat="29.532328" lon="103.3312436"><ele>2609.46</ele><time>2026-08-08T12:54:33.000Z</time></trkpt>
        <trkpt lat="29.5322475" lon="103.3312612"><ele>2612.39</ele><time>2026-08-08T12:55:17.000Z</time></trkpt>
        <trkpt lat="29.5321914" lon="103.3313593"><ele>2615.19</ele><time>2026-08-08T12:55:37.000Z</time></trkpt>
        <trkpt lat="29.5321686" lon="103.3313181"><ele>2618.63</ele><time>2026-08-08T12:56:25.000Z</time></trkpt>
        <trkpt lat="29.5321841" lon="103.3312246"><ele>2623.34</ele><time>2026-08-08T12:56:37.000Z</time></trkpt>
        <trkpt lat="29.5321637" lon="103.3311204"><ele>2627.76</ele><time>2026-08-08T12:57:07.000Z</time></trkpt>
        <trkpt lat="29.5321635" lon="103.3310096"><ele>2631.18</ele><time>2026-08-08T12:57:21.000Z</time></trkpt>
        <trkpt lat="29.5321716" lon="103.3308915"><ele>2634.17</ele><time>2026-08-08T12:57:45.000Z</time></trkpt>
        <trkpt lat="29.53216" lon="103.3307736"><ele>2637.18</ele><time>2026-08-08T12:57:59.000Z</time></trkpt>
        <trkpt lat="29.5321594" lon="103.3306535"><ele>2638.62</ele><time>2026-08-08T12:58:13.000Z</time></trkpt>
        <trkpt lat="29.5321762" lon="103.3305465"><ele>2639.8</ele><time>2026-08-08T12:58:31.000Z</time></trkpt>
        <trkpt lat="29.5321905" lon="103.3304353"><ele>2640.84</ele><time>2026-08-08T12:58:53.000Z</time></trkpt>
        <trkpt lat="29.5321254" lon="103.3303974"><ele>2642.07</ele><time>2026-08-08T12:59:25.000Z</time></trkpt>
        <trkpt lat="29.532124" lon="103.330321"><ele>2644.39</ele><time>2026-08-08T13:00:33.000Z</time></trkpt>
        <trkpt lat="29.5321928" lon="103.330248"><ele>2649.3</ele><time>2026-08-08T13:00:51.000Z</time></trkpt>
        <trkpt lat="29.5321195" lon="103.3302416"><ele>2653.48</ele><time>2026-08-08T13:01:23.000Z</time></trkpt>
        <trkpt lat="29.5320286" lon="103.3302259"><ele>2655.55</ele><time>2026-08-08T13:02:05.000Z</time></trkpt>
        <trkpt lat="29.5319247" lon="103.3302177"><ele>2658.1</ele><time>2026-08-08T13:02:39.000Z</time></trkpt>
        <trkpt lat="29.5318124" lon="103.3301847"><ele>2664.7</ele><time>2026-08-08T13:03:15.000Z</time></trkpt>
        <trkpt lat="29.5317843" lon="103.3301622"><ele>2670.65</ele><time>2026-08-08T13:03:25.000Z</time></trkpt>
        <trkpt lat="29.5317435" lon="103.3300882"><ele>2675.17</ele><time>2026-08-08T13:03:41.000Z</time></trkpt>
        <trkpt lat="29.531662" lon="103.3300532"><ele>2678.34</ele><time>2026-08-08T13:04:10.000Z</time></trkpt>
        <trkpt lat="29.5316119" lon="103.3299714"><ele>2680.09</ele><time>2026-08-08T13:04:34.000Z</time></trkpt>
        <trkpt lat="29.5315279" lon="103.3299639"><ele>2685.6</ele><time>2026-08-08T13:05:23.000Z</time></trkpt>
        <trkpt lat="29.5314634" lon="103.3298997"><ele>2688.66</ele><time>2026-08-08T13:05:55.000Z</time></trkpt>
        <trkpt lat="29.5314242" lon="103.3298025"><ele>2693.54</ele><time>2026-08-08T13:06:23.000Z</time></trkpt>
        <trkpt lat="29.5313638" lon="103.3297533"><ele>2700.45</ele><time>2026-08-08T13:06:45.000Z</time></trkpt>
        <trkpt lat="29.531275" lon="103.329725"><ele>2704.66</ele><time>2026-08-08T13:06:57.000Z</time></trkpt>
        <trkpt lat="29.5312111" lon="103.3296521"><ele>2707.75</ele><time>2026-08-08T13:07:31.000Z</time></trkpt>
        <trkpt lat="29.5311379" lon="103.329566"><ele>2713.15</ele><time>2026-08-08T13:07:55.000Z</time></trkpt>
        <trkpt lat="29.5310987" lon="103.3294591"><ele>2717.82</ele><time>2026-08-08T13:08:17.000Z</time></trkpt>
        <trkpt lat="29.5310873" lon="103.3293495"><ele>2722.11</ele><time>2026-08-08T13:08:33.000Z</time></trkpt>
        <trkpt lat="29.5310804" lon="103.3292369"><ele>2725.5</ele><time>2026-08-08T13:08:51.000Z</time></trkpt>
        <trkpt lat="29.5310851" lon="103.3291263"><ele>2728.18</ele><time>2026-08-08T13:09:03.000Z</time></trkpt>
        <trkpt lat="29.5310776" lon="103.3290102"><ele>2730.36</ele><time>2026-08-08T13:09:15.000Z</time></trkpt>
        <trkpt lat="29.5310733" lon="103.3288999"><ele>2732.17</ele><time>2026-08-08T13:09:31.000Z</time></trkpt>
        <trkpt lat="29.5310846" lon="103.328789"><ele>2734.62</ele><time>2026-08-08T13:09:49.000Z</time></trkpt>
        <trkpt lat="29.531108" lon="103.3286846"><ele>2737.06</ele><time>2026-08-08T13:10:07.000Z</time></trkpt>
        <trkpt lat="29.5311451" lon="103.3285792"><ele>2739.52</ele><time>2026-08-08T13:10:25.000Z</time></trkpt>
        <trkpt lat="29.5311827" lon="103.3284738"><ele>2741.4</ele><time>2026-08-08T13:10:45.000Z</time></trkpt>
        <trkpt lat="29.5312055" lon="103.3283637"><ele>2744.91</ele><time>2026-08-08T13:10:55.000Z</time></trkpt>
        <trkpt lat="29.5312417" lon="103.3282501"><ele>2745.9</ele><time>2026-08-08T13:11:05.000Z</time></trkpt>
        <trkpt lat="29.5312619" lon="103.3281317"><ele>2746.84</ele><time>2026-08-08T13:11:15.000Z</time></trkpt>
        <trkpt lat="29.5312643" lon="103.3280179"><ele>2748.41</ele><time>2026-08-08T13:11:27.000Z</time></trkpt>
        <trkpt lat="29.5312779" lon="103.3279138"><ele>2750.31</ele><time>2026-08-08T13:11:39.000Z</time></trkpt>
        <trkpt lat="29.5312409" lon="103.3278206"><ele>2752.14</ele><time>2026-08-08T13:11:55.000Z</time></trkpt>
        <trkpt lat="29.5312283" lon="103.3277187"><ele>2751.13</ele><time>2026-08-08T13:12:15.000Z</time></trkpt>
        <trkpt lat="29.531229" lon="103.3276154"><ele>2754.24</ele><time>2026-08-08T13:12:33.000Z</time></trkpt>
        <trkpt lat="29.5312394" lon="103.3275122"><ele>2757.34</ele><time>2026-08-08T13:12:49.000Z</time></trkpt>
        <trkpt lat="29.5312381" lon="103.3274088"><ele>2760.22</ele><time>2026-08-08T13:13:09.000Z</time></trkpt>
        <trkpt lat="29.5312311" lon="103.3273028"><ele>2762.19</ele><time>2026-08-08T13:13:33.000Z</time></trkpt>
        <trkpt lat="29.5312174" lon="103.3271982"><ele>2765.7</ele><time>2026-08-08T13:13:55.000Z</time></trkpt>
        <trkpt lat="29.5311754" lon="103.3271005"><ele>2768.93</ele><time>2026-08-08T13:14:19.000Z</time></trkpt>
        <trkpt lat="29.5310952" lon="103.3270497"><ele>2771.72</ele><time>2026-08-08T13:14:35.000Z</time></trkpt>
        <trkpt lat="29.5309954" lon="103.3270097"><ele>2775.37</ele><time>2026-08-08T13:14:51.000Z</time></trkpt>
        <trkpt lat="29.5308986" lon="103.3269708"><ele>2780.26</ele><time>2026-08-08T13:15:07.000Z</time></trkpt>
        <trkpt lat="29.5308055" lon="103.3269442"><ele>2781.19</ele><time>2026-08-08T13:15:31.000Z</time></trkpt>
        <trkpt lat="29.5307804" lon="103.3268556"><ele>2782.79</ele><time>2026-08-08T13:15:49.000Z</time></trkpt>
        <trkpt lat="29.5307112" lon="103.3268411"><ele>2786.18</ele><time>2026-08-08T13:16:37.000Z</time></trkpt>
        <trkpt lat="29.5306262" lon="103.3268585"><ele>2789.97</ele><time>2026-08-08T13:16:53.000Z</time></trkpt>
        <trkpt lat="29.5305259" lon="103.3269136"><ele>2790.86</ele><time>2026-08-08T13:21:11.000Z</time></trkpt>
        <trkpt lat="29.5304669" lon="103.3270019"><ele>2795</ele><time>2026-08-08T13:21:27.000Z</time></trkpt>
        <trkpt lat="29.5303815" lon="103.3269951"><ele>2795.81</ele><time>2026-08-08T13:21:47.000Z</time></trkpt>
        <trkpt lat="29.5302952" lon="103.3270277"><ele>2796.9</ele><time>2026-08-08T13:22:11.000Z</time></trkpt>
        <trkpt lat="29.5302016" lon="103.3270669"><ele>2799.61</ele><time>2026-08-08T13:22:27.000Z</time></trkpt>
        <trkpt lat="29.5301259" lon="103.3271374"><ele>2802.76</ele><time>2026-08-08T13:22:41.000Z</time></trkpt>
        <trkpt lat="29.5300459" lon="103.3272035"><ele>2805.74</ele><time>2026-08-08T13:22:55.000Z</time></trkpt>
        <trkpt lat="29.5299669" lon="103.3272774"><ele>2808.34</ele><time>2026-08-08T13:23:09.000Z</time></trkpt>
        <trkpt lat="29.5298981" lon="103.3273602"><ele>2811.22</ele><time>2026-08-08T13:23:25.000Z</time></trkpt>
        <trkpt lat="29.5298402" lon="103.3274555"><ele>2813.49</ele><time>2026-08-08T13:23:43.000Z</time></trkpt>
        <trkpt lat="29.5298025" lon="103.3275586"><ele>2814.03</ele><time>2026-08-08T13:23:55.000Z</time></trkpt>
        <trkpt lat="29.5297685" lon="103.3276616"><ele>2814.43</ele><time>2026-08-08T13:24:09.000Z</time></trkpt>
        <trkpt lat="29.5297257" lon="103.3277565"><ele>2815.55</ele><time>2026-08-08T13:24:23.000Z</time></trkpt>
        <trkpt lat="29.5296412" lon="103.3278139"><ele>2815.46</ele><time>2026-08-08T13:24:35.000Z</time></trkpt>
        <trkpt lat="29.529547" lon="103.3278295"><ele>2814.71</ele><time>2026-08-08T13:24:43.000Z</time></trkpt>
        <trkpt lat="29.5294474" lon="103.3278336"><ele>2814.9</ele><time>2026-08-08T13:25:17.000Z</time></trkpt>
        <trkpt lat="29.529343" lon="103.3278183"><ele>2817.31</ele><time>2026-08-08T13:25:29.000Z</time></trkpt>
        <trkpt lat="29.5292615" lon="103.3278599"><ele>2819.04</ele><time>2026-08-08T13:25:55.000Z</time></trkpt>
        <trkpt lat="29.5292394" lon="103.327961"><ele>2819.72</ele><time>2026-08-08T13:26:09.000Z</time></trkpt>
        <trkpt lat="29.5291969" lon="103.3280639"><ele>2820.2</ele><time>2026-08-08T13:26:25.000Z</time></trkpt>
        <trkpt lat="29.529184" lon="103.3281781"><ele>2821.88</ele><time>2026-08-08T13:26:37.000Z</time></trkpt>
        <trkpt lat="29.5291624" lon="103.3282891"><ele>2822.31</ele><time>2026-08-08T13:27:01.000Z</time></trkpt>
        <trkpt lat="29.5291613" lon="103.3284018"><ele>2824.66</ele><time>2026-08-08T13:27:16.000Z</time></trkpt>
        <trkpt lat="29.5291317" lon="103.3285034"><ele>2827.62</ele><time>2026-08-08T13:27:36.000Z</time></trkpt>
        <trkpt lat="29.5290584" lon="103.3285718"><ele>2829.48</ele><time>2026-08-08T13:27:54.000Z</time></trkpt>
        <trkpt lat="29.5290041" lon="103.3286564"><ele>2832.64</ele><time>2026-08-08T13:28:12.000Z</time></trkpt>
        <trkpt lat="29.5289672" lon="103.3287562"><ele>2835.63</ele><time>2026-08-08T13:28:26.000Z</time></trkpt>
        <trkpt lat="29.5289415" lon="103.328866"><ele>2836.99</ele><time>2026-08-08T13:28:40.000Z</time></trkpt>
        <trkpt lat="29.5288964" lon="103.3289625"><ele>2838.59</ele><time>2026-08-08T13:28:56.000Z</time></trkpt>
        <trkpt lat="29.5288395" lon="103.3290544"><ele>2841.26</ele><time>2026-08-08T13:29:10.000Z</time></trkpt>
        <trkpt lat="29.5287861" lon="103.3291567"><ele>2842.59</ele><time>2026-08-08T13:29:30.000Z</time></trkpt>
        <trkpt lat="29.5287319" lon="103.329249"><ele>2843.44</ele><time>2026-08-08T13:29:50.000Z</time></trkpt>
        <trkpt lat="29.5286834" lon="103.3293384"><ele>2845.72</ele><time>2026-08-08T13:30:04.000Z</time></trkpt>
        <trkpt lat="29.5286419" lon="103.3294389"><ele>2847.64</ele><time>2026-08-08T13:30:18.000Z</time></trkpt>
        <trkpt lat="29.5286154" lon="103.3295452"><ele>2849.93</ele><time>2026-08-08T13:30:36.000Z</time></trkpt>
        <trkpt lat="29.5285931" lon="103.3296483"><ele>2852.24</ele><time>2026-08-08T13:30:54.000Z</time></trkpt>
        <trkpt lat="29.5285727" lon="103.329754"><ele>2856.18</ele><time>2026-08-08T13:31:12.000Z</time></trkpt>
        <trkpt lat="29.5285437" lon="103.3298714"><ele>2856.75</ele><time>2026-08-08T13:31:28.000Z</time></trkpt>
        <trkpt lat="29.528523" lon="103.3299825"><ele>2856.51</ele><time>2026-08-08T13:31:42.000Z</time></trkpt>
        <trkpt lat="29.5284668" lon="103.3300741"><ele>2859</ele><time>2026-08-08T13:32:16.000Z</time></trkpt>
        <trkpt lat="29.5283943" lon="103.3301505"><ele>2860.39</ele><time>2026-08-08T13:32:30.000Z</time></trkpt>
        <trkpt lat="29.5283167" lon="103.3302202"><ele>2861.18</ele><time>2026-08-08T13:32:44.000Z</time></trkpt>
        <trkpt lat="29.5282689" lon="103.3303114"><ele>2859.96</ele><time>2026-08-08T13:32:54.000Z</time></trkpt>
        <trkpt lat="29.5282692" lon="103.3304186"><ele>2860.99</ele><time>2026-08-08T13:33:08.000Z</time></trkpt>
        <trkpt lat="29.5282976" lon="103.330522"><ele>2862.82</ele><time>2026-08-08T13:33:20.000Z</time></trkpt>
        <trkpt lat="29.5283283" lon="103.3306276"><ele>2862.97</ele><time>2026-08-08T13:33:34.000Z</time></trkpt>
        <trkpt lat="29.5282932" lon="103.330711"><ele>2861.39</ele><time>2026-08-08T13:33:58.000Z</time></trkpt>
        <trkpt lat="29.5282097" lon="103.330767"><ele>2862.44</ele><time>2026-08-08T13:34:16.000Z</time></trkpt>
        <trkpt lat="29.5281292" lon="103.3308303"><ele>2863.79</ele><time>2026-08-08T13:34:32.000Z</time></trkpt>
        <trkpt lat="29.5280773" lon="103.3309269"><ele>2865.83</ele><time>2026-08-08T13:34:50.000Z</time></trkpt>
        <trkpt lat="29.5280399" lon="103.3310308"><ele>2869.47</ele><time>2026-08-08T13:35:10.000Z</time></trkpt>
        <trkpt lat="29.5280083" lon="103.3311341"><ele>2872.25</ele><time>2026-08-08T13:35:28.000Z</time></trkpt>
        <trkpt lat="29.5279754" lon="103.3312398"><ele>2873.29</ele><time>2026-08-08T13:35:44.000Z</time></trkpt>
        <trkpt lat="29.5279129" lon="103.3313224"><ele>2875.01</ele><time>2026-08-08T13:36:00.000Z</time></trkpt>
        <trkpt lat="29.5278271" lon="103.3313855"><ele>2876.82</ele><time>2026-08-08T13:36:18.000Z</time></trkpt>
        <trkpt lat="29.5277682" lon="103.3314735"><ele>2878.89</ele><time>2026-08-08T13:36:36.000Z</time></trkpt>
        <trkpt lat="29.5277188" lon="103.3315728"><ele>2882.29</ele><time>2026-08-08T13:36:54.000Z</time></trkpt>
        <trkpt lat="29.5276848" lon="103.331683"><ele>2885.24</ele><time>2026-08-08T13:37:10.000Z</time></trkpt>
        <trkpt lat="29.5276735" lon="103.331795"><ele>2887.46</ele><time>2026-08-08T13:37:22.000Z</time></trkpt>
        <trkpt lat="29.5276667" lon="103.3319163"><ele>2888.08</ele><time>2026-08-08T13:37:32.000Z</time></trkpt>
        <trkpt lat="29.5276588" lon="103.3320296"><ele>2890.04</ele><time>2026-08-08T13:37:50.000Z</time></trkpt>
        <trkpt lat="29.5275935" lon="103.3321005"><ele>2893.5</ele><time>2026-08-08T13:38:16.000Z</time></trkpt>
        <trkpt lat="29.5275115" lon="103.3321578"><ele>2893.54</ele><time>2026-08-08T13:38:38.000Z</time></trkpt>
        <trkpt lat="29.5275109" lon="103.3322505"><ele>2895.04</ele><time>2026-08-08T13:38:54.000Z</time></trkpt>
        <trkpt lat="29.5275365" lon="103.3323503"><ele>2897.21</ele><time>2026-08-08T13:39:12.000Z</time></trkpt>
        <trkpt lat="29.5274724" lon="103.3324116"><ele>2900.11</ele><time>2026-08-08T13:40:47.000Z</time></trkpt>
        <trkpt lat="29.5274124" lon="103.3324898"><ele>2901.3</ele><time>2026-08-08T13:41:07.000Z</time></trkpt>
        <trkpt lat="29.5273177" lon="103.3325032"><ele>2904.48</ele><time>2026-08-08T13:41:31.000Z</time></trkpt>
        <trkpt lat="29.5272416" lon="103.3324449"><ele>2907.15</ele><time>2026-08-08T13:41:45.000Z</time></trkpt>
        <trkpt lat="29.5271835" lon="103.3323452"><ele>2908.68</ele><time>2026-08-08T13:42:01.000Z</time></trkpt>
        <trkpt lat="29.5271022" lon="103.3322785"><ele>2909.21</ele><time>2026-08-08T13:43:15.000Z</time></trkpt>
        <trkpt lat="29.52706" lon="103.332398"><ele>2910.83</ele><time>2026-08-08T13:43:29.000Z</time></trkpt>
        <trkpt lat="29.5270456" lon="103.332505"><ele>2910.47</ele><time>2026-08-08T13:43:49.000Z</time></trkpt>
        <trkpt lat="29.5270497" lon="103.3326176"><ele>2911.65</ele><time>2026-08-08T13:44:07.000Z</time></trkpt>
        <trkpt lat="29.5270642" lon="103.3327327"><ele>2913.77</ele><time>2026-08-08T13:44:25.000Z</time></trkpt>
        <trkpt lat="29.5270573" lon="103.3328384"><ele>2914.77</ele><time>2026-08-08T13:44:41.000Z</time></trkpt>
        <trkpt lat="29.5270309" lon="103.3329433"><ele>2916.47</ele><time>2026-08-08T13:44:55.000Z</time></trkpt>
        <trkpt lat="29.5270408" lon="103.3330568"><ele>2918.24</ele><time>2026-08-08T13:45:09.000Z</time></trkpt>
        <trkpt lat="29.5270766" lon="103.3331662"><ele>2921.88</ele><time>2026-08-08T13:45:25.000Z</time></trkpt>
        <trkpt lat="29.5271023" lon="103.3332751"><ele>2923.59</ele><time>2026-08-08T13:45:41.000Z</time></trkpt>
        <trkpt lat="29.5270645" lon="103.333361"><ele>2926.14</ele><time>2026-08-08T13:45:55.000Z</time></trkpt>
        <trkpt lat="29.5269815" lon="103.3334376"><ele>2927.04</ele><time>2026-08-08T13:46:07.000Z</time></trkpt>
        <trkpt lat="29.526891" lon="103.3334875"><ele>2927.48</ele><time>2026-08-08T13:46:21.000Z</time></trkpt>
        <trkpt lat="29.5267932" lon="103.3335083"><ele>2929.16</ele><time>2026-08-08T13:46:41.000Z</time></trkpt>
        <trkpt lat="29.5266942" lon="103.3335264"><ele>2932.14</ele><time>2026-08-08T13:47:07.000Z</time></trkpt>
        <trkpt lat="29.5265979" lon="103.3335321"><ele>2935.59</ele><time>2026-08-08T13:47:33.000Z</time></trkpt>
        <trkpt lat="29.526516" lon="103.333581"><ele>2937.66</ele><time>2026-08-08T13:47:47.000Z</time></trkpt>
        <trkpt lat="29.5264283" lon="103.3336196"><ele>2939.24</ele><time>2026-08-08T13:47:59.000Z</time></trkpt>
        <trkpt lat="29.5263479" lon="103.3336718"><ele>2942.76</ele><time>2026-08-08T13:48:09.000Z</time></trkpt>
        <trkpt lat="29.5262687" lon="103.3337246"><ele>2945.1</ele><time>2026-08-08T13:48:19.000Z</time></trkpt>
        <trkpt lat="29.5261842" lon="103.3337911"><ele>2947.2</ele><time>2026-08-08T13:48:39.000Z</time></trkpt>
        <trkpt lat="29.5261061" lon="103.3338594"><ele>2949.01</ele><time>2026-08-08T13:48:53.000Z</time></trkpt>
        <trkpt lat="29.5260203" lon="103.3338895"><ele>2951.31</ele><time>2026-08-08T13:49:11.000Z</time></trkpt>
        <trkpt lat="29.5259369" lon="103.3339527"><ele>2953.64</ele><time>2026-08-08T13:49:31.000Z</time></trkpt>
        <trkpt lat="29.5258536" lon="103.3340099"><ele>2956.58</ele><time>2026-08-08T13:49:45.000Z</time></trkpt>
        <trkpt lat="29.5257623" lon="103.334041"><ele>2958.56</ele><time>2026-08-08T13:49:59.000Z</time></trkpt>
        <trkpt lat="29.5256736" lon="103.3340939"><ele>2961.42</ele><time>2026-08-08T13:51:43.000Z</time></trkpt>
        <trkpt lat="29.5256166" lon="103.3341748"><ele>2962.64</ele><time>2026-08-08T13:52:03.000Z</time></trkpt>
        <trkpt lat="29.5255492" lon="103.3342654"><ele>2963.1</ele><time>2026-08-08T13:52:15.000Z</time></trkpt>
        <trkpt lat="29.5254924" lon="103.334365"><ele>2963.98</ele><time>2026-08-08T13:52:25.000Z</time></trkpt>
        <trkpt lat="29.5254205" lon="103.3344415"><ele>2964.34</ele><time>2026-08-08T13:52:35.000Z</time></trkpt>
        <trkpt lat="29.5253615" lon="103.3345238"><ele>2964.1</ele><time>2026-08-08T13:52:45.000Z</time></trkpt>
        <trkpt lat="29.52529" lon="103.334602"><ele>2965.47</ele><time>2026-08-08T13:52:59.000Z</time></trkpt>
        <trkpt lat="29.5252052" lon="103.334676"><ele>2967.09</ele><time>2026-08-08T13:53:15.000Z</time></trkpt>
        <trkpt lat="29.5251211" lon="103.3347373"><ele>2969.91</ele><time>2026-08-08T13:53:27.000Z</time></trkpt>
        <trkpt lat="29.525038" lon="103.3347974"><ele>2972.38</ele><time>2026-08-08T13:53:41.000Z</time></trkpt>
        <trkpt lat="29.5249482" lon="103.3348515"><ele>2975.24</ele><time>2026-08-08T13:53:55.000Z</time></trkpt>
        <trkpt lat="29.5248529" lon="103.3348428"><ele>2979.41</ele><time>2026-08-08T13:54:07.000Z</time></trkpt>
        <trkpt lat="29.5247563" lon="103.3347966"><ele>2980.06</ele><time>2026-08-08T13:54:17.000Z</time></trkpt>
        <trkpt lat="29.5246564" lon="103.334764"><ele>2980.52</ele><time>2026-08-08T13:54:29.000Z</time></trkpt>
        <trkpt lat="29.5245559" lon="103.3347699"><ele>2982.74</ele><time>2026-08-08T13:54:43.000Z</time></trkpt>
        <trkpt lat="29.5244676" lon="103.3348198"><ele>2984.8</ele><time>2026-08-08T13:54:53.000Z</time></trkpt>
        <trkpt lat="29.5243896" lon="103.3348818"><ele>2986.78</ele><time>2026-08-08T13:55:01.000Z</time></trkpt>
        <trkpt lat="29.5242905" lon="103.334936"><ele>2987.22</ele><time>2026-08-08T13:55:11.000Z</time></trkpt>
        <trkpt lat="29.5241934" lon="103.3349799"><ele>2987.85</ele><time>2026-08-08T13:55:19.000Z</time></trkpt>
        <trkpt lat="29.5240915" lon="103.3349962"><ele>2988.29</ele><time>2026-08-08T13:55:27.000Z</time></trkpt>
        <trkpt lat="29.5239945" lon="103.3349765"><ele>2988.38</ele><time>2026-08-08T13:55:35.000Z</time></trkpt>
        <trkpt lat="29.5239013" lon="103.3349366"><ele>2988.23</ele><time>2026-08-08T13:55:43.000Z</time></trkpt>
        <trkpt lat="29.5238021" lon="103.3349293"><ele>2988.94</ele><time>2026-08-08T13:55:53.000Z</time></trkpt>
        <trkpt lat="29.523701" lon="103.3349231"><ele>2992.45</ele><time>2026-08-08T13:56:03.000Z</time></trkpt>
        <trkpt lat="29.5236065" lon="103.3349069"><ele>2994.76</ele><time>2026-08-08T13:56:13.000Z</time></trkpt>
        <trkpt lat="29.5235077" lon="103.3349012"><ele>2995.89</ele><time>2026-08-08T13:56:25.000Z</time></trkpt>
        <trkpt lat="29.523415" lon="103.3349"><ele>2997.07</ele><time>2026-08-08T13:56:37.000Z</time></trkpt>
        <trkpt lat="29.5233201" lon="103.3348664"><ele>2998.96</ele><time>2026-08-08T13:56:51.000Z</time></trkpt>
        <trkpt lat="29.5232291" lon="103.3348363"><ele>2997.88</ele><time>2026-08-08T13:57:01.000Z</time></trkpt>
        <trkpt lat="29.5231326" lon="103.3348092"><ele>2996.94</ele><time>2026-08-08T13:57:11.000Z</time></trkpt>
        <trkpt lat="29.5230363" lon="103.3347874"><ele>2995.89</ele><time>2026-08-08T13:57:21.000Z</time></trkpt>
        <trkpt lat="29.5229337" lon="103.3347813"><ele>2995.24</ele><time>2026-08-08T13:57:33.000Z</time></trkpt>
        <trkpt lat="29.5228342" lon="103.3347895"><ele>2996.13</ele><time>2026-08-08T13:57:45.000Z</time></trkpt>
        <trkpt lat="29.5227364" lon="103.3348082"><ele>2999.9</ele><time>2026-08-08T13:57:59.000Z</time></trkpt>
        <trkpt lat="29.5227185" lon="103.3349022"><ele>3002.59</ele><time>2026-08-08T13:58:22.000Z</time></trkpt>
        <trkpt lat="29.5227044" lon="103.3349782"><ele>3003.46</ele><time>2026-08-08T13:58:28.000Z</time></trkpt>
        <trkpt lat="29.5227238" lon="103.3350797"><ele>3004.84</ele><time>2026-08-08T13:58:46.000Z</time></trkpt>
        <trkpt lat="29.5227333" lon="103.3351948"><ele>3005.96</ele><time>2026-08-08T13:58:58.000Z</time></trkpt>
        <trkpt lat="29.5227612" lon="103.3353085"><ele>3006.96</ele><time>2026-08-08T13:59:10.000Z</time></trkpt>
        <trkpt lat="29.5227857" lon="103.3354197"><ele>3008.98</ele><time>2026-08-08T13:59:20.000Z</time></trkpt>
        <trkpt lat="29.5227945" lon="103.3354819"><ele>3012.63</ele><time>2026-08-08T13:59:28.000Z</time></trkpt>
        <trkpt lat="29.5228109" lon="103.3355695"><ele>3013.73</ele><time>2026-08-08T13:59:46.000Z</time></trkpt>
        <trkpt lat="29.5228286" lon="103.335675"><ele>3014.79</ele><time>2026-08-08T14:00:02.000Z</time></trkpt>
        <trkpt lat="29.5228472" lon="103.3357815"><ele>3015.93</ele><time>2026-08-08T14:00:24.000Z</time></trkpt>
        <trkpt lat="29.5228704" lon="103.335902"><ele>3017.93</ele><time>2026-08-08T14:00:38.000Z</time></trkpt>
        <trkpt lat="29.5229423" lon="103.3359079"><ele>3019.42</ele><time>2026-08-08T14:00:49.000Z</time></trkpt>
        <trkpt lat="29.5229952" lon="103.335986"><ele>3021.14</ele><time>2026-08-08T14:01:13.000Z</time></trkpt>
        <trkpt lat="29.5230496" lon="103.3360867"><ele>3023.55</ele><time>2026-08-08T14:01:23.000Z</time></trkpt>
        <trkpt lat="29.5230783" lon="103.3361954"><ele>3024.76</ele><time>2026-08-08T14:01:33.000Z</time></trkpt>
        <trkpt lat="29.5230959" lon="103.3363026"><ele>3026</ele><time>2026-08-08T14:01:43.000Z</time></trkpt>
        <trkpt lat="29.5231123" lon="103.3364175"><ele>3026.78</ele><time>2026-08-08T14:01:55.000Z</time></trkpt>
        <trkpt lat="29.523147" lon="103.3365304"><ele>3026.63</ele><time>2026-08-08T14:02:09.000Z</time></trkpt>
        <trkpt lat="29.5231705" lon="103.3366363"><ele>3027.44</ele><time>2026-08-08T14:02:17.000Z</time></trkpt>
        <trkpt lat="29.5231841" lon="103.3367391"><ele>3028.23</ele><time>2026-08-08T14:02:25.000Z</time></trkpt>
        <trkpt lat="29.5231254" lon="103.3367985"><ele>3028.4</ele><time>2026-08-08T14:02:33.000Z</time></trkpt>
        <trkpt lat="29.5230666" lon="103.3368921"><ele>3028.31</ele><time>2026-08-08T14:02:45.000Z</time></trkpt>
        <trkpt lat="29.5230762" lon="103.3369999"><ele>3029.23</ele><time>2026-08-08T14:03:00.000Z</time></trkpt>
        <trkpt lat="29.5231" lon="103.337106"><ele>3032.11</ele><time>2026-08-08T14:03:19.000Z</time></trkpt>
        <trkpt lat="29.5231" lon="103.337106"><ele>3032.11</ele><time>2026-08-08T14:33:38.000Z</time></trkpt>
      </trkseg>
  </trk>
</gpx>